[[{"header":{"parameterUnit":"m.s-1","parameterCategory":1,"la1":31.0,"la2":29.5877,"lo1":-88.7671,"lo2":-86.6584,"dy":0.0162,"dx":0.0185,"nx":115,"ny":88,"refTime":"2023-10-19T06:00:00:Z","depth":0,"parameterNumber":2,"parameterNumberName":"U-component_of_WINDS"},"data":[0.0,0.0,0.0,0.0,0.0,0.0,0.0,0.0,0.0,0.0,0.0,0.0,0.0,0.0,0.0,0.0,0.0,0.0,0.0,0.0,0.0,0.0,0.0,0.0,0.0,0.0,0.0,0.0,0.0,0.0,0.0,0.0,0.0,0.0,0.0,0.0,0.0,0.0,0.0,0.0,0.0,0.0,0.0,0.0,0.0,0.0,0.0,0.0,0.0,0.0,0.0,0.0,0.0,0.0,0.0,0.0,0.0,0.0,0.0,0.0,0.0,0.0,0.0,0.0,0.0,0.0,0.0,0.0,0.0,0.0,0.0,0.0,0.0,0.0,0.0,0.0,0.0,0.0,0.0,0.0,0.0,0.0,0.0,0.0,0.0,0.0,0.0,0.0,0.0,0.0,0.0,0.0,0.0,0.0,0.0,0.0,0.0,0.0,0.0,0.0,0.0,0.0,0.0,0.0,0.0,0.0,0.0,0.0,0.0,0.0,0.0,0.0,0.0,0.0,0.0,0.0,0.0,0.0,0.0,0.0,0.0,0.0,0.0,0.0,0.0,0.0,0.0,0.0,0.0,0.0,0.0,0.0,0.0,0.0,0.0,0.0,0.0,0.0,0.0,0.0,0.0,0.0,0.0,0.0,0.0,0.0,0.0,0.0,0.0,0.0,0.0,0.0,0.0,0.0,0.0,0.0,0.0,0.0,0.0,0.0,0.0,0.0,0.0,0.0,0.0,0.0,0.0,0.0,0.0,0.0,0.0,0.0,0.0,0.0,0.0,0.0,0.0,0.0,0.0,0.0,0.0,0.0,0.0,0.0,0.0,0.0,0.0,0.0,0.0,0.0,0.0,0.0,0.0,0.0,0.0,0.0,0.0,0.0,0.0,0.0,0.0,0.0,0.0,0.0,0.0,0.0,0.0,0.0,0.0,0.0,0.0,0.0,0.0,0.0,0.0,0.0,0.0,0.0,0.0,0.0,0.0,0.0,0.0,0.0,0.0,0.0,0.0,0.0,0.0,0.0,0.0,0.0,0.0,0.0,0.0,0.0,0.0,0.0,0.0,0.0,0.0,0.0,0.0,0.0,0.0,0.0,0.0,0.0,0.0,0.0,0.0,0.0,0.0,0.0,0.0,0.0,0.0,0.0,0.0,0.0,0.0,0.0,0.0,0.0,0.0,0.0,0.0,0.0,0.0,0.0,0.0,0.0,0.0,0.0,0.0,0.0,0.0,0.0,0.0,0.0,0.0,0.0,0.0,0.0,0.0,0.0,0.0,0.0,0.0,0.0,0.0,0.0,0.0,0.0,0.0,0.0,0.0,0.0,0.0,0.0,0.0,0.0,0.0,0.0,0.0,0.0,0.0,0.0,0.0,0.0,0.0,0.0,0.0,0.0,0.0,0.0,0.0,0.0,0.0,0.0,0.0,0.0,0.0,0.0,0.0,0.0,0.0,0.0,0.0,0.0,0.0,0.0,0.0,0.0,0.0,0.0,0.0,0.0,0.0,0.0,0.0,0.0,0.0,0.0,0.0,0.0,0.0,0.0,0.0,0.0,0.0,0.0,0.0,0.0,0.0,0.0,0.0,0.0,0.0,0.0,0.0,0.0,0.0,0.0,0.0,0.0,0.0,0.0,0.0,0.0,0.0,0.0,0.0,0.0,0.0,0.0,0.0,0.0,0.0,0.0,0.0,0.0,0.0,0.0,0.0,0.0,0.0,0.0,0.0,0.0,0.0,0.0,0.0,0.0,0.0,0.0,0.0,0.0,0.0,0.0,0.0,0.0,0.0,0.0,0.0,0.0,0.0,0.0,0.0,0.0,0.0,0.0,0.0,0.0,0.0,0.0,0.0,0.0,0.0,0.0,0.0,0.0,0.0,0.0,0.0,0.0,0.0,0.0,0.0,0.0,0.0,0.0,0.0,0.0,0.0,0.0,0.0,0.0,0.0,0.0,0.0,0.0,0.0,0.0,0.0,0.0,0.0,0.0,0.0,0.0,0.0,0.0,0.0,0.0,0.0,0.0,0.0,0.0,0.0,0.0,0.0,0.0,0.0,0.0,0.0,0.0,0.0,0.0,0.0,0.0,0.0,0.0,0.0,0.0,0.0,0.0,0.0,0.0,0.0,0.0,0.0,0.0,0.0,0.0,0.0,0.0,0.0,0.0,0.0,0.0,0.0,0.0,0.0,0.0,0.0,0.0,0.0,0.0,0.0,0.0,0.0,0.0,0.0,0.0,0.0,0.0,0.0,0.0,0.0,0.0,0.0,0.0,0.0,0.0,0.0,0.0,0.0,0.0,0.0,0.0,0.0,0.0,0.0,0.0,0.0,0.0,0.0,0.0,0.0,0.0,0.0,0.0,0.0,0.0,0.0,0.0,0.0,0.0,0.0,0.0,0.0,0.0,0.0,0.0,0.0,0.0,0.0,0.0,0.0,0.0,0.0,0.0,0.0,0.0,0.0,0.0,0.0,0.0,0.0,0.0,0.0,0.0,0.0,0.0,0.0,0.0,0.0,0.0,0.0,0.0,0.0,0.0,0.0,0.0,0.0,0.0,0.0,0.0,0.0,0.0,0.0,0.0,0.0,0.0,0.0,0.0,0.0,0.0,0.0,0.0,0.0,0.0,0.0,0.0,0.0,0.0,0.0,0.0,0.0,0.0,0.0,0.0,0.0,0.0,0.0,0.0,0.0,0.0,0.0,0.0,0.0,0.0,0.0,0.0,0.0,0.0,0.0,0.0,0.0,0.0,0.0,0.0,0.0,0.0,0.0,0.0,0.0,0.0,0.0,0.0,0.0,0.0,0.0,0.0,0.0,0.0,0.0,0.0,0.0,0.0,0.0,0.0,0.0,0.0,0.0,0.0,0.0,0.0,0.0,0.0,0.0,0.0,0.0,0.0,0.0,0.0,0.0,0.0,0.0,0.0,0.0,0.0,0.0,0.0,0.0,0.0,0.0,0.0,0.0,0.0,0.0,0.0,0.0,0.0,0.0,0.0,0.0,0.0,0.0,0.0,0.0,0.0,0.0,0.0,0.0,0.0,0.0,0.0,0.0,0.0,0.0,0.0,0.0,0.0,0.0,0.0,0.0,0.0,0.0,0.0,0.0,0.0,0.0,0.0,0.0,0.0,0.0,0.0,0.0,0.0,0.0,0.0,0.0,0.0,0.0,0.0,0.0,0.0,0.0,0.0,0.0,0.0,0.0,0.0,0.0,0.0,0.0,0.0,0.0,0.0,0.0,0.0,0.0,0.0,0.0,0.0,0.0,0.0,0.0,0.0,0.0,0.0,0.0,0.0,0.0,0.0,0.0,0.0,0.0,0.0,0.0,0.0,0.0,0.0,0.0,0.0,0.0,0.0,0.0,0.0,0.0,0.0,0.0,0.0,0.0,0.0,0.0,0.0,0.0,0.0,0.0,0.0,0.0,0.0,0.0,0.0,0.0,0.0,0.0,0.0,0.0,0.0,0.0,0.0,0.0,0.0,0.0,0.0,0.0,0.0,0.0,0.0,0.0,0.0,0.0,0.0,0.0,0.0,0.0,0.0,0.0,0.0,0.0,0.0,0.0,0.0,0.0,0.0,0.0,0.0,0.0,0.0,0.0,0.0,0.0,0.0,0.0,0.0,0.0,0.0,0.0,0.0,0.0,0.0,0.0,0.0,0.0,0.0,0.0,0.0,0.0,0.0,0.0,0.0,0.0,0.0,0.0,0.0,0.0,0.0,0.0,0.0,0.0,0.0,0.0,0.0,0.0,0.0,0.0,0.0,0.0,0.0,0.0,0.0,0.0,0.0,0.0,0.0,0.0,0.0,0.0,0.0,0.0,0.0,0.0,0.0,0.0,0.0,0.0,0.0,0.0,0.0,0.0,0.0,0.0,0.0,0.0,0.0,0.0,0.0,0.0,0.0,0.0,0.0,0.0,0.0,0.0,0.0,0.0,0.0,0.0,0.0,0.0,0.0,0.0,0.0,0.0,0.0,0.0,0.0,0.0,0.0,0.0,0.0,0.0,0.0,0.0,0.0,0.0,0.0,0.0,0.0,0.0,0.0,0.0,0.0,0.0,0.0,0.0,0.0,0.0,0.0,0.0,0.0,0.0,0.0,0.0,0.0,0.0,0.0,0.0,0.0,0.0,0.0,0.0,0.0,0.0,0.0,0.0,0.0,0.0,0.0,0.0,0.0,0.0,0.0,0.0,0.0,0.0,0.0,0.0,0.0,0.0,0.0,0.0,0.0,0.0,0.0,0.0,0.0,0.0,0.0,0.0,0.0,0.0,0.0,-2.3049,0.0,0.0,0.0,0.0,0.0,0.0,0.0,0.0,0.0,0.0,0.0,0.0,0.0,0.0,0.0,0.0,0.0,0.0,0.0,0.0,0.0,0.0,0.0,0.0,0.0,0.0,0.0,0.0,0.0,0.0,0.0,0.0,0.0,0.0,0.0,0.0,0.0,0.0,0.0,0.0,0.0,0.0,0.0,0.0,0.0,0.0,0.0,0.0,0.0,0.0,0.0,0.0,0.0,0.0,0.0,0.0,0.0,0.0,0.0,0.0,0.0,0.0,0.0,0.0,0.0,0.0,0.0,0.0,0.0,0.0,0.0,0.0,0.0,0.0,0.0,0.0,0.0,0.0,0.0,0.0,0.0,0.0,0.0,0.0,0.0,0.0,0.0,0.0,0.0,0.0,0.0,0.0,0.0,0.0,0.0,0.0,0.0,0.0,0.0,0.0,0.0,0.0,0.0,0.0,0.0,0.0,0.0,0.0,0.0,0.0,-2.434,-2.399,-2.399,-2.3802,-2.3452,0.0,0.0,0.0,0.0,0.0,0.0,0.0,0.0,0.0,0.0,0.0,0.0,0.0,0.0,0.0,0.0,0.0,0.0,0.0,0.0,0.0,0.0,0.0,0.0,0.0,0.0,0.0,0.0,0.0,0.0,0.0,0.0,0.0,0.0,0.0,0.0,0.0,0.0,0.0,0.0,0.0,0.0,0.0,0.0,0.0,0.0,0.0,0.0,0.0,0.0,0.0,0.0,0.0,0.0,0.0,0.0,0.0,0.0,0.0,0.0,0.0,0.0,0.0,0.0,0.0,0.0,0.0,0.0,0.0,0.0,0.0,0.0,0.0,0.0,0.0,0.0,0.0,0.0,0.0,0.0,0.0,0.0,0.0,0.0,0.0,0.0,0.0,0.0,0.0,0.0,0.0,0.0,0.0,0.0,0.0,0.0,0.0,0.0,0.0,0.0,0.0,0.0,0.0,0.0,0.0,0.0,0.0,0.0,0.0,0.0,0.0,0.0,-2.434,-2.4169,-2.3829,0.0,0.0,0.0,0.0,0.0,0.0,0.0,0.0,0.0,0.0,0.0,0.0,0.0,0.0,0.0,0.0,0.0,0.0,0.0,0.0,0.0,0.0,0.0,0.0,0.0,0.0,0.0,0.0,0.0,0.0,0.0,0.0,0.0,0.0,0.0,0.0,0.0,0.0,0.0,0.0,0.0,0.0,0.0,0.0,0.0,0.0,0.0,0.0,0.0,0.0,0.0,0.0,0.0,0.0,0.0,0.0,0.0,0.0,0.0,0.0,0.0,0.0,0.0,0.0,0.0,0.0,0.0,0.0,0.0,0.0,0.0,0.0,0.0,0.0,0.0,0.0,0.0,0.0,0.0,0.0,0.0,0.0,0.0,0.0,0.0,0.0,0.0,0.0,0.0,0.0,0.0,0.0,0.0,0.0,0.0,0.0,0.0,0.0,0.0,0.0,0.0,0.0,0.0,0.0,0.0,0.0,0.0,0.0,0.0,0.0,-2.4768,-2.4733,-2.4733,0.0,-2.4169,0.0,0.0,0.0,0.0,0.0,0.0,0.0,0.0,0.0,0.0,0.0,0.0,0.0,0.0,0.0,0.0,0.0,0.0,0.0,0.0,0.0,0.0,0.0,0.0,0.0,0.0,0.0,0.0,0.0,0.0,0.0,0.0,0.0,0.0,0.0,0.0,0.0,0.0,0.0,0.0,0.0,0.0,0.0,0.0,0.0,0.0,0.0,0.0,0.0,0.0,0.0,0.0,0.0,0.0,0.0,0.0,0.0,0.0,0.0,0.0,0.0,0.0,0.0,0.0,0.0,0.0,0.0,0.0,0.0,0.0,0.0,0.0,0.0,0.0,0.0,0.0,0.0,0.0,0.0,0.0,0.0,0.0,0.0,0.0,0.0,0.0,0.0,0.0,0.0,0.0,0.0,0.0,0.0,0.0,0.0,0.0,0.0,0.0,0.0,0.0,0.0,0.0,0.0,0.0,0.0,0.0,0.0,0.0,0.0,0.0,-2.483,-2.483,-2.483,-2.4614,0.0,0.0,0.0,0.0,0.0,0.0,0.0,0.0,0.0,0.0,0.0,0.0,0.0,0.0,0.0,0.0,0.0,0.0,0.0,0.0,0.0,0.0,0.0,0.0,0.0,0.0,0.0,0.0,0.0,0.0,0.0,0.0,0.0,0.0,0.0,0.0,0.0,0.0,0.0,0.0,0.0,0.0,0.0,0.0,0.0,0.0,0.0,0.0,0.0,0.0,0.0,0.0,0.0,0.0,0.0,0.0,0.0,0.0,0.0,0.0,0.0,0.0,0.0,0.0,0.0,0.0,0.0,0.0,0.0,0.0,0.0,0.0,0.0,0.0,0.0,0.0,0.0,0.0,0.0,0.0,0.0,0.0,0.0,0.0,0.0,0.0,0.0,0.0,0.0,0.0,0.0,0.0,0.0,0.0,0.0,0.0,0.0,0.0,0.0,0.0,0.0,0.0,0.0,0.0,0.0,0.0,0.0,0.0,0.0,0.0,-2.483,-2.483,-2.483,-2.483,-2.4665,-2.4374,0.0,0.0,0.0,0.0,0.0,0.0,0.0,0.0,0.0,0.0,0.0,0.0,0.0,0.0,0.0,0.0,0.0,0.0,0.0,0.0,0.0,0.0,0.0,0.0,0.0,0.0,0.0,0.0,0.0,0.0,0.0,0.0,0.0,0.0,0.0,0.0,0.0,0.0,0.0,0.0,0.0,0.0,0.0,0.0,0.0,0.0,0.0,0.0,0.0,0.0,0.0,0.0,0.0,0.0,0.0,0.0,0.0,0.0,0.0,0.0,0.0,0.0,0.0,0.0,0.0,0.0,0.0,0.0,0.0,0.0,0.0,0.0,0.0,0.0,0.0,0.0,0.0,0.0,0.0,0.0,0.0,0.0,0.0,0.0,0.0,0.0,0.0,0.0,0.0,0.0,0.0,0.0,0.0,0.0,0.0,0.0,0.0,0.0,0.0,0.0,0.0,0.0,0.0,0.0,0.0,0.0,0.0,0.0,-2.483,-2.483,-2.483,-2.483,-2.483,-2.4785,0.0,0.0,0.0,0.0,0.0,0.0,0.0,0.0,0.0,0.0,0.0,0.0,0.0,0.0,0.0,0.0,0.0,0.0,0.0,0.0,0.0,0.0,0.0,0.0,0.0,0.0,0.0,0.0,0.0,0.0,0.0,0.0,0.0,0.0,0.0,0.0,0.0,0.0,0.0,0.0,0.0,0.0,0.0,0.0,0.0,0.0,0.0,0.0,0.0,0.0,0.0,0.0,0.0,0.0,0.0,0.0,0.0,0.0,0.0,0.0,0.0,0.0,0.0,0.0,0.0,0.0,0.0,0.0,0.0,0.0,0.0,0.0,0.0,0.0,0.0,0.0,0.0,0.0,0.0,0.0,0.0,0.0,0.0,0.0,0.0,0.0,0.0,0.0,0.0,0.0,0.0,0.0,0.0,0.0,0.0,0.0,0.0,0.0,0.0,0.0,0.0,0.0,0.0,0.0,0.0,0.0,0.0,0.0,0.0,-2.483,-2.483,-2.483,-2.483,-2.483,-2.483,0.0,0.0,0.0,0.0,0.0,0.0,0.0,0.0,0.0,0.0,0.0,0.0,0.0,0.0,0.0,0.0,0.0,0.0,0.0,0.0,0.0,0.0,0.0,0.0,0.0,0.0,0.0,0.0,0.0,0.0,0.0,0.0,0.0,0.0,0.0,0.0,0.0,0.0,0.0,0.0,0.0,0.0,0.0,0.0,0.0,0.0,0.0,0.0,0.0,0.0,0.0,0.0,0.0,0.0,0.0,0.0,0.0,0.0,0.0,0.0,0.0,0.0,0.0,0.0,0.0,0.0,0.0,0.0,0.0,0.0,0.0,0.0,0.0,0.0,0.0,0.0,0.0,0.0,0.0,0.0,0.0,0.0,0.0,0.0,0.0,0.0,0.0,0.0,0.0,0.0,0.0,0.0,0.0,0.0,0.0,0.0,0.0,0.0,0.0,0.0,0.0,0.0,0.0,0.0,0.0,0.0,0.0,0.0,0.0,-2.483,0.0,-2.483,-2.483,-2.483,-2.483,0.0,0.0,0.0,0.0,0.0,0.0,0.0,0.0,0.0,0.0,0.0,0.0,0.0,0.0,0.0,0.0,0.0,0.0,0.0,0.0,0.0,0.0,0.0,0.0,0.0,0.0,0.0,0.0,0.0,0.0,0.0,0.0,0.0,0.0,0.0,0.0,0.0,0.0,0.0,0.0,0.0,0.0,0.0,0.0,0.0,0.0,0.0,0.0,0.0,0.0,0.0,0.0,0.0,0.0,0.0,0.0,0.0,0.0,0.0,0.0,0.0,0.0,0.0,0.0,0.0,0.0,0.0,0.0,0.0,0.0,0.0,0.0,0.0,0.0,0.0,0.0,0.0,0.0,0.0,0.0,0.0,0.0,0.0,0.0,0.0,0.0,0.0,0.0,0.0,0.0,0.0,0.0,0.0,0.0,0.0,0.0,0.0,0.0,0.0,0.0,0.0,0.0,0.0,0.0,0.0,0.0,0.0,0.0,-2.4785,-2.4785,-2.4757,-2.4757,-2.4802,-2.4757,-2.4785,0.0,0.0,0.0,0.0,0.0,0.0,0.0,0.0,0.0,0.0,0.0,0.0,0.0,0.0,0.0,0.0,0.0,0.0,0.0,0.0,0.0,0.0,0.0,0.0,0.0,0.0,0.0,0.0,0.0,0.0,0.0,0.0,0.0,0.0,0.0,0.0,0.0,0.0,0.0,0.0,0.0,0.0,0.0,0.0,0.0,0.0,0.0,0.0,0.0,0.0,0.0,0.0,0.0,0.0,0.0,0.0,0.0,0.0,0.0,0.0,0.0,0.0,0.0,0.0,0.0,0.0,0.0,0.0,0.0,0.0,0.0,0.0,0.0,0.0,0.0,0.0,0.0,0.0,0.0,0.0,0.0,0.0,0.0,0.0,0.0,0.0,0.0,0.0,0.0,0.0,0.0,0.0,0.0,0.0,0.0,0.0,0.0,0.0,0.0,0.0,0.0,0.0,0.0,0.0,0.0,0.0,0.0,0.0,0.0,-2.42,-2.4172,-2.4172,-2.4172,-2.42,-2.4284,0.0,0.0,0.0,0.0,0.0,0.0,0.0,0.0,0.0,0.0,0.0,0.0,0.0,0.0,0.0,0.0,0.0,0.0,0.0,0.0,0.0,0.0,0.0,0.0,0.0,0.0,0.0,0.0,0.0,0.0,0.0,0.0,0.0,0.0,0.0,0.0,0.0,0.0,0.0,0.0,0.0,0.0,0.0,0.0,0.0,0.0,0.0,0.0,0.0,0.0,0.0,0.0,0.0,0.0,0.0,0.0,0.0,0.0,0.0,0.0,0.0,0.0,0.0,0.0,0.0,0.0,0.0,0.0,0.0,0.0,0.0,0.0,0.0,0.0,0.0,0.0,0.0,0.0,0.0,0.0,0.0,0.0,0.0,0.0,0.0,0.0,0.0,0.0,0.0,0.0,0.0,0.0,0.0,0.0,0.0,0.0,0.0,0.0,0.0,0.0,0.0,0.0,0.0,0.0,0.0,0.0,0.0,0.0,0.0,-2.3472,-2.3865,-2.4089,-2.4089,-2.4089,-2.4172,-2.4384,0.0,0.0,0.0,0.0,0.0,0.0,0.0,0.0,0.0,0.0,0.0,0.0,0.0,0.0,0.0,0.0,0.0,0.0,0.0,0.0,0.0,0.0,0.0,0.0,0.0,0.0,0.0,0.0,0.0,0.0,0.0,0.0,0.0,0.0,0.0,0.0,0.0,0.0,0.0,0.0,0.0,0.0,0.0,0.0,0.0,0.0,0.0,0.0,0.0,0.0,0.0,0.0,0.0,0.0,0.0,0.0,0.0,0.0,0.0,0.0,0.0,0.0,0.0,0.0,0.0,0.0,0.0,0.0,0.0,0.0,0.0,0.0,0.0,0.0,0.0,0.0,0.0,0.0,0.0,0.0,0.0,0.0,0.0,0.0,0.0,0.0,0.0,0.0,0.0,0.0,0.0,0.0,0.0,0.0,0.0,0.0,0.0,0.0,0.0,0.0,0.0,0.0,0.0,0.0,0.0,0.0,0.0,0.0,-2.2683,-2.3781,-2.4329,-2.4301,-2.4284,-2.4329,0.0,0.0,0.0,0.0,0.0,0.0,0.0,0.0,0.0,0.0,0.0,0.0,0.0,0.0,0.0,0.0,0.0,0.0,0.0,0.0,0.0,0.0,0.0,0.0,0.0,0.0,0.0,0.0,0.0,0.0,0.0,0.0,0.0,0.0,0.0,0.0,0.0,0.0,0.0,0.0,0.0,0.0,0.0,0.0,0.0,0.0,0.0,0.0,0.0,0.0,0.0,0.0,0.0,0.0,0.0,0.0,0.0,0.0,0.0,0.0,0.0,0.0,0.0,0.0,0.0,0.0,0.0,0.0,0.0,0.0,0.0,0.0,0.0,0.0,0.0,0.0,0.0,0.0,0.0,0.0,0.0,0.0,0.0,0.0,0.0,0.0,0.0,0.0,0.0,0.0,0.0,0.0,0.0,0.0,0.0,0.0,0.0,0.0,0.0,0.0,0.0,0.0,0.0,0.0,0.0,0.0,0.0,0.0,0.0,-2.3585,-2.3669,-2.3613,-2.3388,-2.3191,-2.3388,0.0,0.0,0.0,0.0,0.0,0.0,0.0,0.0,0.0,0.0,0.0,0.0,0.0,0.0,0.0,0.0,0.0,0.0,0.0,0.0,0.0,0.0,0.0,0.0,0.0,0.0,0.0,0.0,0.0,0.0,0.0,0.0,0.0,0.0,0.0,0.0,0.0,0.0,0.0,0.0,0.0,0.0,0.0,0.0,0.0,0.0,0.0,0.0,0.0,0.0,0.0,0.0,0.0,0.0,0.0,0.0,0.0,0.0,0.0,0.0,0.0,0.0,0.0,0.0,0.0,0.0,0.0,0.0,0.0,0.0,0.0,0.0,0.0,0.0,0.0,0.0,0.0,0.0,0.0,0.0,0.0,0.0,0.0,0.0,0.0,0.0,0.0,0.0,0.0,0.0,0.0,0.0,0.0,0.0,0.0,0.0,0.0,0.0,0.0,0.0,0.0,0.0,0.0,0.0,0.0,0.0,0.0,0.0,-2.3416,-2.3163,-2.2994,-2.2824,-2.2611,-2.2711,-2.3135,0.0,0.0,0.0,0.0,0.0,0.0,0.0,0.0,0.0,0.0,0.0,0.0,0.0,0.0,0.0,0.0,0.0,0.0,0.0,0.0,0.0,0.0,0.0,0.0,0.0,0.0,0.0,0.0,0.0,0.0,0.0,0.0,0.0,0.0,0.0,0.0,0.0,0.0,0.0,0.0,0.0,0.0,0.0,0.0,0.0,0.0,0.0,0.0,0.0,0.0,0.0,0.0,0.0,0.0,0.0,0.0,0.0,0.0,0.0,0.0,0.0,0.0,0.0,0.0,0.0,0.0,0.0,0.0,0.0,0.0,0.0,0.0,0.0,0.0,0.0,0.0,0.0,0.0,0.0,0.0,0.0,0.0,0.0,0.0,0.0,0.0,0.0,0.0,0.0,0.0,0.0,0.0,0.0,0.0,0.0,0.0,0.0,0.0,0.0,0.0,0.0,0.0,0.0,0.0,0.0,0.0,0.0,0.0,-2.2696,-2.2173,-2.2116,-2.2116,-2.2201,-2.2655,-2.3191,0.0,0.0,0.0,0.0,0.0,0.0,0.0,0.0,0.0,0.0,0.0,0.0,0.0,0.0,0.0,0.0,0.0,0.0,0.0,0.0,0.0,0.0,0.0,0.0,0.0,0.0,0.0,0.0,0.0,0.0,0.0,0.0,0.0,0.0,0.0,0.0,0.0,0.0,0.0,0.0,0.0,0.0,0.0,0.0,0.0,0.0,0.0,0.0,0.0,0.0,0.0,0.0,0.0,0.0,0.0,0.0,0.0,0.0,0.0,0.0,0.0,0.0,0.0,0.0,0.0,0.0,0.0,0.0,0.0,0.0,0.0,0.0,0.0,0.0,0.0,0.0,0.0,0.0,0.0,0.0,0.0,0.0,0.0,0.0,0.0,0.0,0.0,0.0,0.0,0.0,0.0,0.0,0.0,0.0,0.0,0.0,0.0,0.0,0.0,0.0,0.0,0.0,0.0,0.0,0.0,0.0,0.0,0.0,-2.2853,-2.2485,-2.223,-2.2343,-2.278,-2.2485,-2.257,0.0,0.0,0.0,0.0,0.0,0.0,0.0,0.0,0.0,0.0,0.0,0.0,0.0,0.0,0.0,0.0,0.0,0.0,0.0,0.0,0.0,0.0,0.0,0.0,0.0,0.0,0.0,0.0,0.0,0.0,0.0,0.0,0.0,0.0,0.0,0.0,0.0,0.0,0.0,0.0,0.0,0.0,0.0,0.0,0.0,0.0,0.0,0.0,-1.5502,0.0,0.0,0.0,0.0,0.0,0.0,0.0,0.0,0.0,0.0,0.0,0.0,0.0,0.0,0.0,0.0,0.0,0.0,0.0,0.0,0.0,0.0,0.0,0.0,0.0,0.0,0.0,0.0,0.0,0.0,0.0,0.0,0.0,0.0,0.0,0.0,0.0,0.0,0.0,0.0,0.0,0.0,0.0,0.0,0.0,0.0,0.0,0.0,0.0,0.0,0.0,0.0,0.0,0.0,0.0,0.0,0.0,0.0,0.0,-2.244,-2.2188,-2.1831,-2.1831,-2.2144,-2.2002,-2.2258,0.0,0.0,0.0,0.0,0.0,0.0,0.0,0.0,0.0,0.0,0.0,0.0,0.0,0.0,0.0,0.0,0.0,0.0,0.0,0.0,0.0,0.0,0.0,0.0,0.0,0.0,0.0,0.0,0.0,0.0,0.0,0.0,0.0,0.0,0.0,0.0,0.0,0.0,0.0,0.0,0.0,0.0,0.0,0.0,0.0,0.0,0.0,0.0,0.0,0.0,0.0,0.0,0.0,0.0,0.0,0.0,0.0,0.0,0.0,0.0,0.0,0.0,0.0,0.0,0.0,0.0,0.0,0.0,0.0,0.0,0.0,0.0,0.0,0.0,0.0,0.0,0.0,0.0,0.0,0.0,0.0,0.0,0.0,0.0,0.0,0.0,0.0,0.0,0.0,0.0,0.0,0.0,0.0,0.0,0.0,0.0,0.0,0.0,0.0,0.0,0.0,0.0,0.0,0.0,0.0,0.0,0.0,-2.2462,-2.2036,-2.1767,-2.1449,-2.1291,-2.1276,-2.1549,-2.205,-2.2818,0.0,0.0,0.0,0.0,0.0,0.0,0.0,0.0,0.0,0.0,0.0,0.0,0.0,0.0,0.0,0.0,0.0,0.0,0.0,0.0,0.0,0.0,0.0,0.0,0.0,0.0,0.0,0.0,0.0,0.0,0.0,0.0,0.0,0.0,0.0,0.0,0.0,0.0,-1.6909,-1.6342,0.0,0.0,0.0,0.0,0.0,0.0,0.0,0.0,-1.4441,0.0,0.0,0.0,0.0,0.0,0.0,0.0,0.0,0.0,0.0,0.0,0.0,0.0,0.0,0.0,0.0,0.0,0.0,0.0,0.0,0.0,0.0,0.0,0.0,0.0,0.0,0.0,0.0,0.0,0.0,0.0,0.0,0.0,0.0,0.0,0.0,0.0,0.0,0.0,0.0,0.0,0.0,0.0,0.0,0.0,0.0,0.0,0.0,0.0,0.0,0.0,0.0,0.0,0.0,0.0,0.0,-2.2691,-2.2572,-2.2394,-2.2112,-2.1789,-2.1613,-2.1613,-2.1671,-2.1875,-2.2238,0.0,0.0,0.0,0.0,0.0,0.0,0.0,0.0,0.0,0.0,0.0,0.0,0.0,0.0,0.0,0.0,0.0,0.0,0.0,0.0,0.0,0.0,0.0,0.0,0.0,0.0,0.0,0.0,0.0,0.0,0.0,0.0,0.0,0.0,0.0,0.0,0.0,0.0,0.0,-1.569,-1.5264,0.0,0.0,0.0,0.0,0.0,0.0,0.0,0.0,-1.453,0.0,0.0,0.0,0.0,0.0,0.0,0.0,0.0,0.0,0.0,0.0,0.0,0.0,0.0,0.0,0.0,0.0,0.0,0.0,0.0,0.0,0.0,0.0,0.0,0.0,0.0,0.0,0.0,0.0,0.0,0.0,0.0,0.0,0.0,0.0,0.0,0.0,0.0,0.0,0.0,0.0,0.0,0.0,0.0,0.0,0.0,0.0,0.0,0.0,0.0,0.0,0.0,0.0,0.0,0.0,-2.1872,-2.1827,-2.1696,-2.1389,-2.1204,-2.1401,-2.192,-2.1787,-2.1905,0.0,0.0,0.0,0.0,0.0,0.0,0.0,0.0,0.0,0.0,0.0,0.0,0.0,0.0,0.0,0.0,0.0,0.0,0.0,0.0,0.0,0.0,0.0,0.0,0.0,0.0,0.0,0.0,0.0,0.0,0.0,0.0,0.0,0.0,0.0,0.0,0.0,0.0,0.0,0.0,-1.5175,-1.5116,-1.5116,0.0,0.0,0.0,0.0,0.0,0.0,-1.45,-1.4381,0.0,0.0,0.0,0.0,0.0,0.0,0.0,0.0,0.0,0.0,0.0,0.0,0.0,0.0,0.0,0.0,0.0,0.0,0.0,0.0,0.0,0.0,0.0,0.0,0.0,0.0,0.0,0.0,0.0,0.0,0.0,0.0,0.0,0.0,0.0,0.0,0.0,0.0,0.0,0.0,0.0,0.0,0.0,0.0,0.0,0.0,0.0,0.0,0.0,0.0,0.0,0.0,0.0,0.0,0.0,-2.1028,-2.0935,-2.0783,-2.0523,-2.0426,-2.0794,-2.1639,-2.1459,-2.164,0.0,0.0,0.0,0.0,0.0,0.0,0.0,0.0,0.0,0.0,0.0,0.0,0.0,0.0,0.0,0.0,0.0,0.0,0.0,0.0,0.0,0.0,0.0,0.0,0.0,0.0,0.0,0.0,0.0,0.0,0.0,0.0,0.0,0.0,0.0,0.0,0.0,0.0,0.0,0.0,0.0,-1.4997,-1.4997,-1.4937,0.0,0.0,0.0,0.0,-1.4381,-1.4351,0.0,0.0,0.0,0.0,0.0,0.0,0.0,0.0,0.0,0.0,0.0,0.0,0.0,0.0,0.0,0.0,0.0,0.0,0.0,0.0,0.0,0.0,0.0,0.0,0.0,0.0,0.0,0.0,0.0,0.0,0.0,0.0,0.0,0.0,0.0,0.0,0.0,0.0,0.0,0.0,0.0,0.0,0.0,0.0,0.0,0.0,0.0,0.0,0.0,0.0,0.0,0.0,0.0,0.0,0.0,0.0,-2.0663,-2.0379,-2.0207,-2.0156,-1.9863,-1.9797,-1.989,-2.0155,-2.0447,0.0,0.0,0.0,0.0,0.0,0.0,0.0,0.0,0.0,0.0,0.0,0.0,0.0,0.0,0.0,0.0,0.0,0.0,0.0,0.0,0.0,0.0,0.0,0.0,0.0,0.0,0.0,0.0,0.0,0.0,0.0,0.0,0.0,0.0,0.0,0.0,0.0,0.0,0.0,0.0,0.0,-1.465,-1.465,-1.4441,-1.436,0.0,0.0,-1.466,-1.4882,-1.4951,0.0,0.0,0.0,0.0,0.0,0.0,0.0,0.0,0.0,0.0,0.0,0.0,0.0,0.0,0.0,0.0,0.0,0.0,0.0,0.0,0.0,0.0,0.0,0.0,0.0,0.0,0.0,0.0,0.0,0.0,0.0,0.0,0.0,0.0,0.0,0.0,0.0,0.0,0.0,0.0,0.0,0.0,0.0,0.0,0.0,0.0,0.0,0.0,0.0,0.0,0.0,0.0,0.0,0.0,0.0,-2.0149,-1.9395,-1.9249,-1.9208,-1.9176,-1.9066,-1.9259,-1.9859,-2.0048,-2.0236,0.0,0.0,0.0,0.0,0.0,0.0,0.0,0.0,0.0,0.0,0.0,0.0,0.0,0.0,0.0,0.0,0.0,0.0,0.0,0.0,0.0,0.0,0.0,0.0,0.0,0.0,0.0,0.0,0.0,0.0,0.0,0.0,0.0,0.0,0.0,0.0,0.0,0.0,0.0,0.0,0.0,0.0,-1.4811,-1.4721,0.0,0.0,0.0,-1.4811,-1.4709,0.0,0.0,0.0,0.0,0.0,0.0,0.0,0.0,0.0,0.0,0.0,0.0,0.0,0.0,0.0,0.0,0.0,0.0,0.0,0.0,0.0,0.0,0.0,0.0,0.0,0.0,0.0,0.0,0.0,0.0,0.0,0.0,0.0,0.0,0.0,0.0,0.0,0.0,0.0,0.0,0.0,0.0,0.0,0.0,0.0,0.0,0.0,0.0,0.0,0.0,0.0,0.0,0.0,0.0,0.0,0.0,0.0,-1.837,-1.8319,-1.8281,-1.8281,-1.8314,-1.8635,-1.9382,-1.951,0.0,0.0,0.0,0.0,0.0,0.0,0.0,0.0,0.0,0.0,0.0,0.0,0.0,0.0,0.0,0.0,0.0,0.0,0.0,0.0,0.0,0.0,0.0,0.0,0.0,0.0,0.0,-1.5417,0.0,0.0,0.0,0.0,0.0,0.0,0.0,0.0,0.0,0.0,0.0,0.0,0.0,0.0,-1.5064,-1.5095,-1.5054,-1.5115,0.0,0.0,-1.5043,-1.4909,-1.5196,-1.5225,0.0,0.0,0.0,0.0,0.0,0.0,0.0,0.0,0.0,0.0,0.0,0.0,0.0,0.0,0.0,0.0,0.0,0.0,0.0,0.0,0.0,0.0,0.0,0.0,0.0,0.0,0.0,0.0,0.0,0.0,0.0,0.0,0.0,0.0,0.0,0.0,0.0,0.0,0.0,0.0,0.0,0.0,0.0,0.0,0.0,0.0,0.0,0.0,0.0,0.0,0.0,0.0,0.0,0.0,-1.8306,-1.8205,-1.7915,-1.7759,-1.777,-1.7736,-1.7705,-1.7587,-1.7862,-1.8223,0.0,0.0,0.0,0.0,0.0,0.0,0.0,0.0,0.0,0.0,0.0,0.0,0.0,0.0,0.0,0.0,0.0,0.0,0.0,0.0,0.0,0.0,0.0,0.0,0.0,0.0,0.0,0.0,0.0,0.0,0.0,0.0,0.0,0.0,0.0,0.0,0.0,0.0,0.0,0.0,0.0,-1.5276,-1.5276,-1.5276,-1.5472,0.0,0.0,-1.5441,-1.5929,-1.6128,-1.599,-1.5339,0.0,0.0,0.0,0.0,0.0,0.0,0.0,0.0,0.0,0.0,0.0,0.0,0.0,0.0,0.0,0.0,0.0,0.0,0.0,0.0,0.0,0.0,0.0,0.0,0.0,0.0,0.0,0.0,0.0,0.0,0.0,0.0,0.0,0.0,0.0,0.0,0.0,0.0,0.0,0.0,0.0,0.0,0.0,0.0,0.0,0.0,0.0,0.0,0.0,0.0,0.0,0.0,0.0,-1.8006,-1.7767,-1.773,-1.7689,-1.7689,-1.7689,-1.768,-1.7593,-1.7917,-1.8128,0.0,0.0,0.0,0.0,0.0,0.0,0.0,0.0,0.0,0.0,0.0,0.0,0.0,0.0,0.0,0.0,0.0,0.0,0.0,0.0,0.0,0.0,0.0,0.0,0.0,0.0,0.0,0.0,-1.5649,-1.5522,-1.526,0.0,0.0,0.0,0.0,0.0,0.0,0.0,0.0,0.0,0.0,-1.5572,-1.5751,-1.5783,0.0,0.0,-1.5908,-1.5782,-1.5789,-1.593,-1.5794,-1.5268,-1.5161,0.0,0.0,0.0,0.0,0.0,0.0,0.0,0.0,0.0,0.0,0.0,0.0,0.0,0.0,0.0,0.0,0.0,0.0,0.0,0.0,0.0,0.0,0.0,0.0,0.0,0.0,0.0,0.0,0.0,0.0,0.0,0.0,0.0,0.0,0.0,0.0,0.0,0.0,0.0,0.0,0.0,0.0,0.0,0.0,0.0,0.0,0.0,0.0,0.0,0.0,0.0,0.0,-1.7898,-1.7621,-1.7808,-1.7938,-1.7904,-1.7904,-1.7861,-1.7841,-1.8034,-1.818,0.0,0.0,0.0,0.0,0.0,0.0,0.0,0.0,0.0,0.0,0.0,0.0,0.0,0.0,0.0,0.0,0.0,0.0,0.0,0.0,0.0,0.0,0.0,0.0,0.0,0.0,0.0,0.0,-1.5558,-1.5421,-1.5202,0.0,0.0,0.0,0.0,0.0,0.0,0.0,0.0,0.0,0.0,-1.589,-1.5983,-1.5961,-1.5949,-1.5923,-1.5826,-1.5706,-1.5586,-1.5651,-1.5603,-1.5339,0.0,0.0,0.0,0.0,0.0,0.0,0.0,0.0,0.0,0.0,0.0,0.0,0.0,0.0,0.0,0.0,0.0,0.0,0.0,0.0,0.0,0.0,0.0,0.0,0.0,0.0,0.0,0.0,0.0,0.0,-1.6799,0.0,0.0,0.0,0.0,0.0,0.0,0.0,0.0,0.0,0.0,0.0,0.0,0.0,0.0,0.0,0.0,0.0,0.0,0.0,0.0,0.0,0.0,-1.7886,-1.7896,-1.8191,-1.8377,-1.8377,-1.8377,-1.8269,-1.8099,-1.8089,-1.8089,-1.8123,0.0,0.0,0.0,0.0,0.0,0.0,0.0,0.0,0.0,0.0,0.0,0.0,0.0,0.0,0.0,0.0,0.0,0.0,0.0,0.0,0.0,0.0,0.0,0.0,0.0,0.0,-1.4842,-1.4559,-1.445,0.0,0.0,0.0,0.0,0.0,0.0,0.0,0.0,0.0,0.0,-1.5811,-1.6283,-1.576,-1.569,-1.5615,-1.5489,-1.5177,-1.5075,-1.5381,-1.5483,-1.5528,0.0,0.0,0.0,0.0,0.0,0.0,0.0,0.0,0.0,0.0,0.0,0.0,0.0,0.0,0.0,0.0,0.0,0.0,0.0,0.0,0.0,0.0,0.0,0.0,0.0,0.0,0.0,-1.6067,-1.5893,0.0,0.0,0.0,0.0,0.0,0.0,0.0,0.0,0.0,0.0,0.0,-1.435,-1.435,0.0,0.0,0.0,0.0,0.0,0.0,0.0,0.0,0.0,0.0,0.0,0.0,-1.7699,-1.7724,-1.8156,-1.8398,-1.8398,-1.8398,-1.8366,-1.8291,-1.8326,-1.8326,-1.8291,0.0,0.0,0.0,0.0,0.0,0.0,0.0,0.0,0.0,0.0,0.0,0.0,0.0,0.0,0.0,0.0,0.0,0.0,0.0,0.0,0.0,0.0,0.0,0.0,0.0,-1.5103,0.0,0.0,0.0,0.0,0.0,0.0,0.0,0.0,0.0,0.0,0.0,-1.3369,-1.3602,-1.4274,-1.4717,-1.4781,-1.4756,-1.4647,0.0,0.0,0.0,0.0,0.0,0.0,0.0,0.0,0.0,0.0,0.0,0.0,0.0,0.0,-1.2038,-1.2812,-1.2308,-1.1835,-1.2058,0.0,0.0,0.0,0.0,0.0,0.0,0.0,0.0,0.0,0.0,0.0,0.0,0.0,0.0,-1.4474,0.0,-1.4716,0.0,0.0,0.0,0.0,0.0,0.0,0.0,0.0,-1.4311,-1.4078,-1.3326,-1.3326,-1.3288,0.0,-1.3025,-1.3446,0.0,0.0,0.0,0.0,0.0,0.0,0.0,0.0,-1.7526,-1.7553,-1.8256,-1.8645,-1.8645,-1.8645,-1.8645,-1.8645,-1.8656,-1.8645,-1.8645,-1.8656,-1.8539,0.0,0.0,0.0,0.0,0.0,0.0,0.0,0.0,0.0,0.0,0.0,0.0,0.0,0.0,0.0,0.0,0.0,0.0,0.0,0.0,0.0,0.0,0.0,-1.4079,0.0,0.0,0.0,0.0,0.0,0.0,0.0,0.0,0.0,-1.2485,-1.247,-1.2429,-1.264,-1.3202,-1.3608,-1.364,0.0,0.0,0.0,0.0,0.0,0.0,0.0,-1.3237,-1.3189,-1.2662,-1.2037,-1.131,-1.0885,-1.062,-1.062,0.0,0.0,-1.168,-1.1252,-1.0784,-1.0975,-1.0843,-1.0651,-1.0552,-1.0525,-1.0485,0.0,0.0,0.0,0.0,0.0,0.0,0.0,0.0,-1.2719,-1.2451,0.0,-1.3074,0.0,0.0,0.0,0.0,0.0,-1.4675,0.0,0.0,-1.4168,-1.4368,-1.356,-1.3522,-1.356,-1.3529,-1.2758,-1.2417,-1.2442,-1.2806,0.0,0.0,0.0,0.0,0.0,0.0,-1.7316,-1.728,-1.8368,-1.8998,-1.8998,-1.9071,-1.9071,-1.8998,-1.8998,-1.8951,-1.8925,-1.8842,-1.8889,-1.8889,-1.8112,0.0,0.0,0.0,0.0,0.0,0.0,0.0,0.0,0.0,0.0,0.0,0.0,0.0,0.0,0.0,0.0,0.0,0.0,0.0,0.0,-1.2993,0.0,0.0,0.0,0.0,0.0,0.0,0.0,0.0,0.0,0.0,-1.1434,-1.1786,-1.2005,-1.202,0.0,0.0,0.0,0.0,-1.2186,-1.1621,-1.1893,-1.2137,-1.2101,-1.2137,-1.2337,-1.281,0.0,0.0,-0.9765,-1.0108,-1.0413,-1.0431,-1.0025,-0.9887,-1.0518,-1.0592,-1.0578,-1.0611,-1.0585,-1.0505,-1.0239,-1.0105,-1.0025,-1.1638,0.0,0.0,0.0,0.0,-1.2867,-1.2765,-1.2649,-1.254,-1.2481,-1.2433,-1.2664,0.0,0.0,0.0,0.0,0.0,0.0,-1.2726,-1.1837,-1.2179,-1.1876,-1.1062,-1.1062,-1.1062,-1.1023,-1.0835,-1.0719,-1.0713,-1.0836,-1.19,-1.3847,0.0,0.0,0.0,0.0,-1.5285,-1.5081,-1.6554,-1.7407,-1.7407,-1.8524,-1.856,-1.7443,-1.737,-1.6847,-1.5662,-1.5625,-1.5487,-1.5274,-1.5044,0.0,0.0,0.0,0.0,0.0,0.0,0.0,0.0,0.0,0.0,0.0,0.0,0.0,0.0,0.0,0.0,0.0,0.0,0.0,-1.2323,-1.147,-1.1197,0.0,0.0,0.0,0.0,0.0,0.0,0.0,0.0,0.0,-1.0486,-1.0457,-1.0441,0.0,0.0,-1.1326,-1.1287,-1.1186,-1.0989,-1.0559,-1.0806,0.0,-1.0599,-1.0815,-1.1012,-1.1188,-1.0463,-0.9842,-0.9735,-0.9513,-0.9368,-0.9373,-0.9235,-0.9208,-0.936,-0.9394,-0.9434,-0.94,-0.9394,-0.9394,-0.9297,-0.9257,-0.9257,-1.0758,-1.169,-1.1739,-1.1727,-1.1727,-1.1727,-1.165,-1.1533,-1.1495,-1.1495,-1.1533,-1.1688,-1.1766,-1.1766,-1.194,0.0,0.0,0.0,-1.1553,-1.0878,-1.0925,-1.065,-1.0095,-1.0139,-1.0166,-1.0166,-1.0166,-1.0166,-1.0166,-1.0324,-1.1146,-1.2592,0.0,0.0,-1.3671,-1.4176,-1.4268,-1.4106,-1.5421,-1.6159,-1.6159,-1.7114,-1.7114,-1.6197,-1.6121,-1.5666,-1.467,-1.4605,-1.4468,-1.4241,-1.3876,-1.3695,0.0,0.0,0.0,0.0,0.0,0.0,0.0,0.0,0.0,0.0,0.0,-1.3578,-1.365,0.0,0.0,0.0,-1.2093,-1.1606,-1.09,-1.0474,0.0,0.0,0.0,0.0,0.0,0.0,0.0,-1.0585,-1.0243,-0.9996,-0.9958,-0.9874,-0.979,-0.9747,-1.0033,-1.0271,-1.0393,0.0,-1.0237,-1.0064,-1.0343,-1.0439,-1.0216,-1.0365,-1.0476,-1.0328,-1.0048,-0.9818,-0.9812,-0.9493,-0.9271,-0.926,-0.9233,-0.9201,-0.9237,-0.9201,-0.9125,-0.8957,-0.8914,-0.8914,-0.8914,-0.8914,-0.8914,-1.0424,-1.0408,-1.0532,-1.0592,-1.0592,-1.0592,-1.0397,-1.0008,-1.0052,-1.0052,-1.0047,-1.0425,-1.0575,-1.0625,-1.1106,0.0,-1.0947,-1.0947,-1.0684,-1.0221,-1.0335,-1.0324,-1.0226,-1.0329,-1.0424,-1.0424,-1.0424,-1.0424,-1.0424,-1.0746,-1.0947,-1.0942,-1.1197,-1.1771,-1.2555,-1.3424,-1.3847,-1.3807,-1.4629,-1.5146,-1.5305,-1.5305,-1.5225,-1.5098,-1.5106,-1.5027,-1.4907,-1.4767,-1.4727,-1.468,-1.3919,-1.345,-1.345,0.0,0.0,0.0,0.0,0.0,0.0,0.0,0.0,0.0,0.0,0.0,0.0,0.0,0.0,0.0,-1.0931,0.0,-0.9736,-0.9966,0.0,0.0,0.0,-1.0721,-1.0739,-1.039,-1.0165,-1.0182,0.0,0.0,-0.9802,-0.9905,-0.9894,-0.9594,-0.9654,-0.9774,-0.9813,-0.9845,-0.984,-0.996,-1.0297,-1.0523,-1.0416,-1.0466,-1.0345,-1.0037,-0.9953,-0.9943,-0.9938,-0.9862,-0.9775,-0.9742,-0.9731,-0.9693,-0.9698,-0.9671,-0.9573,-0.9071,-0.8989,-0.8984,-0.8989,-0.8989,-0.8989,-1.0424,-1.0418,-1.0444,-1.0416,-1.0462,-1.0456,-1.0377,-1.0302,-1.0297,-1.0302,-1.0297,-1.0283,-1.0279,-1.0324,-1.0525,-1.0598,-1.0545,-1.055,-1.0488,-1.0386,-1.0373,-1.0367,-1.0346,-1.0373,-1.0424,-1.0424,-1.0424,-1.0424,-1.0424,-1.0504,-1.0545,-1.055,-1.0687,-1.0993,-1.1388,-1.1613,-1.1585,-1.1304,-1.2689,-1.4,-1.5225,-1.5305,-1.4669,-1.3434,-1.3401,-1.2809,-1.1619,-1.1549,-1.1536,-1.1536,-1.1307,-1.1334,-1.1607,-1.1454,0.0,0.0,0.0,0.0,0.0,0.0,0.0,0.0,0.0,-1.1405,-1.1635,0.0,-1.058,0.0,-1.0165,-0.9863,-0.9703,-0.9746,0.0,0.0,-0.9947,-1.0007,-1.0141,-0.997,-0.9888,-1.0031,-0.9878,-0.9802,-0.9802,-0.9943,-0.9915,-0.9742,-0.9823,-0.9981,-1.009,-0.9915,-0.9807,-0.9883,-0.9916,-0.9904,-0.9975,-0.9904,-0.9932,-0.9791,-0.9802,-0.9753,-0.9758,-0.9731,-0.9709,-0.9709,-0.9731,-0.9709,-0.9714,-0.9703,-0.9682,-0.9525,-0.9503,-0.947,-0.9383,-0.9356,-0.9329,-1.0541,-1.0541,-1.0541,-1.0541,-1.0536,-1.0433,-1.0424,-1.0424,-1.0424,-1.0424,-1.0384,-1.0313,-1.0313,-1.0402,-1.0473,-1.0492,-1.0541,-1.0541,-1.0514,-1.0465,-1.052,-1.0514,-1.0465,-1.052,-1.0541,-1.0541,-1.0541,-1.0541,-1.0541,-1.0541,-1.0541,-1.0547,-1.0606,-1.0724,-1.0874,-1.0868,-1.0746,-1.0541,-1.1388,-1.2319,-1.3207,-1.3247,-1.28,-1.1912,-1.1871,-1.1469,-1.0582,-1.0492,-1.05,-1.05,-1.0451,-1.0504,-1.0706,-1.0706,-1.0827,0.0,0.0,0.0,0.0,0.0,0.0,0.0,0.0,0.0,0.0,0.0,-1.009,-1.0129,-0.9889,-0.9764,-0.9824,-0.9878,-0.9932,-0.9992,-0.9992,-1.0041,-1.0172,-1.0068,-1.0057,-1.0237,-1.0248,-1.0219,-1.0273,-1.0427,-1.0476,-1.0411,-1.037,-1.0384,-1.0291,-1.0166,-1.0112,-1.0175,-1.0143,-1.0144,-1.0144,-1.0144,-1.0144,-1.0144,-1.0144,-1.0144,-1.0144,-1.0135,-1.0102,-1.0102,-1.0064,-0.997,-0.996,-0.9905,-0.9894,-0.984,-0.9829,-0.9764,-0.9606,-0.9568,-0.9578,-1.0695,-1.0695,-1.0695,-1.0695,-1.0679,-1.052,-1.0433,-1.0433,-1.0433,-1.0422,-1.0405,-1.0422,-1.0476,-1.0599,-1.0615,-1.0639,-1.069,-1.0695,-1.0677,-1.0626,-1.0688,-1.0641,-1.0626,-1.0688,-1.0695,-1.0695,-1.0695,-1.0695,-1.0695,-1.0695,-1.0695,-1.0695,-1.0695,-1.0695,-1.0695,-1.0695,-1.0695,-1.0695,-1.0695,-1.0695,-1.0695,-1.0695,-1.0695,-1.0695,-1.0695,-1.0695,-1.069,-1.0634,-1.062,-1.0615,-1.0563,-1.0513,-1.0554,-1.0594,-1.0635,0.0,-1.0554,0.0,0.0,0.0,0.0,0.0,0.0,0.0,0.0,-1.0203,-1.0068,-1.0068,-0.9932,-0.9915,-1.0057,-1.0177,-1.0253,-1.0275,-1.0367,-1.0438,-1.0489,-1.0443,-1.0511,-1.0609,-1.0672,-1.0739,-1.0851,-1.095,-1.1052,-1.0976,-1.0867,-1.0704,-1.0503,-1.0427,-1.0481,-1.0652,-1.0657,-1.0574,-1.0601,-1.0603,-1.0598,-1.0619,-1.0582,-1.0693,-1.0639,-1.0568,-1.0555,-1.0544,-1.0451,-1.0335,-1.0242,-1.0221,-1.0188,-1.009,-1.0068,-0.9987,-0.9758,-0.9688,-0.9725,-1.0695,-1.0695,-1.0695,-1.0695,-1.069,-1.0647,-1.063,-1.063,-1.0672,-1.0617,-1.0577,-1.0628,-1.0628,-1.0604,-1.0661,-1.0674,-1.0695,-1.0695,-1.0684,-1.0663,-1.0684,-1.0684,-1.0663,-1.0684,-1.0695,-1.0695,-1.0695,-1.0695,-1.0695,-1.0695,-1.0695,-1.0695,-1.0695,-1.0695,-1.0695,0.0,0.0,0.0,-1.0695,-1.0695,-1.0695,-1.0695,-1.0695,-1.0695,-1.0695,0.0,-1.0695,-1.0674,-1.0663,-1.0699,-1.1014,0.0,0.0,0.0,0.0,0.0,0.0,0.0,0.0,0.0,0.0,0.0,-1.0766,-1.0727,-1.0438,-1.0347,-1.0318,-1.0313,-1.0297,-1.0291,-1.0318,-1.0462,-1.0571,-1.0582,-1.0614,-1.071,-1.0797,-1.0726,-1.0683,-1.0699,-1.0679,-1.0706,-1.0739,-1.0749,-1.0771,-1.0787,-1.0704,-1.0645,-1.0677,-1.0619,-1.0609,-1.0601,-1.0541,-1.0471,-1.0454,-1.0471,-1.0498,-1.0454,-1.0449,-1.0465,-1.0476,-1.0454,-1.0427,-1.0433,-1.04,-1.0389,-1.0356,-1.0351,-1.034,-1.0318,-1.0313,-1.0215,-0.9883,-0.9769,-0.978,-1.0695,0.0,-1.0695,-1.0695,0.0,-1.0695,-1.0695,-1.0695,-1.0695,-1.0663,-1.065,-1.0668,-1.0663,-1.065,-1.0668,-1.0695,-1.0695,-1.0695,-1.0695,-1.0695,-1.0695,-1.0695,-1.0695,-1.0695,-1.0695,-1.0695,-1.0695,-1.0695,-1.0695,-1.0695,-1.0695,-1.0695,-1.0695,-1.0695,-1.0695,-1.0755,-1.0755,-1.0695,-1.0695,-1.0695,-1.0695,-1.0695,-1.0695,-1.0695,-1.0945,0.0,0.0,0.0,0.0,0.0,0.0,0.0,0.0,-1.1944,0.0,-1.2069,-1.1902,-1.1736,-1.1736,-1.1528,-1.1291,-1.1022,-1.0884,-1.0712,-1.0574,-1.0503,-1.0489,-1.0389,-1.0424,-1.0424,-1.0389,-1.0528,-1.062,-1.0639,-1.0699,-1.0722,-1.0766,-1.0733,-1.0722,-1.0777,-1.0787,-1.0804,-1.0911,-1.0916,-1.0916,-1.0874,-1.0867,-1.084,-1.0884,-1.0759,-1.0634,-1.0639,-1.0601,-1.0563,-1.0558,-1.0558,-1.0558,-1.0563,-1.0563,-1.0558,-1.0558,-1.0558,-1.0558,-1.0558,-1.0558,-1.0547,-1.0522,-1.0511,-1.0495,-1.04,-1.0424,-1.034,-1.0139,-1.0106,-1.0095,-1.0706,-1.0728,-1.0728,-1.0739,-1.076,-1.076,-1.076,-1.0755,0.0,0.0,0.0,-1.0695,-1.0695,-1.0695,-1.0695,-1.0695,-1.0695,-1.0695,-1.0695,-1.0695,-1.0717,-1.0728,-1.0728,-1.0749,-1.076,-1.076,-1.076,-1.0802,-1.076,-1.076,-1.076,-1.076,-1.076,-1.076,-1.0766,-1.0858,-1.0863,-1.0766,-1.076,-1.076,-1.076,-1.076,-1.076,-1.076,-1.1115,-1.1354,-1.1438,-1.179,-1.2027,-1.211,-1.2152,-1.2193,-1.2193,-1.2276,-1.2318,-1.2318,-1.2235,-1.2193,-1.2193,-1.2069,-1.179,-1.1354,-1.0979,-1.0717,-1.0695,-1.0645,-1.0547,-1.0454,-1.0449,-1.0449,-1.0449,-1.0552,-1.0659,-1.0664,-1.0726,-1.076,-1.0766,-1.0802,-1.0809,-1.0933,-1.0949,-1.0987,-1.1079,-1.109,-1.1107,-1.1096,-1.1052,-1.1058,-1.1009,-1.0802,-1.0683,-1.0753,-1.069,-1.0684,-1.069,-1.0679,-1.0695,-1.0674,-1.0679,-1.0695,-1.0695,-1.0695,-1.0695,-1.0674,-1.069,-1.0688,-1.0612,-1.0631,-1.0593,-1.0465,-1.0449,-1.0449,-1.0449,-1.0449,-1.0422,-1.0755,-1.0895,-1.0852,-1.0954,-1.1052,-1.1052,-1.1052,-1.1036,-1.0787,-1.0695,-1.0695,-1.0695,-1.0695,-1.0695,-1.0695,-1.0695,-1.0695,-1.0695,-1.0695,-1.0701,-1.0804,-1.0895,-1.0858,-1.1003,-1.1052,-1.1047,-1.1047,-1.1052,-1.1052,-1.1047,-1.1052,-1.1047,-1.1052,-1.1047,-1.1052,-1.1069,-1.1069,-1.1052,-1.1052,-1.1052,-1.1052,-1.1052,-1.1052,-1.1047,-1.0991,-1.1148,-1.1565,-1.155,-1.1694,-1.2069,-1.2443,-1.2609,-1.2609,-1.2989,-1.3238,-1.3189,-1.2858,-1.2609,-1.2609,-1.1944,-1.1366,-1.101,-1.0895,-1.0809,-1.0706,-1.0679,-1.0663,-1.0647,-1.063,-1.0647,-1.0652,-1.0786,-1.0846,-1.0862,-1.0971,-1.1047,-1.1025,-1.1025,-1.1025,-1.1047,-1.1079,-1.1063,-1.1074,-1.1085,-1.1079,-1.1079,-1.0998,-1.0911,-1.084,-1.084,-1.0867,-1.0878,-1.076,-1.0706,-1.0695,-1.0695,-1.0695,-1.0695,-1.0695,-1.0695,-1.0695,-1.0695,-1.0695,-1.0695,-1.0695,-1.0684,-1.0704,-1.071,-1.0688,-1.0619,-1.0655,-1.0625,-1.0619,-1.0661,-1.0612,-1.0965,-1.1014,-1.102,-1.1052,-1.1107,-1.1107,-1.1107,-1.1096,-1.0944,-1.0933,-1.0933,-1.0896,-1.0938,-1.0938,-1.0933,-1.0933,-1.0933,-1.089,-1.0933,-1.0938,-1.0992,-1.102,-1.1025,-1.1074,-1.1107,-1.1107,-1.1107,-1.1107,-1.1107,-1.1107,-1.1107,-1.1107,-1.1107,-1.1128,-1.1194,-1.1194,-1.127,-1.133,-1.1166,-1.1107,-1.1107,-1.1107,-1.123,-1.1489,-1.1641,-1.1991,-1.2466,-1.2616,-1.279,-1.3001,-1.3176,-1.3303,-1.3297,-1.3514,-1.3641,-1.3599,-1.3423,-1.3263,-1.3191,-1.2528,-1.2051,-1.1903,-1.1658,-1.1509,-1.1451,-1.1048,-1.0766,-1.0701,-1.0695,-1.0695,-1.0695,-1.0744,-1.0777,-1.0777,-1.0831,-1.0858,-1.0858,-1.0863,-1.0863,-1.0905,-1.0905,-1.0863,-1.0905,-1.0863,-1.0863,-1.0858,-1.0809,-1.0755,-1.0701,-1.0739,-1.0777,-1.0771,-1.0733,-1.0701,-1.0695,-1.0695,-1.0695,-1.0695,-1.0695,-1.0695,-1.0695,-1.0695,-1.0695,-1.0695,-1.0695,-1.0695,-1.0695,-1.0695,-1.0695,-1.0695,-1.0695,-1.0695,-1.0695,-1.0695,-1.0693,-1.1118,-1.1139,-1.1139,-1.1156,-1.1183,-1.1183,-1.1183,-1.1183,-1.1183,-1.1183,-1.1177,-1.1128,-1.1107,-1.1107,-1.1107,-1.1101,-1.1107,-1.1107,-1.1101,-1.1107,-1.1128,-1.1139,-1.1145,-1.1166,-1.1183,-1.1183,-1.1183,-1.1183,-1.1183,-1.1183,-1.1183,-1.1183,-1.1183,-1.1226,-1.1357,-1.1357,-1.1406,-1.1483,-1.1406,-1.1356,-1.1356,-1.1356,-1.1573,-1.205,-1.236,-1.2773,-1.3197,-1.3515,-1.3709,-1.3795,-1.3795,-1.3795,-1.3795,-1.3795,-1.3795,-1.3795,-1.3795,-1.3705,-1.3512,-1.3062,-1.274,-1.2663,-1.237,-1.2202,-1.2125,-1.1619,-1.1148,-1.0889,-1.0904,-1.082,-1.0737,-1.0695,-1.0695,-1.0695,-1.0695,-1.0706,-1.0695,-1.0695,-1.0695,-1.0695,-1.0695,-1.0701,-1.0695,-1.0695,-1.0706,-1.0706,-1.0695,-1.0695,-1.0695,-1.0695,-1.0695,-1.0695,-1.0695,-1.0695,-1.0695,-1.0695,-1.0695,-1.0695,-1.0695,-1.0695,-1.0695,-1.0695,-1.0695,-1.0695,-1.0695,-1.0695,-1.0695,-1.0695,-1.0695,-1.0695,-1.0695,-1.0695,-1.0695,-1.0695,-1.0695,-1.1166,-1.1248,-1.1259,-1.1368,-1.1455,-1.1461,-1.1455,-1.1461,-1.1466,-1.1466,-1.1439,-1.1199,-1.1112,-1.1107,-1.1112,-1.1118,-1.1118,-1.1107,-1.1112,-1.1123,-1.121,-1.1303,-1.1308,-1.1412,-1.1466,-1.1461,-1.1455,-1.1444,-1.145,-1.1455,-1.1461,-1.1466,-1.1466,-1.1472,-1.1483,-1.1483,-1.1494,-1.1499,-1.1876,-1.2131,-1.2131,-1.2086,-1.2308,-1.2794,-1.2716,-1.2917,-1.3396,-1.3309,-1.3459,-1.3759,-1.3808,-1.3802,-1.3802,-1.3802,-1.3802,-1.3802,-1.3802,-1.3617,-1.3268,-1.3169,-1.2973,-1.2558,-1.2545,-1.2502,-1.2502,-1.2392,-1.204,-1.1562,-1.1367,-1.1218,-1.0779,-1.0748,-1.08,-1.0853,-1.0842,-1.0695,-1.0795,-1.0695,-1.0695,-1.0695,-1.0806,-1.0695,-1.0722,-1.0722,-1.0717,-1.0733,-1.0739,-1.078,-1.0733,-1.0775,-1.0733,-1.0717,-1.0701,-1.0701,-1.0701,-1.0695,-1.0695,-1.0695,-1.0695,-1.0695,-1.0695,-1.0695,-1.0695,-1.0695,-1.0695,-1.0695,-1.0695,-1.0695,-1.0695,-1.0695,-1.0695,-1.0695,-1.0695,-1.0695,-1.0695,-1.1384,-1.1423,-1.1423,-1.145,-1.1499,-1.1499,-1.1499,-1.1499,-1.1499,-1.1499,-1.1494,-1.1395,-1.1352,-1.1357,-1.1357,-1.1313,-1.1357,-1.1357,-1.1352,-1.1357,-1.1401,-1.1423,-1.1428,-1.1472,-1.1499,-1.1499,-1.1499,-1.1499,-1.1499,-1.1499,-1.1493,-1.1552,-1.1563,-1.1596,-1.1712,-1.1983,-1.2159,-1.2164,-1.2611,-1.2978,-1.3185,-1.2821,-1.2831,-1.3274,-1.3268,-1.3456,-1.3896,-1.388,-1.3941,-1.4072,-1.4109,-1.4072,-1.4109,-1.4072,-1.4109,-1.4109,-1.4027,-1.3894,-1.3764,-1.3634,-1.3459,-1.3281,-1.3281,-1.3281,-1.3281,-1.3281,-1.3058,-1.2544,-1.2222,-1.1962,-1.1792,-1.175,-1.175,-1.175,-1.175,-1.175,-1.175,-1.175,-1.1671,-1.1422,-1.1337,-1.1246,-1.0997,-1.0949,-1.0954,-1.0949,-1.0949,-1.0938,-1.0949,-1.0954,-1.0954,-1.0954,-1.0954,-1.0842,-1.0744,-1.0695,-1.0695,-1.0695,-1.0695,-1.0695,-1.0706,-1.0695,-1.0695,-1.0701,-1.0712,-1.0712,-1.0695,-1.0695,-1.0695,-1.0706,-1.0695,-1.0695,-1.0695,-1.0695,-1.0695,-1.1899,-1.1899,-1.1855,-1.1899,-1.1899,-1.1899,-1.1899,-1.1899,-1.1899,-1.1899,-1.1899,-1.1855,-1.1899,-1.1855,-1.1632,-1.1499,-1.1499,-1.1632,-1.1677,-1.1721,-1.181,-1.1899,-1.1855,-1.1721,-1.1693,-1.1677,-1.1598,-1.1525,-1.1597,-1.1777,-1.1821,-1.1898,-1.2,-1.209,-1.226,-1.2592,-1.2815,-1.2815,-1.3227,-1.3684,-1.3886,-1.363,-1.3566,-1.3879,-1.3879,-1.4057,-1.4376,-1.4421,-1.4401,-1.436,-1.4353,-1.434,-1.4306,-1.4299,-1.4299,-1.4292,-1.4197,-1.4136,-1.4136,-1.4027,-1.3923,-1.3923,-1.3923,-1.3923,-1.3923,-1.3923,-1.3794,-1.3534,-1.3188,-1.2903,-1.2515,-1.2509,-1.2509,-1.2509,-1.2509,-1.2509,-1.246,-1.2509,-1.2331,-1.2048,-1.1976,-1.1876,-1.1569,-1.1392,-1.13,-1.1294,-1.1176,-1.1107,-1.1107,-1.1096,-1.1096,-1.1107,-1.1101,-1.1031,-1.0831,-1.0814,-1.0793,-1.0793,-1.0851,-1.0862,-1.084,-1.084,-1.084,-1.0905,-1.0814,-1.0804,-1.0884,-1.0862,-1.0835,-1.0787,-1.0771,-1.0755,-1.076,-1.0728,-1.0701,-1.2831,-1.2831,-1.2831,-1.2793,-1.2831,-1.2787,-1.2787,-1.2742,-1.2793,-1.2787,-1.2799,-1.2799,-1.2837,-1.276,-1.1966,-1.1549,-1.1593,-1.1999,-1.2183,-1.2233,-1.2583,-1.2837,-1.2787,-1.2393,-1.2235,-1.2254,-1.1899,-1.1774,-1.1872,-1.2289,-1.2575,-1.2575,-1.2946,-1.3181,-1.3205,-1.3257,-1.3279,-1.3349,-1.3761,-1.4023,-1.4068,-1.4414,-1.4583,-1.4628,-1.4622,-1.4608,-1.466,-1.4667,-1.4606,-1.4509,-1.4502,-1.4448,-1.4326,-1.4312,-1.4319,-1.4312,-1.4306,-1.4299,-1.4299,-1.4285,-1.4278,-1.4278,-1.4265,-1.4272,-1.4251,-1.4238,-1.4187,-1.4221,-1.4106,-1.3699,-1.2798,-1.2736,-1.2675,-1.2668,-1.257,-1.2619,-1.257,-1.2681,-1.2515,-1.249,-1.2466,-1.2385,-1.2404,-1.2048,-1.1813,-1.1727,-1.1414,-1.1215,-1.1269,-1.1215,-1.1177,-1.1177,-1.1172,-1.1101,-1.1085,-1.1031,-1.1041,-1.1036,-1.1009,-1.1058,-1.1079,-1.109,-1.1074,-1.1069,-1.1036,-1.1036,-1.1069,-1.1074,-1.1052,-1.102,-1.0949,-1.0879,-1.0869,-1.0766,-1.0749,-1.292,-1.292,-1.292,-1.292,-1.292,-1.292,-1.292,-1.292,-1.292,-1.2975,-1.2997,-1.301,-1.3052,-1.3132,-1.2815,-1.2587,-1.2517,-1.2696,-1.2828,-1.2894,-1.3087,-1.3132,-1.3132,-1.2951,-1.2924,-1.2875,-1.2796,-1.2722,-1.2764,-1.2952,-1.3092,-1.3164,-1.3315,-1.345,-1.3616,-1.3855,-1.3995,-1.4041,-1.4507,-1.4785,-1.4732,-1.4932,-1.5025,-1.5011,-1.4789,-1.4694,-1.4694,-1.4694,-1.4667,-1.4613,-1.4613,-1.4586,-1.4545,-1.4584,-1.4584,-1.4577,-1.4532,-1.4539,-1.4539,-1.4539,-1.4539,-1.4577,-1.4489,-1.4434,-1.4421,-1.4353,-1.4299,-1.4306,-1.4299,-1.4011,-1.3826,-1.3655,-1.3648,-1.3648,-1.3648,-1.3598,-1.3655,-1.3648,-1.3523,-1.3254,-1.2992,-1.2772,-1.2754,-1.2597,-1.2509,-1.2466,-1.2334,-1.224,-1.2158,-1.2027,-1.1796,-1.1719,-1.1549,-1.1374,-1.133,-1.1177,-1.1101,-1.1101,-1.1096,-1.1096,-1.1112,-1.1128,-1.1118,-1.1134,-1.1139,-1.1145,-1.115,-1.1145,-1.115,-1.1128,-1.1063,-1.1047,-1.0993,-1.0954,-1.0949,-1.3363,-1.3318,-1.3369,-1.3363,-1.3369,-1.3413,-1.3426,-1.3439,-1.3477,-1.3553,-1.359,-1.3597,-1.3647,-1.3769,-1.3775,-1.3762,-1.3666,-1.3486,-1.3466,-1.3547,-1.3684,-1.3775,-1.3729,-1.3592,-1.3532,-1.3576,-1.3481,-1.3407,-1.3453,-1.3585,-1.3681,-1.3768,-1.3961,-1.4098,-1.4234,-1.4523,-1.4657,-1.4758,-1.4993,-1.5181,-1.5181,-1.5181,-1.5181,-1.5153,-1.4984,-1.4882,-1.4882,-1.4836,-1.4855,-1.4775,-1.4769,-1.4794,-1.4701,-1.4694,-1.4694,-1.4694,-1.4687,-1.4694,-1.4694,-1.4694,-1.4687,-1.4687,-1.4606,-1.4584,-1.4532,-1.4496,-1.4448,-1.4441,-1.4441,-1.4441,-1.4441,-1.4441,-1.4407,-1.4326,-1.4299,-1.4299,-1.4299,-1.4292,-1.4115,-1.3843,-1.3571,-1.3401,-1.3318,-1.3224,-1.3135,-1.3141,-1.3014,-1.292,-1.2831,-1.2654,-1.2343,-1.221,-1.1926,-1.1655,-1.1555,-1.1357,-1.1303,-1.1297,-1.1232,-1.1204,-1.1188,-1.1194,-1.1199,-1.1204,-1.121,-1.121,-1.1215,-1.1259,-1.1253,-1.1204,-1.1183,-1.1161,-1.1139,-1.1118,-1.109,-1.4255,-1.421,-1.4299,-1.4217,-1.42,-1.4307,-1.4413,-1.4401,-1.4522,-1.4531,-1.4512,-1.4603,-1.4577,-1.463,-1.4611,-1.4743,-1.4725,-1.4271,-1.4035,-1.4094,-1.446,-1.4643,-1.4598,-1.4238,-1.4113,-1.4222,-1.389,-1.3758,-1.3833,-1.4196,-1.4397,-1.451,-1.4832,-1.4973,-1.514,-1.5087,-1.5134,-1.5134,-1.5181,-1.5181,-1.5181,-1.5181,-1.5181,-1.5181,-1.5153,-1.5147,-1.516,-1.516,-1.5092,-1.4991,-1.5017,-1.4903,-1.4755,-1.4735,-1.4714,-1.4735,-1.4714,-1.4708,-1.4714,-1.4728,-1.4741,-1.4741,-1.4708,-1.4694,-1.4694,-1.4667,-1.4647,-1.464,-1.4647,-1.4667,-1.4654,-1.4654,-1.4559,-1.4367,-1.4353,-1.4353,-1.4319,-1.4299,-1.4299,-1.4255,-1.4166,-1.4255,-1.4166,-1.3856,-1.3635,-1.3546,-1.3318,-1.3097,-1.3141,-1.3008,-1.2698,-1.2432,-1.2254,-1.2121,-1.181,-1.1538,-1.1533,-1.1522,-1.1455,-1.1434,-1.1406,-1.1401,-1.139,-1.1395,-1.139,-1.139,-1.139,-1.139,-1.1412,-1.1401,-1.1363,-1.1319,-1.1308,-1.1281,-1.1188,-1.4299,-1.4299,-1.4299,-1.436,-1.4441,-1.4496,-1.457,-1.462,-1.4681,-1.4755,-1.4889,-1.4903,-1.495,-1.5031,-1.5045,-1.5065,-1.5113,-1.4925,-1.4812,-1.4845,-1.4992,-1.5031,-1.4992,-1.4899,-1.4832,-1.4879,-1.4785,-1.4711,-1.4711,-1.4852,-1.4946,-1.4993,-1.5087,-1.5181,-1.5181,-1.5181,-1.5181,-1.5181,-1.5181,-1.5181,-1.5181,-1.5181,-1.5181,-1.5181,-1.5181,-1.5181,-1.5181,-1.5181,-1.516,-1.5113,-1.5113,-1.5092,-1.5052,-1.5045,-1.5045,-1.5045,-1.5045,-1.5045,-1.5045,-1.5038,-1.5031,-1.5025,-1.4957,-1.4903,-1.4882,-1.4808,-1.4708,-1.4701,-1.4694,-1.4694,-1.4694,-1.4694,-1.466,-1.4611,-1.4604,-1.4498,-1.4455,-1.4367,-1.4306,-1.4299,-1.4299,-1.4299,-1.4306,-1.4091,-1.4053,-1.4047,-1.3907,-1.3819,-1.3812,-1.3546,-1.3369,-1.3192,-1.2926,-1.2609,-1.2343,-1.2077,-1.1988,-1.181,-1.1677,-1.1543,-1.1499,-1.1499,-1.1499,-1.1499,-1.1499,-1.1499,-1.1499,-1.1499,-1.1499,-1.1499,-1.1444,-1.1428,-1.1434,-1.1401,-1.1341,-1.4299,-1.4306,-1.4353,-1.4428,-1.4529,-1.4624,-1.4733,-1.4828,-1.4882,-1.4957,-1.5085,-1.5052,-1.5139,-1.5167,-1.5181,-1.5181,-1.5181,-1.5181,-1.5181,-1.5181,-1.5181,-1.5181,-1.5181,-1.5181,-1.5181,-1.5181,-1.5181,-1.5181,-1.5181,-1.5181,-1.5181,-1.5181,-1.5181,-1.5181,-1.5181,-1.5181,-1.5181,-1.5181,-1.5181,-1.5181,-1.5181,-1.5181,-1.5181,-1.5181,-1.5181,-1.5181,-1.5181,-1.5181,-1.5181,-1.5181,-1.5181,-1.5181,-1.5181,-1.5174,-1.5181,-1.5181,-1.5181,-1.5174,-1.5181,-1.5167,-1.5181,-1.516,-1.5099,-1.5098,-1.5031,-1.4943,-1.4909,-1.4903,-1.4863,-1.4903,-1.4863,-1.4863,-1.4903,-1.4856,-1.4748,-1.466,-1.4552,-1.4478,-1.4475,-1.4482,-1.4475,-1.4462,-1.4462,-1.4462,-1.4434,-1.4401,-1.438,-1.4346,-1.4282,-1.4033,-1.3863,-1.3641,-1.3363,-1.3053,-1.2875,-1.2654,-1.2476,-1.221,-1.1899,-1.1677,-1.1499,-1.1499,-1.1499,-1.1499,-1.1499,-1.1499,-1.1499,-1.1499,-1.1499,-1.1499,-1.1499,-1.1488,-1.1472,-1.1477,-1.1444,-1.4299,-1.4319,-1.4455,-1.4516,-1.457,-1.4867,-1.5003,-1.5004,-1.5106,-1.5153,-1.5167,-1.516,-1.5221,-1.5181,-1.5181,-1.5181,-1.5181,-1.5181,-1.5181,-1.5181,-1.5181,-1.5181,-1.5181,-1.5181,-1.5181,-1.5181,-1.5181,-1.5181,-1.5181,-1.5181,-1.5181,-1.5181,-1.5181,-1.5181,-1.5181,-1.5181,-1.5181,-1.5181,-1.5181,-1.5181,-1.5181,-1.5181,-1.5181,-1.5181,-1.5181,-1.5181,-1.5181,-1.5181,-1.5181,-1.5181,-1.5181,-1.5181,-1.5181,-1.5181,-1.5181,-1.5181,-1.5181,-1.5181,-1.5181,-1.5181,-1.5181,-1.5181,-1.5174,-1.5181,-1.5153,-1.5133,-1.512,-1.5126,-1.514,-1.5147,-1.5147,-1.5147,-1.5147,-1.5133,-1.493,-1.4735,-1.4708,-1.4687,-1.464,-1.4654,-1.4687,-1.4687,-1.4647,-1.4654,-1.4593,-1.4525,-1.4523,-1.4475,-1.4421,-1.4267,-1.408,-1.396,-1.3777,-1.37,-1.356,-1.3291,-1.3073,-1.2938,-1.2499,-1.2106,-1.166,-1.1599,-1.1504,-1.1499,-1.151,-1.151,-1.1499,-1.1499,-1.1499,-1.1499,-1.1499,-1.1499,-1.1499,-1.1499,-1.1499,-1.4299,-1.4312,-1.4455,-1.4532,-1.4654,-1.4896,-1.5078,-1.512,-1.516,-1.5181,-1.5181,-1.5181,-1.5181,-1.5181,-1.5181,-1.5181,-1.5181,-1.5181,-1.5181,-1.5181,-1.5181,-1.5181,-1.5181,-1.5181,-1.5181,-1.5181,-1.5181,-1.5181,-1.5181,-1.5181,-1.5181,-1.5181,-1.5181,-1.5181,-1.5181,-1.5181,-1.5181,-1.5181,-1.5181,-1.5181,-1.5181,-1.5181,-1.5181,-1.5181,-1.5181,-1.5181,-1.5181,-1.5181,-1.5181,-1.5181,-1.5181,-1.5181,-1.5181,-1.5181,-1.5181,-1.5181,-1.5181,-1.5181,-1.5181,-1.5181,-1.5181,-1.5181,-1.5181,-1.5181,-1.5181,-1.5181,-1.5181,-1.5181,-1.5181,-1.5181,-1.5181,-1.5181,-1.5181,-1.516,-1.5011,-1.4909,-1.4896,-1.4762,-1.4694,-1.4694,-1.4708,-1.4714,-1.4721,-1.4714,-1.4694,-1.4654,-1.4633,-1.4613,-1.4584,-1.4525,-1.4415,-1.4514,-1.4412,-1.436,-1.423,-1.3913,-1.3732,-1.3653,-1.3247,-1.2722,-1.2191,-1.1749,-1.1604,-1.1499,-1.1532,-1.1537,-1.1515,-1.1499,-1.1499,-1.1499,-1.1499,-1.1499,-1.1499,-1.1499,-1.1499,-1.4299,-1.4319,-1.4523,-1.4613,-1.4721,-1.497,-1.5106,-1.5174,-1.5181,-1.5181,-1.5181,-1.5181,-1.5181,-1.5181,-1.5181,-1.5181,-1.5181,-1.5181,-1.5181,-1.5181,-1.5181,-1.5181,-1.5181,-1.5181,-1.5181,-1.5181,-1.5181,-1.5181,-1.5181,-1.5181,-1.5181,-1.5181,-1.5181,-1.5181,-1.5181,-1.5181,-1.5181,-1.5181,-1.5181,-1.5181,-1.5181,-1.5181,-1.5181,-1.5181,-1.5181,-1.5181,-1.5181,-1.5181,-1.5181,-1.5181,-1.5181,-1.5181,-1.5181,-1.5181,-1.5181,-1.5181,-1.5181,-1.5181,-1.5181,-1.5181,-1.5181,-1.5181,-1.5181,-1.5181,-1.5181,-1.5181,-1.5181,-1.5181,-1.5181,-1.5181,-1.5181,-1.5181,-1.5181,-1.5174,-1.5106,-1.5059,-1.5105,-1.4991,-1.4936,-1.4923,-1.4923,-1.4923,-1.4923,-1.4923,-1.4889,-1.4855,-1.4841,-1.4794,-1.4694,-1.4708,-1.4714,-1.4735,-1.4728,-1.4655,-1.4596,-1.4368,-1.4244,-1.4173,-1.3807,-1.3269,-1.2697,-1.2085,-1.1788,-1.1648,-1.1586,-1.1525,-1.1554,-1.1526,-1.1499,-1.1499,-1.1499,-1.1504,-1.151,-1.1499,-1.1499,-1.4299,-1.4326,-1.4618,-1.4694,-1.4787,-1.5052,-1.5174,-1.5181,-1.5181,-1.5181,-1.5181,-1.5181,-1.5181,-1.5181,-1.5181,-1.5181,-1.5181,-1.5181,-1.5181,-1.5181,-1.5181,-1.5181,-1.5181,-1.5181,-1.5181,-1.5181,-1.5181,-1.5181,-1.5181,-1.5181,-1.5181,-1.5181,-1.5181,-1.5181,-1.5194,-1.5201,-1.5255,-1.5235,-1.5269,-1.5282,-1.5282,-1.5282,-1.5289,-1.5289,-1.5282,-1.5276,-1.5269,-1.5255,-1.5255,-1.5235,-1.5208,-1.5181,-1.5181,-1.5181,-1.5181,-1.5181,-1.5181,-1.5181,-1.5181,-1.5181,-1.5181,-1.5181,-1.5181,-1.5181,-1.5181,-1.5181,-1.5181,-1.5181,-1.5181,-1.5181,-1.5181,-1.5181,-1.5181,-1.5181,-1.5221,-1.5181,-1.5181,-1.5181,-1.5181,-1.5181,-1.5221,-1.5181,-1.5181,-1.5174,-1.5126,-1.5004,-1.4984,-1.4957,-1.4916,-1.4903,-1.4889,-1.4869,-1.4809,-1.4775,-1.4769,-1.4723,-1.4697,-1.4671,-1.4237,-1.3738,-1.3214,-1.2621,-1.2102,-1.1835,-1.1802,-1.1713,-1.1619,-1.1586,-1.1565,-1.1565,-1.1558,-1.1525,-1.1482,-1.151,-1.1499,-1.4299,-1.4326,-1.4572,-1.4694,-1.4741,-1.5052,-1.5181,-1.5181,-1.5181,-1.5181,-1.5181,-1.5181,-1.5181,-1.5181,-1.5181,-1.5181,-1.5181,-1.5181,-1.5181,-1.5181,-1.5181,-1.5181,-1.5181,-1.5181,-1.5181,-1.5181,-1.5181,-1.5181,-1.5181,-1.5181,-1.5181,-1.5181,-1.5201,-1.5181,-1.5248,-1.5309,-1.5364,-1.5384,-1.5466,-1.5465,-1.5458,-1.5458,-1.5458,-1.5465,-1.5465,-1.5479,-1.5492,-1.5492,-1.554,-1.5486,-1.533,-1.5221,-1.5215,-1.5208,-1.5208,-1.5201,-1.5194,-1.5187,-1.5181,-1.5181,-1.5181,-1.5181,-1.5181,-1.5181,-1.5181,-1.5181,-1.5181,-1.5181,-1.5181,-1.5181,-1.5181,-1.5181,-1.5181,-1.5181,-1.5181,-1.5181,-1.5181,-1.5181,-1.5181,-1.5181,-1.5181,-1.5181,-1.5181,-1.5181,-1.516,-1.5133,-1.5126,-1.516,-1.5086,-1.5045,-1.5025,-1.4991,-1.4991,-1.4977,-1.4977,-1.497,-1.497,-1.4977,-1.462,-1.4394,-1.3811,-1.32,-1.2696,-1.2323,-1.2015,-1.1868,-1.1723,-1.1699,-1.1699,-1.1683,-1.1656,-1.1623,-1.158,-1.1575,-1.1554,-1.4299,-1.4333,-1.4572,-1.4694,-1.4741,-1.5052,-1.5181,-1.5181,-1.5181,-1.5181,-1.5181,-1.5181,-1.5181,-1.5181,-1.5181,-1.5181,-1.5181,-1.5181,-1.5181,-1.5181,-1.5181,-1.5181,-1.5181,-1.5181,-1.5181,-1.5181,-1.5181,-1.5181,-1.5181,-1.5181,-1.5181,-1.5194,-1.5248,-1.5296,-1.5309,-1.5438,-1.5465,-1.5479,-1.5539,-1.5587,-1.5587,-1.5587,-1.5587,-1.5587,-1.5587,-1.5587,-1.558,-1.558,-1.5587,-1.5546,-1.5486,-1.5398,-1.5398,-1.5391,-1.5364,-1.5296,-1.5289,-1.5242,-1.5208,-1.5181,-1.5181,-1.5187,-1.5181,-1.5181,-1.5181,-1.5181,-1.5181,-1.5181,-1.5181,-1.5181,-1.5181,-1.5181,-1.5181,-1.5181,-1.5181,-1.5181,-1.5181,-1.5181,-1.5181,-1.5181,-1.5181,-1.5181,-1.5181,-1.5181,-1.5181,-1.5153,-1.5153,-1.5147,-1.5153,-1.5126,-1.514,-1.5126,-1.5147,-1.5153,-1.5147,-1.514,-1.5126,-1.512,-1.4973,-1.4832,-1.4639,-1.3955,-1.3317,-1.2905,-1.2402,-1.1978,-1.1803,-1.1835,-1.1835,-1.1786,-1.1748,-1.1686,-1.171,-1.1677,-1.1667,-1.4299,-1.4326,-1.4572,-1.4694,-1.4741,-1.5052,-1.5181,-1.5181,-1.5181,-1.5181,-1.5181,-1.5181,-1.5181,-1.5181,-1.5181,-1.5181,-1.5181,-1.5181,-1.5181,-1.5181,-1.5181,-1.5181,-1.5181,-1.5181,-1.5181,-1.5181,-1.5181,-1.5181,-1.5181,-1.5187,-1.5208,-1.5235,-1.5337,-1.5404,-1.5466,-1.5539,-1.5621,-1.5676,-1.5723,-1.5702,-1.5695,-1.5688,-1.5695,-1.5695,-1.5702,-1.5702,-1.5702,-1.5744,-1.5723,-1.5703,-1.5703,-1.5661,-1.5648,-1.5593,-1.5546,-1.5445,-1.5445,-1.5404,-1.5337,-1.5289,-1.5282,-1.5255,-1.5262,-1.5242,-1.5235,-1.5228,-1.5215,-1.5187,-1.5181,-1.5181,-1.5181,-1.5181,-1.5181,-1.5181,-1.5181,-1.5181,-1.5181,-1.5181,-1.5181,-1.5181,-1.5181,-1.5181,-1.5181,-1.5181,-1.5181,-1.5181,-1.5181,-1.5181,-1.5181,-1.5181,-1.5181,-1.5181,-1.5181,-1.5181,-1.5181,-1.5181,-1.5181,-1.5181,-1.5134,-1.5134,-1.5087,-1.4464,-1.374,-1.3249,-1.2743,-1.2326,-1.2026,-1.2001,-1.1979,-1.1873,-1.1846,-1.1841,-1.1835,-1.183,-1.1813,-1.4299,-1.4326,-1.4572,-1.4694,-1.4741,-1.5052,-1.5174,-1.5181,-1.5181,-1.5181,-1.5181,-1.5181,-1.5181,-1.5181,-1.5181,-1.5181,-1.5181,-1.5181,-1.5181,-1.5181,-1.5181,-1.5181,-1.5181,-1.5181,-1.5181,-1.5181,-1.5181,-1.5181,-1.5181,-1.5187,-1.5262,-1.535,-1.5418,-1.5486,-1.5615,-1.5737,-1.5818,-1.5839,-1.5906,-1.5954,-1.5961,-1.5961,-1.5961,-1.5961,-1.5954,-1.5967,-1.5981,-1.5995,-1.6008,-1.6008,-1.6008,-1.6001,-1.594,-1.5729,-1.5614,-1.5608,-1.5594,-1.5567,-1.5472,-1.5485,-1.5506,-1.5512,-1.5533,-1.5472,-1.5404,-1.5371,-1.533,-1.5248,-1.5215,-1.5201,-1.5181,-1.5201,-1.5187,-1.5187,-1.5181,-1.5181,-1.5181,-1.5181,-1.5181,-1.5181,-1.5181,-1.5181,-1.5181,-1.5181,-1.5181,-1.5181,-1.5181,-1.5181,-1.5181,-1.5181,-1.5181,-1.5181,-1.5181,-1.5181,-1.5181,-1.5181,-1.5181,-1.5181,-1.5181,-1.5181,-1.504,-1.4664,-1.4162,-1.3843,-1.3327,-1.28,-1.2554,-1.2355,-1.2157,-1.2078,-1.2045,-1.196,-1.1955,-1.1944,-1.1884,-1.4299,-1.4319,-1.4536,-1.4626,-1.4728,-1.4977,-1.512,-1.5174,-1.5181,-1.5181,-1.5181,-1.5181,-1.5181,-1.5181,-1.5181,-1.5181,-1.5181,-1.5181,-1.5181,-1.5181,-1.5181,-1.5181,-1.5181,-1.5181,-1.5181,-1.5181,-1.5181,-1.5181,-1.5194,-1.5269,-1.5337,-1.5425,-1.5547,-1.5683,-1.5764,-1.5942,-1.6003,-1.6037,-1.6092,-1.6133,-1.6133,-1.6133,-1.6133,-1.6133,-1.6133,-1.6133,-1.6133,-1.6133,-1.6126,-1.6126,-1.6126,-1.6133,-1.6035,-1.5961,-1.5825,-1.5771,-1.575,-1.571,-1.5607,-1.5587,-1.558,-1.558,-1.5593,-1.556,-1.5506,-1.552,-1.5479,-1.5438,-1.5411,-1.5384,-1.5316,-1.5303,-1.5262,-1.5201,-1.5187,-1.5187,-1.5181,-1.5187,-1.5181,-1.5181,-1.5181,-1.5181,-1.5181,-1.5181,-1.5181,-1.5181,-1.5181,-1.5181,-1.5181,-1.5181,-1.5181,-1.5181,-1.5181,-1.5181,-1.5181,-1.5181,-1.5181,-1.5181,-1.5181,-1.5181,-1.5134,-1.4852,-1.4805,-1.4738,-1.4146,-1.3399,-1.2916,-1.2641,-1.2486,-1.2314,-1.2206,-1.2163,-1.2116,-1.2047,-1.1987,-1.4299,-1.4312,-1.4455,-1.4559,-1.4708,-1.4909,-1.5052,-1.5167,-1.5181,-1.5181,-1.5181,-1.5181,-1.5181,-1.5181,-1.5181,-1.5181,-1.5181,-1.5181,-1.5181,-1.5181,-1.5181,-1.5181,-1.5181,-1.5181,-1.5181,-1.5181,-1.5181,-1.5181,-1.5208,-1.5323,-1.5411,-1.552,-1.5786,-1.5928,-1.5969,-1.6058,-1.6119,-1.6133,-1.6133,-1.6133,-1.6133,-1.6133,-1.6133,-1.6133,-1.6133,-1.6133,-1.6133,-1.6133,-1.6133,-1.6133,-1.6133,-1.6133,-1.6133,-1.6133,-1.6071,-1.5976,-1.5949,-1.5832,-1.5778,-1.5695,-1.5722,-1.5778,-1.5695,-1.5716,-1.5662,-1.5649,-1.5573,-1.5587,-1.5573,-1.5526,-1.5472,-1.5452,-1.5404,-1.533,-1.5269,-1.5228,-1.5235,-1.5221,-1.5181,-1.5181,-1.5181,-1.5181,-1.5181,-1.5181,-1.5181,-1.5181,-1.5181,-1.5181,-1.5181,-1.5181,-1.5181,-1.5181,-1.5181,-1.5181,-1.5181,-1.5181,-1.5181,-1.5181,-1.5181,-1.5181,-1.5181,-1.5134,-1.5134,-1.5087,-1.4764,-1.4059,-1.3541,-1.3069,-1.288,-1.2692,-1.2456,-1.2297,-1.2176,-1.217,-1.2102,-1.4299,-1.4312,-1.4448,-1.4559,-1.4701,-1.4896,-1.5091,-1.5214,-1.5174,-1.5181,-1.5181,-1.5181,-1.5181,-1.5181,-1.5181,-1.5181,-1.5181,-1.5181,-1.5181,-1.5181,-1.5181,-1.5181,-1.5181,-1.5181,-1.5181,-1.5181,-1.5181,-1.5181,-1.5228,-1.5343,-1.5438,-1.5615,-1.5771,-1.5962,-1.6022,-1.6112,-1.6126,-1.6133,-1.6133,-1.6133,-1.6133,-1.6133,-1.6133,-1.6133,-1.6133,-1.6133,-1.6133,-1.6133,-1.6133,-1.6133,-1.6133,-1.6133,-1.6133,-1.6133,-1.6076,-1.6056,-1.6056,-1.6042,-1.6001,-1.5974,-1.5974,-1.5967,-1.5988,-1.5996,-1.5852,-1.5744,-1.5641,-1.5587,-1.5607,-1.5607,-1.5628,-1.556,-1.5546,-1.5485,-1.5438,-1.5398,-1.5377,-1.5343,-1.5296,-1.5228,-1.5248,-1.5208,-1.5187,-1.5181,-1.5181,-1.5181,-1.5181,-1.5181,-1.5181,-1.5181,-1.5181,-1.5181,-1.5181,-1.5181,-1.5181,-1.5181,-1.5181,-1.5181,-1.5181,-1.5181,-1.5181,-1.5181,-1.5181,-1.5087,-1.4858,-1.4717,-1.4241,-1.3817,-1.3399,-1.3069,-1.2786,-1.2503,-1.2261,-1.2219,-1.2219,-1.4299,-1.4306,-1.4367,-1.4475,-1.4579,-1.4774,-1.4923,-1.5059,-1.5194,-1.5181,-1.5181,-1.5181,-1.5181,-1.5181,-1.5181,-1.5181,-1.5181,-1.5181,-1.5181,-1.5181,-1.5181,-1.5181,-1.5181,-1.5181,-1.5181,-1.5181,-1.5181,-1.5181,-1.5248,-1.5411,-1.5539,-1.5607,-1.5859,-1.6008,-1.6076,-1.6133,-1.6133,-1.6133,-1.6133,-1.6133,-1.6133,-1.6133,-1.6133,-1.6133,-1.6133,-1.6133,-1.6133,-1.6133,-1.6133,-1.6133,-1.6133,-1.6133,-1.6133,-1.6133,-1.6126,-1.6126,-1.6126,-1.6126,-1.6119,-1.6133,-1.6133,-1.6133,-1.6126,-1.6042,-1.5974,-1.592,-1.5879,-1.5893,-1.5893,-1.5852,-1.5778,-1.5764,-1.571,-1.56,-1.5594,-1.5519,-1.5485,-1.5493,-1.5452,-1.5377,-1.5309,-1.5289,-1.5255,-1.5215,-1.5208,-1.5181,-1.5181,-1.5181,-1.5181,-1.5181,-1.5181,-1.5181,-1.5181,-1.5181,-1.5181,-1.5181,-1.5181,-1.5181,-1.5181,-1.5181,-1.5181,-1.5181,-1.5181,-1.5181,-1.5087,-1.4946,-1.4805,-1.4429,-1.3958,-1.3541,-1.3116,-1.2833,-1.255,-1.2219,-1.2219,-1.4299,-1.4299,-1.4299,-1.438,-1.4523,-1.4626,-1.4835,-1.503,-1.5166,-1.5181,-1.5181,-1.5181,-1.5181,-1.5181,-1.5181,-1.5181,-1.5181,-1.5181,-1.5181,-1.5181,-1.5181,-1.5181,-1.5181,-1.5181,-1.5181,-1.5181,-1.5181,-1.5181,-1.5276,-1.5404,-1.5573,-1.5607,-1.5927,-1.6056,-1.6126,-1.6133,-1.6133,-1.6133,-1.6133,-1.6133,-1.6133,-1.6133,-1.6133,-1.6133,-1.6133,-1.6133,-1.6133,-1.6133,-1.6133,-1.6133,-1.6133,-1.6133,-1.6133,-1.6133,-1.6133,-1.6133,-1.6133,-1.6133,-1.6133,-1.6133,-1.6133,-1.6133,-1.6133,-1.6076,-1.6119,-1.6133,-1.6126,-1.6042,-1.6049,-1.6044,-1.5996,-1.5913,-1.5879,-1.5805,-1.573,-1.571,-1.5634,-1.5635,-1.5581,-1.5513,-1.5411,-1.5377,-1.5377,-1.5289,-1.5235,-1.5194,-1.5181,-1.5181,-1.5181,-1.5181,-1.5181,-1.5181,-1.5181,-1.5181,-1.5181,-1.5181,-1.5181,-1.5181,-1.5181,-1.5181,-1.5181,-1.5181,-1.5181,-1.5181,-1.5181,-1.5134,-1.4993,-1.4711,-1.4476,-1.4052,-1.3629,-1.3258,-1.2928,-1.255,-1.2219,-1.4299,-1.4299,-1.4299,-1.438,-1.4516,-1.4626,-1.4821,-1.5003,-1.5106,-1.5174,-1.5181,-1.5181,-1.5181,-1.5181,-1.5181,-1.5181,-1.5181,-1.5181,-1.5181,-1.5181,-1.5181,-1.5181,-1.5181,-1.5181,-1.5181,-1.5181,-1.5181,-1.5181,-1.5248,-1.5459,-1.5546,-1.5634,-1.594,-1.6042,-1.6133,-1.6133,-1.6133,-1.6133,-1.6133,-1.6133,-1.6133,-1.6133,-1.6133,-1.6133,-1.6133,-1.6133,-1.6133,-1.6133,-1.6133,-1.6133,-1.6133,-1.6133,-1.6133,-1.6133,-1.6133,-1.6133,-1.6133,-1.6133,-1.6133,-1.6133,-1.6133,-1.6133,-1.6133,-1.6133,-1.6133,-1.6133,-1.6133,-1.6133,-1.6133,-1.6126,-1.6105,-1.6056,-1.6008,-1.5961,-1.5886,-1.5852,-1.5811,-1.5744,-1.5696,-1.5593,-1.556,-1.5574,-1.5465,-1.5432,-1.5323,-1.5276,-1.5187,-1.5181,-1.5181,-1.5181,-1.5181,-1.5181,-1.5181,-1.5181,-1.5181,-1.5181,-1.5181,-1.5181,-1.5181,-1.5181,-1.5181,-1.5181,-1.5181,-1.5181,-1.5181,-1.5181,-1.5181,-1.4993,-1.4758,-1.4476,-1.4146,-1.3676,-1.3116,-1.2644,-1.2361,-1.4299,-1.4299,-1.4299,-1.4333,-1.4394,-1.4536,-1.4685,-1.4841,-1.4984,-1.5106,-1.5181,-1.5181,-1.5181,-1.5181,-1.5181,-1.5181,-1.5181,-1.5181,-1.5181,-1.5181,-1.5181,-1.5181,-1.5181,-1.5181,-1.5181,-1.5181,-1.5181,-1.5181,-1.5208,-1.5418,-1.5547,-1.5696,-1.5934,-1.6042,-1.6133,-1.6133,-1.6133,-1.6133,-1.6133,-1.6133,-1.6133,-1.6133,-1.6133,-1.6133,-1.6133,-1.6133,-1.6133,-1.6133,-1.6133,-1.6133,-1.6133,-1.6133,-1.6133,-1.6133,-1.6133,-1.6133,-1.6133,-1.6133,-1.6133,-1.6133,-1.6133,-1.6133,-1.6133,-1.6133,-1.6133,-1.6133,-1.6133,-1.6133,-1.6133,-1.6133,-1.6126,-1.6126,-1.6112,-1.6112,-1.6085,-1.6037,-1.5947,-1.5872,-1.5832,-1.5791,-1.575,-1.5723,-1.5655,-1.5533,-1.5466,-1.5357,-1.5262,-1.5187,-1.5201,-1.5201,-1.5201,-1.5187,-1.5181,-1.5181,-1.5181,-1.5181,-1.5181,-1.5181,-1.5181,-1.5181,-1.5181,-1.5181,-1.5181,-1.5181,-1.5181,-1.5181,-1.5181,-1.5181,-1.504,-1.4805,-1.4429,-1.3952,-1.3393,-1.2827,-1.255,-1.4387,-1.4513,-1.452,-1.4431,-1.4319,-1.4455,-1.4552,-1.4701,-1.4909,-1.5098,-1.5181,-1.5181,-1.5181,-1.5181,-1.5181,-1.5181,-1.5181,-1.5181,-1.5181,-1.5181,-1.5181,-1.5181,-1.5181,-1.5181,-1.5181,-1.5181,-1.5181,-1.5181,-1.5187,-1.5337,-1.5493,-1.5676,-1.5879,-1.6044,-1.6133,-1.6133,-1.6133,-1.6133,-1.6133,-1.6133,-1.6133,-1.6133,-1.6133,-1.6133,-1.6133,-1.6133,-1.6133,-1.6133,-1.6133,-1.6133,-1.6133,-1.6133,-1.6133,-1.6133,-1.6133,-1.6133,-1.6133,-1.6133,-1.6133,-1.6133,-1.6133,-1.6133,-1.6133,-1.6133,-1.6133,-1.6133,-1.6133,-1.6133,-1.6133,-1.6133,-1.6133,-1.6133,-1.6133,-1.6119,-1.6119,-1.6092,-1.6092,-1.6001,-1.6017,-1.5983,-1.5906,-1.5886,-1.5832,-1.5757,-1.5628,-1.5527,-1.5466,-1.5364,-1.5296,-1.5282,-1.5248,-1.5215,-1.5181,-1.5181,-1.5181,-1.5194,-1.5208,-1.5181,-1.5181,-1.5181,-1.5181,-1.5194,-1.5187,-1.5181,-1.5181,-1.5181,-1.5181,-1.5181,-1.5181,-1.5181,-1.4664,-1.414,-1.3817,-1.3299,-1.2833,-1.4601,-1.4955,-1.4999,-1.4734,-1.4445,-1.4448,-1.459,-1.4681,-1.4903,-1.5052,-1.5174,-1.5181,-1.5181,-1.5181,-1.5181,-1.5181,-1.5181,-1.5181,-1.5181,-1.5181,-1.5181,-1.5181,-1.5181,-1.5181,-1.5181,-1.5181,-1.5181,-1.5181,-1.5181,-1.5303,-1.5466,-1.5622,-1.5791,-1.6003,-1.6119,-1.6133,-1.6133,-1.6133,-1.6133,-1.6133,-1.6133,-1.6133,-1.6133,-1.6133,-1.6133,-1.6133,-1.6133,-1.6133,-1.6133,-1.6133,-1.6133,-1.6133,-1.6133,-1.6133,-1.6133,-1.6133,-1.6133,-1.6133,-1.6133,-1.6133,-1.6133,-1.6133,-1.6133,-1.6133,-1.6133,-1.6133,-1.6133,-1.6133,-1.6133,-1.6133,-1.6133,-1.6133,-1.6133,-1.6133,-1.6133,-1.6133,-1.6133,-1.6133,-1.6085,-1.6064,-1.6098,-1.6105,-1.6058,-1.594,-1.5805,-1.571,-1.5607,-1.5512,-1.5438,-1.5398,-1.5371,-1.535,-1.5316,-1.5316,-1.5323,-1.5248,-1.5228,-1.5201,-1.5228,-1.5282,-1.5269,-1.5262,-1.5242,-1.5208,-1.5181,-1.5181,-1.5181,-1.5181,-1.5181,-1.5181,-1.4852,-1.4382,-1.4052,-1.3723,-1.3299,-1.5308,-1.544,-1.544,-1.5352,-1.5183,-1.4916,-1.4761,-1.4618,-1.4855,-1.5098,-1.516,-1.5181,-1.5181,-1.5181,-1.5181,-1.5181,-1.5181,-1.5181,-1.5181,-1.5181,-1.5181,-1.5181,-1.5181,-1.5181,-1.5181,-1.5181,-1.5181,-1.5181,-1.5181,-1.5255,-1.535,-1.5499,-1.5786,-1.5976,-1.6092,-1.6133,-1.6133,-1.6133,-1.6133,-1.6133,-1.6133,-1.6133,-1.6133,-1.6133,-1.6133,-1.6133,-1.6133,-1.6133,-1.6133,-1.6133,-1.6133,-1.6133,-1.6133,-1.6133,-1.6133,-1.6133,-1.6133,-1.6133,-1.6133,-1.6133,-1.6133,-1.6133,-1.6133,-1.6133,-1.6133,-1.6133,-1.6133,-1.6133,-1.6133,-1.6133,-1.6133,-1.6133,-1.6133,-1.6133,-1.6133,-1.6133,-1.6133,-1.6133,-1.6112,-1.6112,-1.6126,-1.6133,-1.6098,-1.6078,-1.5927,-1.5845,-1.5791,-1.5641,-1.5526,-1.5512,-1.5499,-1.5499,-1.5527,-1.5506,-1.5479,-1.5411,-1.5404,-1.5418,-1.5459,-1.5465,-1.5472,-1.5377,-1.5357,-1.535,-1.5262,-1.5181,-1.5235,-1.5262,-1.5201,-1.5087,-1.4905,-1.4649,-1.4288,-1.4005,-1.377,-1.7351,-1.6964,-1.7613,-1.7351,-1.6613,-1.5653,-1.5461,-1.604,-1.64,-1.6834,-1.7328,-1.6892,-1.6432,-1.6158,-1.5509,-1.5181,-1.5181,-1.5181,-1.5181,-1.5181,-1.5181,-1.5181,-1.5181,-1.5181,-1.5181,-1.5181,-1.5181,-1.5181,-1.5181,-1.5181,-1.5276,-1.5459,-1.5696,-1.5922,-1.6037,-1.6078,-1.6133,-1.6133,-1.6133,-1.6133,-1.6133,-1.6133,-1.6133,-1.6133,-1.6133,-1.6133,-1.6133,-1.6133,-1.6133,-1.6133,-1.6133,-1.6133,-1.6133,-1.6133,-1.6133,-1.6133,-1.6133,-1.6133,-1.6133,-1.6133,-1.6133,-1.6133,-1.6133,-1.6133,-1.6133,-1.6133,-1.6133,-1.6133,-1.6133,-1.6133,-1.6133,-1.6133,-1.6133,-1.6133,-1.6133,-1.6133,-1.6133,-1.6133,-1.6133,-1.6133,-1.6133,-1.6133,-1.6133,-1.6126,-1.6085,-1.5974,-1.592,-1.5818,-1.5723,-1.5716,-1.5648,-1.5627,-1.5607,-1.5622,-1.5601,-1.5533,-1.5539,-1.558,-1.5607,-1.5634,-1.5566,-1.5513,-1.5451,-1.5438,-1.5438,-1.5391,-1.5371,-1.5357,-1.5357,-1.5364,-1.5296,-1.495,-1.4502,-1.4165,-1.386,-2.0462,-1.9656,-2.1198,-2.0549,-1.8558,-1.7044,-1.7363,-1.9078,-1.9317,-2.0235,-2.1479,-1.9503,-1.8833,-1.7965,-1.6338,-1.5643,-1.5462,-1.5415,-1.5181,-1.5181,-1.5181,-1.5181,-1.5181,-1.5181,-1.5181,-1.5181,-1.5181,-1.5181,-1.5181,-1.5181,-1.5262,-1.5438,-1.5676,-1.5867,-1.5956,-1.6058,-1.6119,-1.6133,-1.6133,-1.6133,-1.6133,-1.6133,-1.6133,-1.6133,-1.6133,-1.6133,-1.6133,-1.6133,-1.6133,-1.6133,-1.6133,-1.6133,-1.6133,-1.6133,-1.6133,-1.6133,-1.6133,-1.6133,-1.6133,-1.6133,-1.6133,-1.6133,-1.6133,-1.6133,-1.6133,-1.6133,-1.6133,-1.6133,-1.6133,-1.6133,-1.6133,-1.6133,-1.6133,-1.6133,-1.6133,-1.6133,-1.6133,-1.6133,-1.6133,-1.6133,-1.6133,-1.6133,-1.6133,-1.6133,-1.6133,-1.6105,-1.6001,-1.5967,-1.5886,-1.5866,-1.5832,-1.5715,-1.5695,-1.5703,-1.5648,-1.5744,-1.5715,-1.5756,-1.5715,-1.5764,-1.5654,-1.5669,-1.5649,-1.5642,-1.558,-1.5546,-1.5472,-1.5479,-1.5526,-1.5533,-1.5437,-1.5096,-1.4603,-1.4036,-1.3649,-2.1975,-2.1673,-2.2191,-2.2019,-2.1414,-2.0852,-2.0705,-2.0792,-2.1041,-2.157,-2.1949,-2.166,-2.1314,-2.1046,-1.8871,-1.8042,-1.7172,-1.6198,-1.5415,-1.5275,-1.5509,-1.5321,-1.5181,-1.5181,-1.5181,-1.5181,-1.5181,-1.5181,-1.5181,-1.5181,-1.5262,-1.5425,-1.5601,-1.5723,-1.5859,-1.6001,-1.6098,-1.6133,-1.6133,-1.6133,-1.6133,-1.6133,-1.6133,-1.6133,-1.6133,-1.6133,-1.6133,-1.6133,-1.6133,-1.6133,-1.6133,-1.6133,-1.6133,-1.6133,-1.6133,-1.6133,-1.6133,-1.6133,-1.6133,-1.6133,-1.6133,-1.6133,-1.6133,-1.6133,-1.6133,-1.6133,-1.6133,-1.6133,-1.6133,-1.6133,-1.6133,-1.6133,-1.6133,-1.6133,-1.6133,-1.6133,-1.6133,-1.6133,-1.6133,-1.6133,-1.6133,-1.6133,-1.6133,-1.6133,-1.6133,-1.6133,-1.6119,-1.6092,-1.6071,-1.6037,-1.601,-1.5893,-1.5879,-1.5852,-1.5906,-1.5961,-1.5961,-1.5967,-1.592,-1.5893,-1.59,-1.5866,-1.5818,-1.5784,-1.5764,-1.5654,-1.5573,-1.5614,-1.573,-1.5468,-1.5325,-1.5044,-1.4668,-1.4089,-1.3579,-2.4349,-2.3824,-2.452,-2.4819,-2.4819,-2.4819,-2.4527,-2.4096,-2.3798,-2.3985,-2.4632,-2.4186,-2.3838,-2.3244,-2.1221,-1.9974,-1.9891,-1.8655,-1.7499,-1.6526,-1.6346,-1.5784,-1.5556,-1.5275,-1.5181,-1.5181,-1.5181,-1.5181,-1.5181,-1.5187,-1.5248,-1.5309,-1.5424,-1.5622,-1.5764,-1.5893,-1.6064,-1.6105,-1.6133,-1.6133,-1.6133,-1.6133,-1.6133,-1.6133,-1.6133,-1.6133,-1.6133,-1.6133,-1.6133,-1.6133,-1.6133,-1.6133,-1.6133,-1.6133,-1.6133,-1.6133,-1.6133,-1.6133,-1.6133,-1.6133,-1.6133,-1.6133,-1.6133,-1.6133,-1.6133,-1.6133,-1.6133,-1.6133,-1.6133,-1.6133,-1.6133,-1.6133,-1.6133,-1.6133,-1.6133,-1.6133,-1.6133,-1.6133,-1.6133,-1.6133,-1.6133,-1.6133,-1.6133,-1.6133,-1.6133,-1.6133,-1.6133,-1.6119,-1.6112,-1.6098,-1.6092,-1.6008,-1.6022,-1.6085,-1.6133,-1.6133,-1.6056,-1.6035,-1.6029,-1.6022,-1.6105,-1.6085,-1.6003,-1.5913,-1.5886,-1.5839,-1.5798,-1.5825,-1.5859,-1.5651,-1.5485,-1.5358,-1.4915,-1.4134,-1.3582,-2.7152,-2.5768,-2.7448,-2.7883,-2.8136,-2.7926,-2.7883,-2.8076,-2.6766,-2.7241,-2.8048,-2.7116,-2.6275,-2.5639,-2.3518,-2.2372,-2.1866,-2.0908,-1.9491,-1.8338,-1.8338,-1.7592,-1.6205,-1.5462,-1.565,-1.5415,-1.5181,-1.5181,-1.5181,-1.5187,-1.5187,-1.5194,-1.535,-1.5499,-1.5622,-1.5805,-1.5983,-1.6058,-1.6105,-1.6133,-1.6133,-1.6133,-1.6133,-1.6133,-1.6133,-1.6133,-1.6133,-1.6133,-1.6133,-1.6133,-1.6133,-1.6133,-1.6133,-1.6133,-1.6133,-1.6133,-1.6133,-1.6133,-1.6133,-1.6133,-1.6133,-1.6133,-1.6133,-1.6133,-1.6133,-1.6133,-1.6133,-1.6133,-1.6133,-1.6133,-1.6133,-1.6133,-1.6133,-1.6133,-1.6133,-1.6133,-1.6133,-1.6133,-1.6133,-1.6133,-1.6133,-1.6133,-1.6133,-1.6133,-1.6133,-1.6133,-1.6133,-1.6133,-1.6133,-1.6133,-1.6133,-1.6133,-1.6133,-1.6133,-1.6133,-1.6133,-1.6133,-1.6126,-1.6133,-1.6126,-1.6119,-1.6126,-1.6126,-1.6029,-1.5981,-1.6022,-1.6015,-1.6001,-1.5981,-1.5988,-1.5839,-1.5744,-1.5233,-1.4446,-1.384,-2.7926,-2.7575,-2.801,-2.8192,-2.8192,-2.8192,-2.8192,-2.8219,-2.8139,-2.8351,-2.8842,-2.8921,-2.8809,-2.8121,-2.6093,-2.4899,-2.4352,-2.3025,-2.1379,-2.0649,-2.0418,-1.9306,-1.7779,-1.7359,-1.6666,-1.5556,-1.5181,-1.5181,-1.5181,-1.5181,-1.5187,-1.5201,-1.5316,-1.5425,-1.5499,-1.5696,-1.5894,-1.599,-1.6058,-1.6112,-1.6133,-1.6133,-1.6133,-1.6133,-1.6133,-1.6133,-1.6133,-1.6133,-1.6133,-1.6133,-1.6133,-1.6133,-1.6133,-1.6133,-1.6133,-1.6133,-1.6133,-1.6133,-1.6133,-1.6133,-1.6133,-1.6133,-1.6133,-1.6133,-1.6133,-1.6133,-1.6133,-1.6133,-1.6133,-1.6133,-1.6133,-1.6133,-1.6133,-1.6133,-1.6133,-1.6133,-1.6133,-1.6133,-1.6133,-1.6133,-1.6133,-1.6133,-1.6133,-1.6133,-1.6133,-1.6133,-1.6133,-1.6133,-1.6133,-1.6133,-1.6133,-1.6133,-1.6133,-1.6133,-1.6133,-1.6133,-1.6133,-1.6133,-1.6133,-1.6133,-1.6133,-1.6133,-1.6133,-1.6133,-1.6119,-1.6133,-1.6133,-1.6119,-1.6112,-1.6133,-1.6083,-1.5884,-1.5628,-1.4972,-1.4341,-2.8192,-2.8192,-2.8192,-2.8192,-2.8192,-2.8192,-2.8192,-2.8245,-2.847,-2.8764,-2.9028,-2.9499,-2.9793,-2.9797,-2.8166,-2.7341,-2.674,-2.532,-2.3997,-2.3091,-2.231,-2.1111,-2.0187,-1.9398,-1.8152,-1.69,-1.5603,-1.5181,-1.5181,-1.5181,-1.5187,-1.5194,-1.5289,-1.535,-1.5411,-1.5588,-1.5786,-1.5901,-1.5996,-1.6064,-1.6112,-1.6133,-1.6133,-1.6133,-1.6133,-1.6133,-1.6133,-1.6133,-1.6133,-1.6133,-1.6133,-1.6133,-1.6133,-1.6133,-1.6133,-1.6133,-1.6133,-1.6133,-1.6133,-1.6133,-1.6133,-1.6133,-1.6133,-1.6133,-1.6133,-1.6133,-1.6133,-1.6133,-1.6133,-1.6133,-1.6133,-1.6133,-1.6133,-1.6133,-1.6133,-1.6133,-1.6133,-1.6133,-1.6133,-1.6133,-1.6133,-1.6133,-1.6133,-1.6133,-1.6133,-1.6133,-1.6133,-1.6133,-1.6133,-1.6133,-1.6133,-1.6133,-1.6133,-1.6133,-1.6133,-1.6133,-1.6133,-1.6133,-1.6133,-1.6133,-1.6133,-1.6133,-1.6133,-1.6133,-1.6133,-1.6133,-1.6133,-1.6133,-1.6133,-1.6133,-1.6083,-1.5983,-1.5728,-1.5479,-1.4912,-2.8192,-2.8192,-2.8192,-2.8192,-2.8192,-2.8192,-2.8192,-2.8232,-2.843,-2.8738,-2.8988,-2.9312,-2.9593,-2.9686,-2.9541,-2.9317,-2.8719,-2.7534,-2.6435,-2.5525,-2.4796,-2.3412,-2.231,-2.1388,-1.9816,-1.8105,-1.6572,-1.569,-1.5181,-1.5181,-1.5181,-1.5181,-1.5208,-1.5248,-1.535,-1.5438,-1.5547,-1.5744,-1.5866,-1.6003,-1.6064,-1.6133,-1.6133,-1.6133,-1.6133,-1.6133,-1.6133,-1.6133,-1.6133,-1.6133,-1.6133,-1.6133,-1.6133,-1.6133,-1.6133,-1.6133,-1.6133,-1.6133,-1.6133,-1.6133,-1.6133,-1.6133,-1.6133,-1.6133,-1.6133,-1.6133,-1.6133,-1.6133,-1.6133,-1.6133,-1.6133,-1.6133,-1.6133,-1.6133,-1.6133,-1.6133,-1.6133,-1.6133,-1.6133,-1.6133,-1.6133,-1.6133,-1.6133,-1.6133,-1.6133,-1.6133,-1.6133,-1.6133,-1.6133,-1.6133,-1.6133,-1.6133,-1.6133,-1.6133,-1.6133,-1.6133,-1.6133,-1.6133,-1.6133,-1.6133,-1.6133,-1.6133,-1.6133,-1.6133,-1.6133,-1.6133,-1.6133,-1.6133,-1.6133,-1.6133,-1.6083,-1.6033,-1.5983,-1.5728,-1.5479,-2.8192,-2.8192,-2.8192,-2.8192,-2.8192,-2.8192,-2.8192,-2.8192,-2.8259,-2.8524,-2.8895,-2.9068,-2.9392,-2.9913,-2.9869,-2.9644,-2.9272,-2.8867,-2.8597,-2.783,-2.6867,-2.5571,-2.4293,-2.3137,-2.1158,-1.9398,-1.7872,-1.6759,-1.6018,-1.5556,-1.5181,-1.5181,-1.5181,-1.5208,-1.5235,-1.5337,-1.5472,-1.5649,-1.5798,-1.5949,-1.6022,-1.6119,-1.6126,-1.6133,-1.6133,-1.6133,-1.6133,-1.6133,-1.6133,-1.6133,-1.6133,-1.6133,-1.6133,-1.6133,-1.6133,-1.6133,-1.6133,-1.6133,-1.6133,-1.6133,-1.6133,-1.6133,-1.6133,-1.6133,-1.6133,-1.6133,-1.6133,-1.6133,-1.6133,-1.6133,-1.6133,-1.6133,-1.6133,-1.6133,-1.6133,-1.6133,-1.6133,-1.6133,-1.6133,-1.6133,-1.6133,-1.6133,-1.6133,-1.6133,-1.6133,-1.6133,-1.6133,-1.6133,-1.6133,-1.6133,-1.6133,-1.6133,-1.6133,-1.6133,-1.6133,-1.6133,-1.6133,-1.6133,-1.6133,-1.6133,-1.6133,-1.6133,-1.6133,-1.6133,-1.6133,-1.6133,-1.6133,-1.6133,-1.6133,-1.6133,-1.6133,-1.6083,-1.6033,-1.5983,-1.5728]},{"header":{"parameterUnit":"m.s-1","parameterCategory":1,"la1":31.0,"la2":29.5877,"lo1":-88.7671,"lo2":-86.6584,"dy":0.0162,"dx":0.0185,"nx":115,"ny":88,"refTime":"2023-10-19T06:00:00:Z","depth":0,"parameterNumber":3,"parameterNumberName":"V-component_of_WINDS"},"data":[0.0,0.0,0.0,0.0,0.0,0.0,0.0,0.0,0.0,0.0,0.0,0.0,0.0,0.0,0.0,0.0,0.0,0.0,0.0,0.0,0.0,0.0,0.0,0.0,0.0,0.0,0.0,0.0,0.0,0.0,0.0,0.0,0.0,0.0,0.0,0.0,0.0,0.0,0.0,0.0,0.0,0.0,0.0,0.0,0.0,0.0,0.0,0.0,0.0,0.0,0.0,0.0,0.0,0.0,0.0,0.0,0.0,0.0,0.0,0.0,0.0,0.0,0.0,0.0,0.0,0.0,0.0,0.0,0.0,0.0,0.0,0.0,0.0,0.0,0.0,0.0,0.0,0.0,0.0,0.0,0.0,0.0,0.0,0.0,0.0,0.0,0.0,0.0,0.0,0.0,0.0,0.0,0.0,0.0,0.0,0.0,0.0,0.0,0.0,0.0,0.0,0.0,0.0,0.0,0.0,0.0,0.0,0.0,0.0,0.0,0.0,0.0,0.0,0.0,0.0,0.0,0.0,0.0,0.0,0.0,0.0,0.0,0.0,0.0,0.0,0.0,0.0,0.0,0.0,0.0,0.0,0.0,0.0,0.0,0.0,0.0,0.0,0.0,0.0,0.0,0.0,0.0,0.0,0.0,0.0,0.0,0.0,0.0,0.0,0.0,0.0,0.0,0.0,0.0,0.0,0.0,0.0,0.0,0.0,0.0,0.0,0.0,0.0,0.0,0.0,0.0,0.0,0.0,0.0,0.0,0.0,0.0,0.0,0.0,0.0,0.0,0.0,0.0,0.0,0.0,0.0,0.0,0.0,0.0,0.0,0.0,0.0,0.0,0.0,0.0,0.0,0.0,0.0,0.0,0.0,0.0,0.0,0.0,0.0,0.0,0.0,0.0,0.0,0.0,0.0,0.0,0.0,0.0,0.0,0.0,0.0,0.0,0.0,0.0,0.0,0.0,0.0,0.0,0.0,0.0,0.0,0.0,0.0,0.0,0.0,0.0,0.0,0.0,0.0,0.0,0.0,0.0,0.0,0.0,0.0,0.0,0.0,0.0,0.0,0.0,0.0,0.0,0.0,0.0,0.0,0.0,0.0,0.0,0.0,0.0,0.0,0.0,0.0,0.0,0.0,0.0,0.0,0.0,0.0,0.0,0.0,0.0,0.0,0.0,0.0,0.0,0.0,0.0,0.0,0.0,0.0,0.0,0.0,0.0,0.0,0.0,0.0,0.0,0.0,0.0,0.0,0.0,0.0,0.0,0.0,0.0,0.0,0.0,0.0,0.0,0.0,0.0,0.0,0.0,0.0,0.0,0.0,0.0,0.0,0.0,0.0,0.0,0.0,0.0,0.0,0.0,0.0,0.0,0.0,0.0,0.0,0.0,0.0,0.0,0.0,0.0,0.0,0.0,0.0,0.0,0.0,0.0,0.0,0.0,0.0,0.0,0.0,0.0,0.0,0.0,0.0,0.0,0.0,0.0,0.0,0.0,0.0,0.0,0.0,0.0,0.0,0.0,0.0,0.0,0.0,0.0,0.0,0.0,0.0,0.0,0.0,0.0,0.0,0.0,0.0,0.0,0.0,0.0,0.0,0.0,0.0,0.0,0.0,0.0,0.0,0.0,0.0,0.0,0.0,0.0,0.0,0.0,0.0,0.0,0.0,0.0,0.0,0.0,0.0,0.0,0.0,0.0,0.0,0.0,0.0,0.0,0.0,0.0,0.0,0.0,0.0,0.0,0.0,0.0,0.0,0.0,0.0,0.0,0.0,0.0,0.0,0.0,0.0,0.0,0.0,0.0,0.0,0.0,0.0,0.0,0.0,0.0,0.0,0.0,0.0,0.0,0.0,0.0,0.0,0.0,0.0,0.0,0.0,0.0,0.0,0.0,0.0,0.0,0.0,0.0,0.0,0.0,0.0,0.0,0.0,0.0,0.0,0.0,0.0,0.0,0.0,0.0,0.0,0.0,0.0,0.0,0.0,0.0,0.0,0.0,0.0,0.0,0.0,0.0,0.0,0.0,0.0,0.0,0.0,0.0,0.0,0.0,0.0,0.0,0.0,0.0,0.0,0.0,0.0,0.0,0.0,0.0,0.0,0.0,0.0,0.0,0.0,0.0,0.0,0.0,0.0,0.0,0.0,0.0,0.0,0.0,0.0,0.0,0.0,0.0,0.0,0.0,0.0,0.0,0.0,0.0,0.0,0.0,0.0,0.0,0.0,0.0,0.0,0.0,0.0,0.0,0.0,0.0,0.0,0.0,0.0,0.0,0.0,0.0,0.0,0.0,0.0,0.0,0.0,0.0,0.0,0.0,0.0,0.0,0.0,0.0,0.0,0.0,0.0,0.0,0.0,0.0,0.0,0.0,0.0,0.0,0.0,0.0,0.0,0.0,0.0,0.0,0.0,0.0,0.0,0.0,0.0,0.0,0.0,0.0,0.0,0.0,0.0,0.0,0.0,0.0,0.0,0.0,0.0,0.0,0.0,0.0,0.0,0.0,0.0,0.0,0.0,0.0,0.0,0.0,0.0,0.0,0.0,0.0,0.0,0.0,0.0,0.0,0.0,0.0,0.0,0.0,0.0,0.0,0.0,0.0,0.0,0.0,0.0,0.0,0.0,0.0,0.0,0.0,0.0,0.0,0.0,0.0,0.0,0.0,0.0,0.0,0.0,0.0,0.0,0.0,0.0,0.0,0.0,0.0,0.0,0.0,0.0,0.0,0.0,0.0,0.0,0.0,0.0,0.0,0.0,0.0,0.0,0.0,0.0,0.0,0.0,0.0,0.0,0.0,0.0,0.0,0.0,0.0,0.0,0.0,0.0,0.0,0.0,0.0,0.0,0.0,0.0,0.0,0.0,0.0,0.0,0.0,0.0,0.0,0.0,0.0,0.0,0.0,0.0,0.0,0.0,0.0,0.0,0.0,0.0,0.0,0.0,0.0,0.0,0.0,0.0,0.0,0.0,0.0,0.0,0.0,0.0,0.0,0.0,0.0,0.0,0.0,0.0,0.0,0.0,0.0,0.0,0.0,0.0,0.0,0.0,0.0,0.0,0.0,0.0,0.0,0.0,0.0,0.0,0.0,0.0,0.0,0.0,0.0,0.0,0.0,0.0,0.0,0.0,0.0,0.0,0.0,0.0,0.0,0.0,0.0,0.0,0.0,0.0,0.0,0.0,0.0,0.0,0.0,0.0,0.0,0.0,0.0,0.0,0.0,0.0,0.0,0.0,0.0,0.0,0.0,0.0,0.0,0.0,0.0,0.0,0.0,0.0,0.0,0.0,0.0,0.0,0.0,0.0,0.0,0.0,0.0,0.0,0.0,0.0,0.0,0.0,0.0,0.0,0.0,0.0,0.0,0.0,0.0,0.0,0.0,0.0,0.0,0.0,0.0,0.0,0.0,0.0,0.0,0.0,0.0,0.0,0.0,0.0,0.0,0.0,0.0,0.0,0.0,0.0,0.0,0.0,0.0,0.0,0.0,0.0,0.0,0.0,0.0,0.0,0.0,0.0,0.0,0.0,0.0,0.0,0.0,0.0,0.0,0.0,0.0,0.0,0.0,0.0,0.0,0.0,0.0,0.0,0.0,0.0,0.0,0.0,0.0,0.0,0.0,0.0,0.0,0.0,0.0,0.0,0.0,0.0,0.0,0.0,0.0,0.0,0.0,0.0,0.0,0.0,0.0,0.0,0.0,0.0,0.0,0.0,0.0,0.0,0.0,0.0,0.0,0.0,0.0,0.0,0.0,0.0,0.0,0.0,0.0,0.0,0.0,0.0,0.0,0.0,0.0,0.0,0.0,0.0,0.0,0.0,0.0,0.0,0.0,0.0,0.0,0.0,0.0,0.0,0.0,0.0,0.0,0.0,0.0,0.0,0.0,0.0,0.0,0.0,0.0,0.0,0.0,0.0,0.0,0.0,0.0,0.0,0.0,0.0,0.0,0.0,0.0,0.0,0.0,0.0,0.0,0.0,0.0,0.0,0.0,0.0,0.0,0.0,0.0,0.0,0.0,0.0,0.0,0.0,0.0,0.0,0.0,0.0,0.0,0.0,0.0,0.0,0.0,0.0,0.0,0.0,0.0,0.0,0.0,0.0,0.0,0.0,0.0,0.0,0.0,0.0,0.0,0.0,0.0,0.0,0.0,0.0,0.0,0.0,0.0,0.0,0.0,0.0,0.0,0.0,0.0,0.0,0.0,0.0,0.0,0.0,0.0,0.0,0.0,0.0,0.0,0.0,0.0,0.0,0.0,0.0,0.0,0.0,0.0,0.0,0.0,4.7257,0.0,0.0,0.0,0.0,0.0,0.0,0.0,0.0,0.0,0.0,0.0,0.0,0.0,0.0,0.0,0.0,0.0,0.0,0.0,0.0,0.0,0.0,0.0,0.0,0.0,0.0,0.0,0.0,0.0,0.0,0.0,0.0,0.0,0.0,0.0,0.0,0.0,0.0,0.0,0.0,0.0,0.0,0.0,0.0,0.0,0.0,0.0,0.0,0.0,0.0,0.0,0.0,0.0,0.0,0.0,0.0,0.0,0.0,0.0,0.0,0.0,0.0,0.0,0.0,0.0,0.0,0.0,0.0,0.0,0.0,0.0,0.0,0.0,0.0,0.0,0.0,0.0,0.0,0.0,0.0,0.0,0.0,0.0,0.0,0.0,0.0,0.0,0.0,0.0,0.0,0.0,0.0,0.0,0.0,0.0,0.0,0.0,0.0,0.0,0.0,0.0,0.0,0.0,0.0,0.0,0.0,0.0,0.0,0.0,0.0,4.9973,4.9188,4.9188,4.8802,4.8016,0.0,0.0,0.0,0.0,0.0,0.0,0.0,0.0,0.0,0.0,0.0,0.0,0.0,0.0,0.0,0.0,0.0,0.0,0.0,0.0,0.0,0.0,0.0,0.0,0.0,0.0,0.0,0.0,0.0,0.0,0.0,0.0,0.0,0.0,0.0,0.0,0.0,0.0,0.0,0.0,0.0,0.0,0.0,0.0,0.0,0.0,0.0,0.0,0.0,0.0,0.0,0.0,0.0,0.0,0.0,0.0,0.0,0.0,0.0,0.0,0.0,0.0,0.0,0.0,0.0,0.0,0.0,0.0,0.0,0.0,0.0,0.0,0.0,0.0,0.0,0.0,0.0,0.0,0.0,0.0,0.0,0.0,0.0,0.0,0.0,0.0,0.0,0.0,0.0,0.0,0.0,0.0,0.0,0.0,0.0,0.0,0.0,0.0,0.0,0.0,0.0,0.0,0.0,0.0,0.0,0.0,0.0,0.0,0.0,0.0,0.0,0.0,4.9973,4.9622,4.8789,0.0,0.0,0.0,0.0,0.0,0.0,0.0,0.0,0.0,0.0,0.0,0.0,0.0,0.0,0.0,0.0,0.0,0.0,0.0,0.0,0.0,0.0,0.0,0.0,0.0,0.0,0.0,0.0,0.0,0.0,0.0,0.0,0.0,0.0,0.0,0.0,0.0,0.0,0.0,0.0,0.0,0.0,0.0,0.0,0.0,0.0,0.0,0.0,0.0,0.0,0.0,0.0,0.0,0.0,0.0,0.0,0.0,0.0,0.0,0.0,0.0,0.0,0.0,0.0,0.0,0.0,0.0,0.0,0.0,0.0,0.0,0.0,0.0,0.0,0.0,0.0,0.0,0.0,0.0,0.0,0.0,0.0,0.0,0.0,0.0,0.0,0.0,0.0,0.0,0.0,0.0,0.0,0.0,0.0,0.0,0.0,0.0,0.0,0.0,0.0,0.0,0.0,0.0,0.0,0.0,0.0,0.0,0.0,0.0,0.0,5.0851,5.0781,5.0781,0.0,4.9622,0.0,0.0,0.0,0.0,0.0,0.0,0.0,0.0,0.0,0.0,0.0,0.0,0.0,0.0,0.0,0.0,0.0,0.0,0.0,0.0,0.0,0.0,0.0,0.0,0.0,0.0,0.0,0.0,0.0,0.0,0.0,0.0,0.0,0.0,0.0,0.0,0.0,0.0,0.0,0.0,0.0,0.0,0.0,0.0,0.0,0.0,0.0,0.0,0.0,0.0,0.0,0.0,0.0,0.0,0.0,0.0,0.0,0.0,0.0,0.0,0.0,0.0,0.0,0.0,0.0,0.0,0.0,0.0,0.0,0.0,0.0,0.0,0.0,0.0,0.0,0.0,0.0,0.0,0.0,0.0,0.0,0.0,0.0,0.0,0.0,0.0,0.0,0.0,0.0,0.0,0.0,0.0,0.0,0.0,0.0,0.0,0.0,0.0,0.0,0.0,0.0,0.0,0.0,0.0,0.0,0.0,0.0,0.0,0.0,0.0,5.0908,5.0908,5.0908,5.0535,0.0,0.0,0.0,0.0,0.0,0.0,0.0,0.0,0.0,0.0,0.0,0.0,0.0,0.0,0.0,0.0,0.0,0.0,0.0,0.0,0.0,0.0,0.0,0.0,0.0,0.0,0.0,0.0,0.0,0.0,0.0,0.0,0.0,0.0,0.0,0.0,0.0,0.0,0.0,0.0,0.0,0.0,0.0,0.0,0.0,0.0,0.0,0.0,0.0,0.0,0.0,0.0,0.0,0.0,0.0,0.0,0.0,0.0,0.0,0.0,0.0,0.0,0.0,0.0,0.0,0.0,0.0,0.0,0.0,0.0,0.0,0.0,0.0,0.0,0.0,0.0,0.0,0.0,0.0,0.0,0.0,0.0,0.0,0.0,0.0,0.0,0.0,0.0,0.0,0.0,0.0,0.0,0.0,0.0,0.0,0.0,0.0,0.0,0.0,0.0,0.0,0.0,0.0,0.0,0.0,0.0,0.0,0.0,0.0,0.0,5.0908,5.0908,5.0908,5.0908,5.0641,5.0044,0.0,0.0,0.0,0.0,0.0,0.0,0.0,0.0,0.0,0.0,0.0,0.0,0.0,0.0,0.0,0.0,0.0,0.0,0.0,0.0,0.0,0.0,0.0,0.0,0.0,0.0,0.0,0.0,0.0,0.0,0.0,0.0,0.0,0.0,0.0,0.0,0.0,0.0,0.0,0.0,0.0,0.0,0.0,0.0,0.0,0.0,0.0,0.0,0.0,0.0,0.0,0.0,0.0,0.0,0.0,0.0,0.0,0.0,0.0,0.0,0.0,0.0,0.0,0.0,0.0,0.0,0.0,0.0,0.0,0.0,0.0,0.0,0.0,0.0,0.0,0.0,0.0,0.0,0.0,0.0,0.0,0.0,0.0,0.0,0.0,0.0,0.0,0.0,0.0,0.0,0.0,0.0,0.0,0.0,0.0,0.0,0.0,0.0,0.0,0.0,0.0,0.0,0.0,0.0,0.0,0.0,0.0,0.0,5.0908,5.0908,5.0908,5.0908,5.0908,5.0887,0.0,0.0,0.0,0.0,0.0,0.0,0.0,0.0,0.0,0.0,0.0,0.0,0.0,0.0,0.0,0.0,0.0,0.0,0.0,0.0,0.0,0.0,0.0,0.0,0.0,0.0,0.0,0.0,0.0,0.0,0.0,0.0,0.0,0.0,0.0,0.0,0.0,0.0,0.0,0.0,0.0,0.0,0.0,0.0,0.0,0.0,0.0,0.0,0.0,0.0,0.0,0.0,0.0,0.0,0.0,0.0,0.0,0.0,0.0,0.0,0.0,0.0,0.0,0.0,0.0,0.0,0.0,0.0,0.0,0.0,0.0,0.0,0.0,0.0,0.0,0.0,0.0,0.0,0.0,0.0,0.0,0.0,0.0,0.0,0.0,0.0,0.0,0.0,0.0,0.0,0.0,0.0,0.0,0.0,0.0,0.0,0.0,0.0,0.0,0.0,0.0,0.0,0.0,0.0,0.0,0.0,0.0,0.0,0.0,5.0908,5.0908,5.0908,5.0908,5.0908,5.0908,0.0,0.0,0.0,0.0,0.0,0.0,0.0,0.0,0.0,0.0,0.0,0.0,0.0,0.0,0.0,0.0,0.0,0.0,0.0,0.0,0.0,0.0,0.0,0.0,0.0,0.0,0.0,0.0,0.0,0.0,0.0,0.0,0.0,0.0,0.0,0.0,0.0,0.0,0.0,0.0,0.0,0.0,0.0,0.0,0.0,0.0,0.0,0.0,0.0,0.0,0.0,0.0,0.0,0.0,0.0,0.0,0.0,0.0,0.0,0.0,0.0,0.0,0.0,0.0,0.0,0.0,0.0,0.0,0.0,0.0,0.0,0.0,0.0,0.0,0.0,0.0,0.0,0.0,0.0,0.0,0.0,0.0,0.0,0.0,0.0,0.0,0.0,0.0,0.0,0.0,0.0,0.0,0.0,0.0,0.0,0.0,0.0,0.0,0.0,0.0,0.0,0.0,0.0,0.0,0.0,0.0,0.0,0.0,0.0,5.0908,0.0,5.0908,5.0908,5.0908,5.0908,0.0,0.0,0.0,0.0,0.0,0.0,0.0,0.0,0.0,0.0,0.0,0.0,0.0,0.0,0.0,0.0,0.0,0.0,0.0,0.0,0.0,0.0,0.0,0.0,0.0,0.0,0.0,0.0,0.0,0.0,0.0,0.0,0.0,0.0,0.0,0.0,0.0,0.0,0.0,0.0,0.0,0.0,0.0,0.0,0.0,0.0,0.0,0.0,0.0,0.0,0.0,0.0,0.0,0.0,0.0,0.0,0.0,0.0,0.0,0.0,0.0,0.0,0.0,0.0,0.0,0.0,0.0,0.0,0.0,0.0,0.0,0.0,0.0,0.0,0.0,0.0,0.0,0.0,0.0,0.0,0.0,0.0,0.0,0.0,0.0,0.0,0.0,0.0,0.0,0.0,0.0,0.0,0.0,0.0,0.0,0.0,0.0,0.0,0.0,0.0,0.0,0.0,0.0,0.0,0.0,0.0,0.0,0.0,5.0887,5.0887,5.09,5.09,5.0922,5.09,5.0887,0.0,0.0,0.0,0.0,0.0,0.0,0.0,0.0,0.0,0.0,0.0,0.0,0.0,0.0,0.0,0.0,0.0,0.0,0.0,0.0,0.0,0.0,0.0,0.0,0.0,0.0,0.0,0.0,0.0,0.0,0.0,0.0,0.0,0.0,0.0,0.0,0.0,0.0,0.0,0.0,0.0,0.0,0.0,0.0,0.0,0.0,0.0,0.0,0.0,0.0,0.0,0.0,0.0,0.0,0.0,0.0,0.0,0.0,0.0,0.0,0.0,0.0,0.0,0.0,0.0,0.0,0.0,0.0,0.0,0.0,0.0,0.0,0.0,0.0,0.0,0.0,0.0,0.0,0.0,0.0,0.0,0.0,0.0,0.0,0.0,0.0,0.0,0.0,0.0,0.0,0.0,0.0,0.0,0.0,0.0,0.0,0.0,0.0,0.0,0.0,0.0,0.0,0.0,0.0,0.0,0.0,0.0,0.0,0.0,5.1167,5.118,5.118,5.118,5.1167,5.1127,0.0,0.0,0.0,0.0,0.0,0.0,0.0,0.0,0.0,0.0,0.0,0.0,0.0,0.0,0.0,0.0,0.0,0.0,0.0,0.0,0.0,0.0,0.0,0.0,0.0,0.0,0.0,0.0,0.0,0.0,0.0,0.0,0.0,0.0,0.0,0.0,0.0,0.0,0.0,0.0,0.0,0.0,0.0,0.0,0.0,0.0,0.0,0.0,0.0,0.0,0.0,0.0,0.0,0.0,0.0,0.0,0.0,0.0,0.0,0.0,0.0,0.0,0.0,0.0,0.0,0.0,0.0,0.0,0.0,0.0,0.0,0.0,0.0,0.0,0.0,0.0,0.0,0.0,0.0,0.0,0.0,0.0,0.0,0.0,0.0,0.0,0.0,0.0,0.0,0.0,0.0,0.0,0.0,0.0,0.0,0.0,0.0,0.0,0.0,0.0,0.0,0.0,0.0,0.0,0.0,0.0,0.0,0.0,0.0,5.1505,5.1324,5.122,5.122,5.122,5.118,5.1123,0.0,0.0,0.0,0.0,0.0,0.0,0.0,0.0,0.0,0.0,0.0,0.0,0.0,0.0,0.0,0.0,0.0,0.0,0.0,0.0,0.0,0.0,0.0,0.0,0.0,0.0,0.0,0.0,0.0,0.0,0.0,0.0,0.0,0.0,0.0,0.0,0.0,0.0,0.0,0.0,0.0,0.0,0.0,0.0,0.0,0.0,0.0,0.0,0.0,0.0,0.0,0.0,0.0,0.0,0.0,0.0,0.0,0.0,0.0,0.0,0.0,0.0,0.0,0.0,0.0,0.0,0.0,0.0,0.0,0.0,0.0,0.0,0.0,0.0,0.0,0.0,0.0,0.0,0.0,0.0,0.0,0.0,0.0,0.0,0.0,0.0,0.0,0.0,0.0,0.0,0.0,0.0,0.0,0.0,0.0,0.0,0.0,0.0,0.0,0.0,0.0,0.0,0.0,0.0,0.0,0.0,0.0,0.0,5.1858,5.1363,5.1149,5.1163,5.1127,5.1149,0.0,0.0,0.0,0.0,0.0,0.0,0.0,0.0,0.0,0.0,0.0,0.0,0.0,0.0,0.0,0.0,0.0,0.0,0.0,0.0,0.0,0.0,0.0,0.0,0.0,0.0,0.0,0.0,0.0,0.0,0.0,0.0,0.0,0.0,0.0,0.0,0.0,0.0,0.0,0.0,0.0,0.0,0.0,0.0,0.0,0.0,0.0,0.0,0.0,0.0,0.0,0.0,0.0,0.0,0.0,0.0,0.0,0.0,0.0,0.0,0.0,0.0,0.0,0.0,0.0,0.0,0.0,0.0,0.0,0.0,0.0,0.0,0.0,0.0,0.0,0.0,0.0,0.0,0.0,0.0,0.0,0.0,0.0,0.0,0.0,0.0,0.0,0.0,0.0,0.0,0.0,0.0,0.0,0.0,0.0,0.0,0.0,0.0,0.0,0.0,0.0,0.0,0.0,0.0,0.0,0.0,0.0,0.0,0.0,5.1454,5.1415,5.1441,5.1543,5.1632,5.1543,0.0,0.0,0.0,0.0,0.0,0.0,0.0,0.0,0.0,0.0,0.0,0.0,0.0,0.0,0.0,0.0,0.0,0.0,0.0,0.0,0.0,0.0,0.0,0.0,0.0,0.0,0.0,0.0,0.0,0.0,0.0,0.0,0.0,0.0,0.0,0.0,0.0,0.0,0.0,0.0,0.0,0.0,0.0,0.0,0.0,0.0,0.0,0.0,0.0,0.0,0.0,0.0,0.0,0.0,0.0,0.0,0.0,0.0,0.0,0.0,0.0,0.0,0.0,0.0,0.0,0.0,0.0,0.0,0.0,0.0,0.0,0.0,0.0,0.0,0.0,0.0,0.0,0.0,0.0,0.0,0.0,0.0,0.0,0.0,0.0,0.0,0.0,0.0,0.0,0.0,0.0,0.0,0.0,0.0,0.0,0.0,0.0,0.0,0.0,0.0,0.0,0.0,0.0,0.0,0.0,0.0,0.0,0.0,5.1531,5.1645,5.1721,5.1796,5.1846,5.1845,5.1658,0.0,0.0,0.0,0.0,0.0,0.0,0.0,0.0,0.0,0.0,0.0,0.0,0.0,0.0,0.0,0.0,0.0,0.0,0.0,0.0,0.0,0.0,0.0,0.0,0.0,0.0,0.0,0.0,0.0,0.0,0.0,0.0,0.0,0.0,0.0,0.0,0.0,0.0,0.0,0.0,0.0,0.0,0.0,0.0,0.0,0.0,0.0,0.0,0.0,0.0,0.0,0.0,0.0,0.0,0.0,0.0,0.0,0.0,0.0,0.0,0.0,0.0,0.0,0.0,0.0,0.0,0.0,0.0,0.0,0.0,0.0,0.0,0.0,0.0,0.0,0.0,0.0,0.0,0.0,0.0,0.0,0.0,0.0,0.0,0.0,0.0,0.0,0.0,0.0,0.0,0.0,0.0,0.0,0.0,0.0,0.0,0.0,0.0,0.0,0.0,0.0,0.0,0.0,0.0,0.0,0.0,0.0,0.0,5.1809,5.2078,5.2102,5.2102,5.2066,5.187,5.1632,0.0,0.0,0.0,0.0,0.0,0.0,0.0,0.0,0.0,0.0,0.0,0.0,0.0,0.0,0.0,0.0,0.0,0.0,0.0,0.0,0.0,0.0,0.0,0.0,0.0,0.0,0.0,0.0,0.0,0.0,0.0,0.0,0.0,0.0,0.0,0.0,0.0,0.0,0.0,0.0,0.0,0.0,0.0,0.0,0.0,0.0,0.0,0.0,0.0,0.0,0.0,0.0,0.0,0.0,0.0,0.0,0.0,0.0,0.0,0.0,0.0,0.0,0.0,0.0,0.0,0.0,0.0,0.0,0.0,0.0,0.0,0.0,0.0,0.0,0.0,0.0,0.0,0.0,0.0,0.0,0.0,0.0,0.0,0.0,0.0,0.0,0.0,0.0,0.0,0.0,0.0,0.0,0.0,0.0,0.0,0.0,0.0,0.0,0.0,0.0,0.0,0.0,0.0,0.0,0.0,0.0,0.0,0.0,5.1783,5.1944,5.2054,5.2005,5.1772,5.1944,5.1907,0.0,0.0,0.0,0.0,0.0,0.0,0.0,0.0,0.0,0.0,0.0,0.0,0.0,0.0,0.0,0.0,0.0,0.0,0.0,0.0,0.0,0.0,0.0,0.0,0.0,0.0,0.0,0.0,0.0,0.0,0.0,0.0,0.0,0.0,0.0,0.0,0.0,0.0,0.0,0.0,0.0,0.0,0.0,0.0,0.0,0.0,0.0,0.0,5.4397,0.0,0.0,0.0,0.0,0.0,0.0,0.0,0.0,0.0,0.0,0.0,0.0,0.0,0.0,0.0,0.0,0.0,0.0,0.0,0.0,0.0,0.0,0.0,0.0,0.0,0.0,0.0,0.0,0.0,0.0,0.0,0.0,0.0,0.0,0.0,0.0,0.0,0.0,0.0,0.0,0.0,0.0,0.0,0.0,0.0,0.0,0.0,0.0,0.0,0.0,0.0,0.0,0.0,0.0,0.0,0.0,0.0,0.0,0.0,5.2388,5.2114,5.2222,5.2222,5.209,5.215,5.2041,0.0,0.0,0.0,0.0,0.0,0.0,0.0,0.0,0.0,0.0,0.0,0.0,0.0,0.0,0.0,0.0,0.0,0.0,0.0,0.0,0.0,0.0,0.0,0.0,0.0,0.0,0.0,0.0,0.0,0.0,0.0,0.0,0.0,0.0,0.0,0.0,0.0,0.0,0.0,0.0,0.0,0.0,0.0,0.0,0.0,0.0,0.0,0.0,0.0,0.0,0.0,0.0,0.0,0.0,0.0,0.0,0.0,0.0,0.0,0.0,0.0,0.0,0.0,0.0,0.0,0.0,0.0,0.0,0.0,0.0,0.0,0.0,0.0,0.0,0.0,0.0,0.0,0.0,0.0,0.0,0.0,0.0,0.0,0.0,0.0,0.0,0.0,0.0,0.0,0.0,0.0,0.0,0.0,0.0,0.0,0.0,0.0,0.0,0.0,0.0,0.0,0.0,0.0,0.0,0.0,0.0,0.0,5.3567,5.3364,5.2714,5.2675,5.2697,5.2661,5.2592,5.2342,5.2012,0.0,0.0,0.0,0.0,0.0,0.0,0.0,0.0,0.0,0.0,0.0,0.0,0.0,0.0,0.0,0.0,0.0,0.0,0.0,0.0,0.0,0.0,0.0,0.0,0.0,0.0,0.0,0.0,0.0,0.0,0.0,0.0,0.0,0.0,0.0,0.0,0.0,0.0,5.3935,5.4191,0.0,0.0,0.0,0.0,0.0,0.0,0.0,0.0,5.4728,0.0,0.0,0.0,0.0,0.0,0.0,0.0,0.0,0.0,0.0,0.0,0.0,0.0,0.0,0.0,0.0,0.0,0.0,0.0,0.0,0.0,0.0,0.0,0.0,0.0,0.0,0.0,0.0,0.0,0.0,0.0,0.0,0.0,0.0,0.0,0.0,0.0,0.0,0.0,0.0,0.0,0.0,0.0,0.0,0.0,0.0,0.0,0.0,0.0,0.0,0.0,0.0,0.0,0.0,0.0,0.0,5.4445,5.4494,5.4483,5.4472,5.3844,5.3494,5.3494,5.347,5.3387,5.3195,0.0,0.0,0.0,0.0,0.0,0.0,0.0,0.0,0.0,0.0,0.0,0.0,0.0,0.0,0.0,0.0,0.0,0.0,0.0,0.0,0.0,0.0,0.0,0.0,0.0,0.0,0.0,0.0,0.0,0.0,0.0,0.0,0.0,0.0,0.0,0.0,0.0,0.0,0.0,5.4383,5.4464,0.0,0.0,0.0,0.0,0.0,0.0,0.0,0.0,5.4705,0.0,0.0,0.0,0.0,0.0,0.0,0.0,0.0,0.0,0.0,0.0,0.0,0.0,0.0,0.0,0.0,0.0,0.0,0.0,0.0,0.0,0.0,0.0,0.0,0.0,0.0,0.0,0.0,0.0,0.0,0.0,0.0,0.0,0.0,0.0,0.0,0.0,0.0,0.0,0.0,0.0,0.0,0.0,0.0,0.0,0.0,0.0,0.0,0.0,0.0,0.0,0.0,0.0,0.0,0.0,5.5703,5.5679,5.5521,5.5179,5.479,5.4504,5.4339,5.435,5.4303,0.0,0.0,0.0,0.0,0.0,0.0,0.0,0.0,0.0,0.0,0.0,0.0,0.0,0.0,0.0,0.0,0.0,0.0,0.0,0.0,0.0,0.0,0.0,0.0,0.0,0.0,0.0,0.0,0.0,0.0,0.0,0.0,0.0,0.0,0.0,0.0,0.0,0.0,0.0,0.0,5.4489,5.4505,5.4505,0.0,0.0,0.0,0.0,0.0,0.0,5.4713,5.4744,0.0,0.0,0.0,0.0,0.0,0.0,0.0,0.0,0.0,0.0,0.0,0.0,0.0,0.0,0.0,0.0,0.0,0.0,0.0,0.0,0.0,0.0,0.0,0.0,0.0,0.0,0.0,0.0,0.0,0.0,0.0,0.0,0.0,0.0,0.0,0.0,0.0,0.0,0.0,0.0,0.0,0.0,0.0,0.0,0.0,0.0,0.0,0.0,0.0,0.0,0.0,0.0,0.0,0.0,0.0,5.6903,5.6937,5.6619,5.6006,5.5834,5.5615,5.5375,5.5361,5.5291,0.0,0.0,0.0,0.0,0.0,0.0,0.0,0.0,0.0,0.0,0.0,0.0,0.0,0.0,0.0,0.0,0.0,0.0,0.0,0.0,0.0,0.0,0.0,0.0,0.0,0.0,0.0,0.0,0.0,0.0,0.0,0.0,0.0,0.0,0.0,0.0,0.0,0.0,0.0,0.0,0.0,5.4538,5.4538,5.4554,0.0,0.0,0.0,0.0,5.4986,5.4873,0.0,0.0,0.0,0.0,0.0,0.0,0.0,0.0,0.0,0.0,0.0,0.0,0.0,0.0,0.0,0.0,0.0,0.0,0.0,0.0,0.0,0.0,0.0,0.0,0.0,0.0,0.0,0.0,0.0,0.0,0.0,0.0,0.0,0.0,0.0,0.0,0.0,0.0,0.0,0.0,0.0,0.0,0.0,0.0,0.0,0.0,0.0,0.0,0.0,0.0,0.0,0.0,0.0,0.0,0.0,0.0,5.7949,5.805,5.8069,5.7921,5.7279,5.6888,5.6856,5.6721,5.6658,0.0,0.0,0.0,0.0,0.0,0.0,0.0,0.0,0.0,0.0,0.0,0.0,0.0,0.0,0.0,0.0,0.0,0.0,0.0,0.0,0.0,0.0,0.0,0.0,0.0,0.0,0.0,0.0,0.0,0.0,0.0,0.0,0.0,0.0,0.0,0.0,0.0,0.0,0.0,0.0,0.0,5.4673,5.4673,5.4728,5.5032,0.0,0.0,5.4953,5.5662,5.5077,0.0,0.0,0.0,0.0,0.0,0.0,0.0,0.0,0.0,0.0,0.0,0.0,0.0,0.0,0.0,0.0,0.0,0.0,0.0,0.0,0.0,0.0,0.0,0.0,0.0,0.0,0.0,0.0,0.0,0.0,0.0,0.0,0.0,0.0,0.0,0.0,0.0,0.0,0.0,0.0,0.0,0.0,0.0,0.0,0.0,0.0,0.0,0.0,0.0,0.0,0.0,0.0,0.0,0.0,0.0,5.9039,5.925,5.8805,5.8571,5.8582,5.8248,5.7979,5.7776,5.7711,5.7645,0.0,0.0,0.0,0.0,0.0,0.0,0.0,0.0,0.0,0.0,0.0,0.0,0.0,0.0,0.0,0.0,0.0,0.0,0.0,0.0,0.0,0.0,0.0,0.0,0.0,0.0,0.0,0.0,0.0,0.0,0.0,0.0,0.0,0.0,0.0,0.0,0.0,0.0,0.0,0.0,0.0,0.0,5.5398,5.5422,0.0,0.0,0.0,5.5519,5.5869,0.0,0.0,0.0,0.0,0.0,0.0,0.0,0.0,0.0,0.0,0.0,0.0,0.0,0.0,0.0,0.0,0.0,0.0,0.0,0.0,0.0,0.0,0.0,0.0,0.0,0.0,0.0,0.0,0.0,0.0,0.0,0.0,0.0,0.0,0.0,0.0,0.0,0.0,0.0,0.0,0.0,0.0,0.0,0.0,0.0,0.0,0.0,0.0,0.0,0.0,0.0,0.0,0.0,0.0,0.0,0.0,0.0,6.0556,5.9918,5.9562,5.9562,5.9552,5.9329,5.8884,5.8842,0.0,0.0,0.0,0.0,0.0,0.0,0.0,0.0,0.0,0.0,0.0,0.0,0.0,0.0,0.0,0.0,0.0,0.0,0.0,0.0,0.0,0.0,0.0,0.0,0.0,0.0,0.0,5.7662,0.0,0.0,0.0,0.0,0.0,0.0,0.0,0.0,0.0,0.0,0.0,0.0,0.0,0.0,5.622,5.6212,5.6182,5.6287,0.0,0.0,5.6266,5.6503,5.5739,5.5367,0.0,0.0,0.0,0.0,0.0,0.0,0.0,0.0,0.0,0.0,0.0,0.0,0.0,0.0,0.0,0.0,0.0,0.0,0.0,0.0,0.0,0.0,0.0,0.0,0.0,0.0,0.0,0.0,0.0,0.0,0.0,0.0,0.0,0.0,0.0,0.0,0.0,0.0,0.0,0.0,0.0,0.0,0.0,0.0,0.0,0.0,0.0,0.0,0.0,0.0,0.0,0.0,0.0,0.0,6.1554,6.1584,6.1588,6.1552,6.1589,6.1599,6.1242,6.0463,6.0301,6.0192,0.0,0.0,0.0,0.0,0.0,0.0,0.0,0.0,0.0,0.0,0.0,0.0,0.0,0.0,0.0,0.0,0.0,0.0,0.0,0.0,0.0,0.0,0.0,0.0,0.0,0.0,0.0,0.0,0.0,0.0,0.0,0.0,0.0,0.0,0.0,0.0,0.0,0.0,0.0,0.0,0.0,5.7012,5.7012,5.7012,5.7243,0.0,0.0,5.7251,5.7928,5.7305,5.6816,5.6995,0.0,0.0,0.0,0.0,0.0,0.0,0.0,0.0,0.0,0.0,0.0,0.0,0.0,0.0,0.0,0.0,0.0,0.0,0.0,0.0,0.0,0.0,0.0,0.0,0.0,0.0,0.0,0.0,0.0,0.0,0.0,0.0,0.0,0.0,0.0,0.0,0.0,0.0,0.0,0.0,0.0,0.0,0.0,0.0,0.0,0.0,0.0,0.0,0.0,0.0,0.0,0.0,0.0,6.2537,6.2606,6.2088,6.1816,6.1816,6.1816,6.1656,6.1355,6.1221,6.12,0.0,0.0,0.0,0.0,0.0,0.0,0.0,0.0,0.0,0.0,0.0,0.0,0.0,0.0,0.0,0.0,0.0,0.0,0.0,0.0,0.0,0.0,0.0,0.0,0.0,0.0,0.0,0.0,5.9177,5.9089,5.8875,0.0,0.0,0.0,0.0,0.0,0.0,0.0,0.0,0.0,0.0,5.7863,5.7774,5.7765,0.0,0.0,5.7974,5.7887,5.829,5.7563,5.7195,5.7863,5.7972,0.0,0.0,0.0,0.0,0.0,0.0,0.0,0.0,0.0,0.0,0.0,0.0,0.0,0.0,0.0,0.0,0.0,0.0,0.0,0.0,0.0,0.0,0.0,0.0,0.0,0.0,0.0,0.0,0.0,0.0,0.0,0.0,0.0,0.0,0.0,0.0,0.0,0.0,0.0,0.0,0.0,0.0,0.0,0.0,0.0,0.0,0.0,0.0,0.0,0.0,0.0,0.0,6.3462,6.3539,6.2878,6.2557,6.2567,6.2567,6.2417,6.2219,6.2123,6.2121,0.0,0.0,0.0,0.0,0.0,0.0,0.0,0.0,0.0,0.0,0.0,0.0,0.0,0.0,0.0,0.0,0.0,0.0,0.0,0.0,0.0,0.0,0.0,0.0,0.0,0.0,0.0,0.0,5.9887,5.9761,5.9857,0.0,0.0,0.0,0.0,0.0,0.0,0.0,0.0,0.0,0.0,5.8789,5.9006,5.9053,5.9137,5.9427,5.9453,5.9525,5.9597,5.9055,5.8744,5.9177,0.0,0.0,0.0,0.0,0.0,0.0,0.0,0.0,0.0,0.0,0.0,0.0,0.0,0.0,0.0,0.0,0.0,0.0,0.0,0.0,0.0,0.0,0.0,0.0,0.0,0.0,0.0,0.0,0.0,0.0,6.4811,0.0,0.0,0.0,0.0,0.0,0.0,0.0,0.0,0.0,0.0,0.0,0.0,0.0,0.0,0.0,0.0,0.0,0.0,0.0,0.0,0.0,0.0,6.4358,6.4395,6.4231,6.4219,6.4219,6.4219,6.3844,6.312,6.3083,6.3083,6.3073,0.0,0.0,0.0,0.0,0.0,0.0,0.0,0.0,0.0,0.0,0.0,0.0,0.0,0.0,0.0,0.0,0.0,0.0,0.0,0.0,0.0,0.0,0.0,0.0,0.0,0.0,6.1235,6.0499,6.0043,0.0,0.0,0.0,0.0,0.0,0.0,0.0,0.0,0.0,0.0,5.9659,5.9856,6.0803,6.0942,6.1203,6.2122,6.2319,6.2344,6.2269,6.2244,6.1991,0.0,0.0,0.0,0.0,0.0,0.0,0.0,0.0,0.0,0.0,0.0,0.0,0.0,0.0,0.0,0.0,0.0,0.0,0.0,0.0,0.0,0.0,0.0,0.0,0.0,0.0,0.0,6.7408,6.7169,0.0,0.0,0.0,0.0,0.0,0.0,0.0,0.0,0.0,0.0,0.0,6.7875,6.7875,0.0,0.0,0.0,0.0,0.0,0.0,0.0,0.0,0.0,0.0,0.0,0.0,6.534,6.5293,6.4647,6.4294,6.4294,6.4294,6.4182,6.3919,6.3909,6.3909,6.3919,0.0,0.0,0.0,0.0,0.0,0.0,0.0,0.0,0.0,0.0,0.0,0.0,0.0,0.0,0.0,0.0,0.0,0.0,0.0,0.0,0.0,0.0,0.0,0.0,0.0,6.2015,0.0,0.0,0.0,0.0,0.0,0.0,0.0,0.0,0.0,0.0,0.0,6.1093,6.1042,6.137,6.1747,6.2013,6.2059,6.2205,0.0,0.0,0.0,0.0,0.0,0.0,0.0,0.0,0.0,0.0,0.0,0.0,0.0,0.0,6.0693,6.1093,6.0838,6.0533,6.045,0.0,0.0,0.0,0.0,0.0,0.0,0.0,0.0,0.0,0.0,0.0,0.0,0.0,0.0,6.8647,0.0,6.8316,0.0,0.0,0.0,0.0,0.0,0.0,0.0,0.0,6.8801,6.8809,6.8958,6.8958,6.8966,0.0,6.9016,6.8975,0.0,0.0,0.0,0.0,0.0,0.0,0.0,0.0,6.6276,6.6229,6.5552,6.5158,6.5158,6.5158,6.5158,6.5158,6.5196,6.5158,6.5158,6.5196,6.5188,0.0,0.0,0.0,0.0,0.0,0.0,0.0,0.0,0.0,0.0,0.0,0.0,0.0,0.0,0.0,0.0,0.0,0.0,0.0,0.0,0.0,0.0,0.0,6.3017,0.0,0.0,0.0,0.0,0.0,0.0,0.0,0.0,0.0,6.2236,6.216,6.2128,6.2126,6.2448,6.284,6.3153,0.0,0.0,0.0,0.0,0.0,0.0,0.0,6.3638,6.3408,6.3476,6.3399,6.2937,6.2734,6.2621,6.2621,0.0,0.0,6.1518,6.1082,6.0769,6.0695,6.0719,6.0793,6.081,6.0854,6.0821,0.0,0.0,0.0,0.0,0.0,0.0,0.0,0.0,7.078,7.0391,0.0,6.9484,0.0,0.0,0.0,0.0,0.0,7.0361,0.0,0.0,7.0425,7.0424,7.0584,7.0591,7.0584,7.063,7.0773,7.0873,7.079,6.9097,0.0,0.0,0.0,0.0,0.0,0.0,6.726,6.7269,6.694,6.6804,6.6804,6.6783,6.6783,6.6804,6.6804,6.6777,6.6825,6.6808,6.6835,6.6835,6.7009,0.0,0.0,0.0,0.0,0.0,0.0,0.0,0.0,0.0,0.0,0.0,0.0,0.0,0.0,0.0,0.0,0.0,0.0,0.0,0.0,6.4764,0.0,0.0,0.0,0.0,0.0,0.0,0.0,0.0,0.0,0.0,6.3431,6.3207,6.3047,6.3123,0.0,0.0,0.0,0.0,6.4762,6.5699,6.5769,6.5685,6.5691,6.5685,6.5369,6.4402,0.0,0.0,6.4855,6.5435,6.5743,6.5859,6.5131,6.4006,6.141,6.1041,6.0964,6.0958,6.1002,6.0937,6.0982,6.1203,6.1136,7.0253,0.0,0.0,0.0,0.0,7.0714,7.0812,7.0832,7.0891,7.0783,7.0514,7.0473,0.0,0.0,0.0,0.0,0.0,0.0,7.0819,7.0973,7.0875,7.0966,7.1098,7.1098,7.1098,7.1104,7.1172,7.119,7.1151,7.0658,7.017,6.9812,0.0,0.0,0.0,0.0,6.8591,6.8556,6.7652,6.7156,6.7156,6.6937,6.6927,6.7146,6.7165,6.7258,6.7504,6.7512,6.7584,6.7673,6.7684,0.0,0.0,0.0,0.0,0.0,0.0,0.0,0.0,0.0,0.0,0.0,0.0,0.0,0.0,0.0,0.0,0.0,0.0,0.0,6.569,6.5051,6.4742,0.0,0.0,0.0,0.0,0.0,0.0,0.0,0.0,0.0,6.6206,6.5103,6.4552,0.0,0.0,6.6345,6.7223,6.6844,6.656,6.6906,6.6352,0.0,6.599,6.5955,6.5804,6.5536,6.5141,6.4883,6.4899,6.4616,6.4361,6.4399,6.4183,6.3752,6.3098,6.2856,6.289,6.2895,6.2856,6.2856,6.291,6.2877,6.2877,7.225,7.2026,7.1345,7.103,7.103,7.103,7.1043,7.1062,7.1068,7.1068,7.1062,7.1037,7.1024,7.1024,7.1351,0.0,0.0,0.0,7.1929,7.1719,7.2028,7.2069,7.1833,7.2142,7.2336,7.2336,7.2336,7.2336,7.2336,7.2313,7.2152,7.1874,0.0,0.0,7.1159,7.0861,7.0723,7.0716,6.9921,6.9473,6.9473,6.9285,6.9285,6.9465,6.9482,6.9586,6.9763,6.9457,6.9367,6.9413,6.9169,6.9045,0.0,0.0,0.0,0.0,0.0,0.0,0.0,0.0,0.0,0.0,0.0,6.6,6.5986,0.0,0.0,0.0,6.605,6.6455,6.6931,6.6603,0.0,0.0,0.0,0.0,0.0,0.0,0.0,6.8523,6.8536,6.8414,6.842,6.784,6.726,6.6713,6.7382,6.8215,6.9026,0.0,6.8497,6.8878,6.8441,6.8071,6.8105,6.8083,6.8066,6.8088,6.7735,6.7453,6.7415,6.675,6.6229,6.6152,6.5958,6.5726,6.5721,6.5726,6.5185,6.3985,6.3676,6.3676,6.3676,6.3676,6.3676,7.3877,7.3761,7.2086,7.1406,7.1406,7.1406,7.1435,7.149,7.1523,7.1523,7.1485,7.1352,7.129,7.1362,7.2158,0.0,7.3802,7.3802,7.3406,7.2723,7.3535,7.3458,7.2761,7.3496,7.3877,7.3877,7.3877,7.3877,7.3877,7.3831,7.3802,7.3763,7.3013,7.2527,7.2356,7.2875,7.3154,7.3161,7.2922,7.2816,7.2783,7.2783,7.28,7.2786,7.2825,7.2841,7.2866,7.2177,7.1786,7.1756,7.1191,7.0844,7.0844,0.0,0.0,0.0,0.0,0.0,0.0,0.0,0.0,0.0,0.0,0.0,0.0,0.0,0.0,0.0,6.6886,0.0,6.8728,6.8734,0.0,0.0,0.0,6.866,6.8776,6.875,6.8784,6.89,0.0,0.0,7.002,7.0755,7.0402,6.7998,6.8424,6.9275,7.0098,7.0054,7.0291,7.0866,7.1015,7.0942,7.0484,7.0556,7.0534,7.0579,7.1103,7.075,7.0711,7.017,6.9827,6.9595,6.9241,6.8694,6.8733,6.854,6.7843,6.4798,6.4217,6.4179,6.4217,6.4217,6.4217,7.3877,7.3839,7.3441,7.3247,7.328,7.3242,7.3253,7.3303,7.3264,7.3303,7.3264,7.2595,7.228,7.2313,7.3153,7.3655,7.386,7.3899,7.375,7.3607,7.3806,7.3767,7.3612,7.3806,7.3877,7.3877,7.3877,7.3877,7.3877,7.3866,7.386,7.3899,7.4274,7.4111,7.3458,7.3581,7.3665,7.3708,7.3364,7.3085,7.28,7.2783,7.2914,7.3151,7.3197,7.3343,7.362,7.3433,7.3356,7.3356,7.3194,7.3111,7.3028,7.3092,0.0,0.0,0.0,0.0,0.0,0.0,0.0,0.0,0.0,6.8154,6.8155,0.0,6.8247,0.0,6.8271,6.8552,6.8772,6.8805,0.0,0.0,6.9132,6.9281,7.0485,6.9562,6.9259,7.054,7.0286,7.002,7.002,7.075,7.0833,6.9595,7.0175,7.1021,7.1794,7.0833,7.0059,7.0324,7.0004,6.9375,6.9601,6.9375,6.9568,6.9391,6.9468,6.9396,6.9435,6.9241,6.9087,6.9087,6.8965,6.881,6.8849,6.8772,6.8617,6.7771,6.7617,6.7384,6.6766,6.6572,6.6379,7.5005,7.5005,7.5005,7.5005,7.4966,7.4231,7.3877,7.3877,7.3877,7.3877,7.3883,7.338,7.338,7.3723,7.4226,7.4657,7.5005,7.5005,7.4811,7.4463,7.485,7.4811,7.4463,7.485,7.5005,7.5005,7.5005,7.5005,7.5005,7.5005,7.5005,7.5044,7.5469,7.5413,7.4997,7.4958,7.4976,7.5005,7.4802,7.4615,7.4423,7.4416,7.4494,7.4681,7.4687,7.479,7.4999,7.4657,7.4419,7.4419,7.4071,7.3866,7.3837,7.3837,7.3819,0.0,0.0,0.0,0.0,0.0,0.0,0.0,0.0,0.0,0.0,0.0,6.9861,6.9855,6.9535,6.9473,6.9899,7.0286,7.0672,7.1098,7.1098,7.1446,7.2375,7.164,7.1562,7.2839,7.2916,7.2999,7.3386,7.4193,7.4541,7.4077,7.4082,7.3883,7.3226,7.2336,7.1949,7.269,7.2457,7.2181,7.2181,7.2181,7.2181,7.2181,7.2181,7.2181,7.2181,7.1827,7.1595,7.1595,7.1325,7.0943,7.059,7.0479,7.0402,7.0015,6.9938,6.9473,6.8352,6.8081,6.7882,7.6403,7.6403,7.6403,7.6403,7.6287,7.485,7.4231,7.4231,7.4231,7.4154,7.4038,7.4154,7.4541,7.5115,7.5231,7.5701,7.6365,7.6403,7.5972,7.5309,7.6049,7.6016,7.5309,7.6049,7.6403,7.6403,7.6403,7.6403,7.6403,7.6403,7.6403,7.6403,7.6403,7.6403,7.6403,7.6403,7.6403,7.6403,7.6403,7.6403,7.6403,7.6403,7.6403,7.6403,7.6403,7.6403,7.6365,7.5662,7.527,7.5231,7.4568,7.422,7.4214,7.4208,7.4203,0.0,7.4214,0.0,0.0,0.0,0.0,0.0,0.0,0.0,0.0,7.1186,7.164,7.164,7.0949,7.0833,7.1562,7.2413,7.2955,7.3109,7.3767,7.427,7.4342,7.4309,7.4496,7.5193,7.5933,7.6713,7.721,7.8222,7.8641,7.8099,7.7326,7.6165,7.4734,7.4193,7.4579,7.6094,7.6133,7.5237,7.543,7.5746,7.5707,7.5862,7.5591,7.6088,7.5701,7.5198,7.4806,7.4728,7.4071,7.3535,7.2877,7.2723,7.2491,7.1794,7.164,7.1059,6.9435,6.8932,6.8926,7.6403,7.6403,7.6403,7.6403,7.6365,7.6055,7.5939,7.5939,7.5933,7.5546,7.496,7.5624,7.5624,7.5154,7.5856,7.6249,7.6403,7.6403,7.6326,7.6171,7.6326,7.6326,7.6171,7.6326,7.6403,7.6403,7.6403,7.6403,7.6403,7.6403,7.6403,7.6403,7.6403,7.6403,7.6403,0.0,0.0,0.0,7.6403,7.6403,7.6403,7.6403,7.6403,7.6403,7.6403,0.0,7.6403,7.6249,7.6171,7.6127,7.5963,0.0,0.0,0.0,0.0,0.0,0.0,0.0,0.0,0.0,0.0,0.0,7.5999,7.5728,7.3402,7.3336,7.3419,7.338,7.3264,7.3226,7.3419,7.4148,7.4922,7.5591,7.5823,7.6204,7.6823,7.632,7.6011,7.6127,7.6287,7.6481,7.6713,7.679,7.6945,7.7061,7.6165,7.574,7.5972,7.5862,7.5784,7.543,7.5005,7.4502,7.4386,7.4502,7.4695,7.4386,7.4347,7.4463,7.4541,7.4386,7.4193,7.4231,7.3999,7.3922,7.369,7.3651,7.3574,7.3419,7.338,7.2684,7.0324,6.9788,6.9589,7.6403,0.0,7.6403,7.6403,0.0,7.6403,7.6403,7.6403,7.6403,7.6171,7.5779,7.621,7.6171,7.5779,7.621,7.6403,7.6403,7.6403,7.6403,7.6403,7.6403,7.6403,7.6403,7.6403,7.6403,7.6403,7.6403,7.6403,7.6403,7.6403,7.6403,7.6403,7.6403,7.6403,7.6403,7.6829,7.6829,7.6403,7.6403,7.6403,7.6403,7.6403,7.6403,7.6403,7.6368,0.0,0.0,0.0,0.0,0.0,0.0,0.0,0.0,7.6218,0.0,7.6198,7.6225,7.625,7.625,7.6282,7.612,7.5725,7.6534,7.6519,7.5237,7.4734,7.4342,7.3922,7.3877,7.3877,7.3922,7.4612,7.527,7.5701,7.6127,7.6597,7.6906,7.6674,7.6597,7.6984,7.7061,7.7177,7.7635,7.7674,7.7674,7.768,7.7326,7.7132,7.7442,7.6552,7.5662,7.5701,7.543,7.516,7.5121,7.5121,7.5121,7.516,7.516,7.5121,7.5121,7.5121,7.5121,7.5121,7.5121,7.5044,7.4574,7.4496,7.438,7.3999,7.3877,7.3574,7.2142,7.191,7.1833,7.6481,7.6635,7.6635,7.6713,7.6868,7.6868,7.6868,7.6829,0.0,0.0,0.0,7.6403,7.6403,7.6403,7.6403,7.6403,7.6403,7.6403,7.6403,7.6403,7.6558,7.6635,7.6635,7.679,7.6868,7.6868,7.6868,7.6862,7.6868,7.6868,7.6868,7.6868,7.6868,7.6868,7.6906,7.7564,7.7603,7.6906,7.6868,7.6868,7.6868,7.6868,7.6868,7.6868,7.6659,7.6545,7.6533,7.6321,7.6205,7.6192,7.6185,7.6179,7.6179,7.6165,7.6159,7.6159,7.6172,7.6179,7.6179,7.6198,7.6321,7.6545,7.66,7.6558,7.6403,7.574,7.5044,7.4386,7.4347,7.4347,7.4347,7.5082,7.5541,7.5579,7.632,7.6868,7.6906,7.6862,7.7216,7.779,7.7906,7.8177,7.8834,7.8912,7.9028,7.895,7.8641,7.868,7.8332,7.6862,7.6011,7.6514,7.6365,7.6326,7.6365,7.6287,7.6403,7.6249,7.6287,7.6403,7.6403,7.6403,7.6403,7.6249,7.6365,7.6049,7.5508,7.5347,7.5076,7.4463,7.4347,7.4347,7.4347,7.4347,7.4154,7.6829,7.7519,7.7525,7.7945,7.8641,7.8641,7.8641,7.8525,7.7061,7.6403,7.6403,7.6403,7.6403,7.6403,7.6403,7.6403,7.6403,7.6403,7.6403,7.6442,7.7177,7.7519,7.7564,7.8293,7.8641,7.8602,7.8602,7.8641,7.8641,7.8602,7.8641,7.8602,7.8641,7.8602,7.8641,7.8757,7.8757,7.8641,7.8641,7.8641,7.8641,7.8641,7.8641,7.8602,7.79,7.7483,7.7383,7.6713,7.6257,7.6198,7.6138,7.6111,7.6111,7.6087,7.6044,7.6012,7.6069,7.6111,7.6111,7.6218,7.6622,7.7424,7.7519,7.7216,7.6481,7.6287,7.6171,7.6055,7.5939,7.6055,7.6094,7.6746,7.7171,7.7287,7.8061,7.8602,7.8448,7.8448,7.8448,7.8602,7.8834,7.8718,7.8796,7.8873,7.8834,7.8834,7.8254,7.7635,7.7132,7.7132,7.7326,7.7403,7.6868,7.6481,7.6403,7.6403,7.6403,7.6403,7.6403,7.6403,7.6403,7.6403,7.6403,7.6403,7.6403,7.6326,7.6165,7.6204,7.6049,7.5862,7.5817,7.59,7.5862,7.5856,7.5508,7.8022,7.837,7.8409,7.8641,7.9028,7.9028,7.9028,7.895,7.8183,7.779,7.779,7.7835,7.7829,7.7829,7.779,7.779,7.779,7.7796,7.779,7.7829,7.8216,7.8409,7.8448,7.8796,7.9028,7.9028,7.9028,7.9028,7.9028,7.9028,7.9028,7.9028,7.9028,7.9183,7.9647,7.9647,7.9873,8.0298,7.9453,7.9028,7.9028,7.9028,7.8971,7.8934,7.8477,7.8187,7.8153,7.7733,7.7467,7.7432,7.7442,7.742,7.7381,7.7383,7.7361,7.7369,7.736,7.7189,7.6765,7.6401,7.6359,7.6778,7.6855,7.672,7.6333,7.6787,7.6906,7.6442,7.6403,7.6403,7.6403,7.6751,7.6984,7.6984,7.737,7.7564,7.7564,7.7603,7.7603,7.7597,7.7597,7.7603,7.7597,7.7603,7.7603,7.7564,7.7216,7.6829,7.6442,7.6713,7.6984,7.6945,7.6674,7.6442,7.6403,7.6403,7.6403,7.6403,7.6403,7.6403,7.6403,7.6403,7.6403,7.6403,7.6403,7.6403,7.6403,7.6403,7.6403,7.6403,7.6403,7.6403,7.6403,7.6403,7.6088,7.9105,7.926,7.926,7.9376,7.9569,7.9569,7.9569,7.9569,7.9569,7.9569,7.9531,7.9183,7.9028,7.9028,7.9028,7.8989,7.9028,7.9028,7.8989,7.9028,7.9183,7.926,7.9299,7.9453,7.9569,7.9569,7.9569,7.9569,7.9569,7.9569,7.9569,7.9569,7.9569,7.9879,8.0492,8.0492,8.084,8.1381,8.0208,7.9545,7.9545,7.9545,7.9514,7.9443,7.9158,7.8974,7.8864,7.8652,7.8499,7.8484,7.8484,7.8484,7.8484,7.8484,7.8484,7.8484,7.8484,7.8222,7.7622,7.7025,7.6644,7.6696,7.6744,7.6771,7.6822,7.7454,7.7483,7.6573,7.6374,7.6386,7.6397,7.6403,7.6403,7.6403,7.6403,7.6481,7.6403,7.6403,7.6403,7.6403,7.6403,7.6442,7.6403,7.6403,7.6481,7.6481,7.6403,7.6403,7.6403,7.6403,7.6403,7.6403,7.6403,7.6403,7.6403,7.6403,7.6403,7.6403,7.6403,7.6403,7.6403,7.6403,7.6403,7.6403,7.6403,7.6403,7.6403,7.6403,7.6403,7.6403,7.6403,7.6403,7.6403,7.6403,7.6403,7.9453,8.0034,8.0111,8.0569,8.1188,8.1226,8.1188,8.1226,8.1265,8.1265,8.1072,7.9685,7.9067,7.9028,7.9067,7.9105,7.9105,7.9028,7.9067,7.9144,7.9763,8.0105,8.0143,8.0878,8.1265,8.1226,8.1188,8.111,8.1149,8.1188,8.1226,8.1265,8.1265,8.1304,8.1381,8.1381,8.1459,8.1497,8.1285,8.1169,8.1169,8.1175,8.1142,8.1067,8.0288,7.986,7.9781,7.9004,7.8582,7.853,7.8561,7.8523,7.8523,7.8523,7.8523,7.8523,7.8523,7.8476,7.8496,7.8433,7.8308,7.8454,7.8377,7.8384,7.8384,7.852,7.7943,7.6791,7.6346,7.6486,7.6392,7.6475,7.6546,7.6618,7.654,7.6403,7.6508,7.6403,7.6403,7.6403,7.6585,7.6403,7.6597,7.6597,7.6558,7.6674,7.6713,7.6707,7.6674,7.6668,7.6674,7.6558,7.6442,7.6442,7.6442,7.6403,7.6403,7.6403,7.6403,7.6403,7.6403,7.6403,7.6403,7.6403,7.6403,7.6403,7.6403,7.6403,7.6403,7.6403,7.6403,7.6403,7.6403,7.6403,7.6403,8.0685,8.0956,8.0956,8.1149,8.1497,8.1497,8.1497,8.1497,8.1497,8.1497,8.1459,8.0762,8.0453,8.0492,8.0492,8.0498,8.0492,8.0492,8.0453,8.0492,8.0801,8.0956,8.0994,8.1304,8.1497,8.1497,8.1497,8.1497,8.1497,8.1497,8.1774,8.22,8.2277,8.2509,8.3006,8.2967,8.2902,8.2941,8.2834,8.2817,8.2666,8.1814,8.1298,8.1227,8.0911,8.0682,8.0608,8.0254,8.0085,8.0062,8.0015,8.0062,8.0015,8.0062,8.0015,8.0015,7.9554,7.93,7.9322,7.8829,7.8582,7.8573,7.8573,7.8573,7.8573,7.8573,7.8293,7.7824,7.7716,7.7717,7.7743,7.775,7.775,7.775,7.775,7.775,7.775,7.775,7.7801,7.7878,7.789,7.7864,7.7939,7.7906,7.7945,7.7906,7.7906,7.7829,7.7906,7.7945,7.7945,7.7945,7.7945,7.7448,7.6751,7.6403,7.6403,7.6403,7.6403,7.6403,7.6481,7.6403,7.6403,7.6442,7.6519,7.6519,7.6403,7.6403,7.6403,7.6481,7.6403,7.6403,7.6403,7.6403,7.6403,8.144,8.144,8.1446,8.144,8.144,8.144,8.144,8.144,8.144,8.144,8.144,8.1446,8.144,8.1446,8.1478,8.1497,8.1497,8.1478,8.1472,8.1466,8.1453,8.144,8.1446,8.1466,8.1588,8.1788,8.1878,8.2006,8.2193,8.2168,8.2477,8.3019,8.3083,8.3386,8.3914,8.3943,8.387,8.387,8.3806,8.3733,8.3541,8.2554,8.1892,8.1839,8.1839,8.1809,8.1793,8.1785,8.167,8.1439,8.14,8.1323,8.1131,8.1093,8.1093,8.1054,8.0516,8.0169,8.0169,7.9554,7.9215,7.9215,7.9215,7.9215,7.9215,7.9215,7.9238,7.9283,7.9341,7.9229,7.8738,7.8699,7.8699,7.8699,7.8699,7.8699,7.8668,7.8699,7.8688,7.885,7.8664,7.8876,7.8882,7.8869,7.8843,7.8804,7.89,7.9028,7.9028,7.895,7.895,7.9028,7.8989,7.8486,7.737,7.7254,7.71,7.71,7.721,7.7287,7.7132,7.7132,7.7132,7.7597,7.7254,7.7177,7.7442,7.7287,7.7094,7.7061,7.6945,7.6829,7.6868,7.6635,7.6442,8.1298,8.1298,8.1298,8.1344,8.1298,8.1305,8.1305,8.1312,8.1344,8.1305,8.1382,8.1382,8.1337,8.1428,8.1588,8.153,8.1523,8.1504,8.1516,8.1548,8.1456,8.1337,8.1305,8.1406,8.1864,8.2612,8.2703,8.3115,8.3812,8.3791,8.3828,8.3828,8.381,8.3813,8.3968,8.3999,8.3838,8.3985,8.3918,8.3796,8.3788,8.361,8.3502,8.3494,8.3455,8.3378,8.3409,8.3447,8.3101,8.2285,8.2247,8.1939,8.1246,8.117,8.1208,8.117,8.1131,8.1093,8.1093,8.1016,8.0977,8.0977,8.09,8.0939,8.0823,8.0746,8.0716,8.0908,8.077,8.0245,7.9128,7.9019,7.891,7.8872,7.8808,7.884,7.8808,7.8949,7.8738,7.8861,7.8983,7.9035,7.8874,7.885,7.9044,7.9057,7.9024,7.917,7.9242,7.917,7.9215,7.9215,7.9176,7.8989,7.8873,7.8486,7.8564,7.8525,7.8332,7.868,7.8834,7.8912,7.8796,7.8757,7.8525,7.8525,7.8757,7.8796,7.8641,7.8409,7.7906,7.7719,7.7641,7.6906,7.679,8.1284,8.1284,8.1284,8.1284,8.1284,8.1284,8.1284,8.1284,8.1284,8.1631,8.2063,8.214,8.241,8.2912,8.2961,8.268,8.2217,8.2189,8.2445,8.287,8.2919,8.2912,8.2912,8.294,8.3063,8.3347,8.3438,8.3568,8.3838,8.3849,8.4144,8.4607,8.4662,8.4918,8.5366,8.5367,8.5344,8.5337,8.5259,8.5211,8.518,8.5225,8.5209,8.5132,8.414,8.3601,8.3601,8.3601,8.3447,8.3139,8.3139,8.2986,8.2755,8.2708,8.2708,8.267,8.2678,8.2716,8.2716,8.2716,8.2716,8.267,8.217,8.1862,8.1785,8.14,8.1093,8.1131,8.1093,8.0746,8.0461,8.0253,8.0214,8.0214,8.0214,8.0183,8.0253,8.0214,8.0275,8.028,8.0323,8.0358,8.0243,8.0386,8.04,8.0406,8.0427,8.0402,8.0453,8.0473,8.0428,8.0519,8.0583,8.0608,8.0614,7.9531,7.8989,7.8989,7.895,7.895,7.9067,7.9183,7.9105,7.9221,7.926,7.9299,7.9337,7.9299,7.9337,7.9183,7.8718,7.8602,7.8531,7.7945,7.7906,8.1212,8.122,8.1251,8.1212,8.1251,8.1521,8.1598,8.1675,8.1906,8.2369,8.2877,8.2916,8.3224,8.3679,8.3718,8.3641,8.334,8.3092,8.3254,8.3755,8.3733,8.3718,8.3725,8.3748,8.3955,8.4225,8.4517,8.4648,8.464,8.458,8.4881,8.5421,8.5429,8.5684,8.6215,8.6207,8.6145,8.6167,8.6126,8.6094,8.6094,8.6094,8.6094,8.594,8.4978,8.4401,8.4401,8.4409,8.4247,8.4063,8.4024,8.3901,8.364,8.3601,8.3601,8.3601,8.3563,8.3601,8.3601,8.3601,8.3563,8.3563,8.3101,8.2708,8.2678,8.2208,8.1939,8.19,8.19,8.19,8.19,8.19,8.1708,8.1246,8.1093,8.1093,8.1093,8.1054,8.1085,8.1092,8.1099,8.1167,8.122,8.1196,8.121,8.1249,8.1309,8.1284,8.1298,8.1326,8.1374,8.1394,8.1317,8.1317,8.1253,8.0492,8.0105,8.0066,7.9918,7.9724,7.9608,7.9647,7.9685,7.9724,7.9763,7.9763,7.9801,7.9795,7.9757,7.9724,7.9569,7.9415,7.926,7.9105,7.8912,8.11,8.1108,8.1093,8.1147,8.1308,8.1924,8.2262,8.2463,8.3155,8.3471,8.3633,8.3617,8.374,8.3771,8.3933,8.4148,8.4587,8.415,8.3873,8.3942,8.388,8.3848,8.3856,8.3957,8.4335,8.499,8.5876,8.6253,8.6122,8.5984,8.603,8.613,8.6035,8.6011,8.614,8.611,8.6102,8.6102,8.6094,8.6094,8.6094,8.6094,8.6094,8.6094,8.594,8.5901,8.5978,8.5978,8.5593,8.5016,8.4893,8.4516,8.3947,8.3832,8.3717,8.3832,8.3717,8.3678,8.3717,8.3793,8.387,8.387,8.3678,8.3601,8.3601,8.3447,8.3332,8.3293,8.3332,8.3447,8.337,8.337,8.2832,8.1477,8.14,8.14,8.1208,8.1093,8.1093,8.11,8.1116,8.11,8.1116,8.1169,8.1207,8.1222,8.122,8.1256,8.1249,8.127,8.1319,8.136,8.1387,8.1407,8.1453,8.1452,8.1414,8.1336,8.1188,8.1033,8.084,8.0801,8.0724,8.0762,8.0724,8.0724,8.0724,8.0724,8.0878,8.0801,8.053,8.0221,8.0143,7.995,7.9608,8.1093,8.1093,8.1093,8.1439,8.19,8.2208,8.2631,8.3178,8.3524,8.3947,8.4439,8.4516,8.4786,8.5247,8.5324,8.544,8.5709,8.5464,8.5365,8.528,8.5294,8.5247,8.5294,8.531,8.548,8.575,8.6043,8.6175,8.6175,8.6151,8.6135,8.6126,8.611,8.6094,8.6094,8.6094,8.6094,8.6094,8.6094,8.6094,8.6094,8.6094,8.6094,8.6094,8.6094,8.6094,8.6094,8.6094,8.5978,8.5709,8.5709,8.5593,8.5363,8.5324,8.5324,8.5324,8.5324,8.5324,8.5324,8.5286,8.5247,8.5209,8.4824,8.4516,8.4401,8.3978,8.3678,8.364,8.3601,8.3601,8.3601,8.3601,8.3409,8.2862,8.2824,8.2485,8.1977,8.1477,8.1131,8.1093,8.1093,8.1093,8.1131,8.1208,8.1254,8.1216,8.12,8.1215,8.1177,8.1222,8.1251,8.128,8.1323,8.1333,8.1374,8.1414,8.1427,8.1453,8.1472,8.1491,8.1497,8.1497,8.1497,8.1497,8.1497,8.1497,8.1497,8.1497,8.1497,8.1497,8.111,8.0994,8.1033,8.0801,8.0376,8.1093,8.1131,8.14,8.1823,8.2401,8.2939,8.3555,8.4093,8.4401,8.4824,8.5277,8.5363,8.5585,8.6017,8.6094,8.6094,8.6094,8.6094,8.6094,8.6094,8.6094,8.6094,8.6094,8.6094,8.6094,8.6094,8.6094,8.6094,8.6094,8.6094,8.6094,8.6094,8.6094,8.6094,8.6094,8.6094,8.6094,8.6094,8.6094,8.6094,8.6094,8.6094,8.6094,8.6094,8.6094,8.6094,8.6094,8.6094,8.6094,8.6094,8.6094,8.6094,8.6094,8.6055,8.6094,8.6094,8.6094,8.6055,8.6094,8.6017,8.6094,8.5978,8.5632,8.5354,8.5247,8.4747,8.4555,8.4516,8.4563,8.4516,8.4563,8.4563,8.4516,8.4524,8.3909,8.3409,8.2793,8.237,8.2093,8.2131,8.2093,8.2016,8.2016,8.2016,8.1862,8.167,8.1554,8.1362,8.1254,8.1139,8.1208,8.1245,8.1212,8.1263,8.1291,8.1326,8.1353,8.1394,8.144,8.1472,8.1497,8.1497,8.1497,8.1497,8.1497,8.1497,8.1497,8.1497,8.1497,8.1497,8.1497,8.142,8.1304,8.1343,8.111,8.1093,8.1208,8.1977,8.2324,8.2631,8.4047,8.4816,8.5093,8.567,8.594,8.6017,8.5978,8.6047,8.6094,8.6094,8.6094,8.6094,8.6094,8.6094,8.6094,8.6094,8.6094,8.6094,8.6094,8.6094,8.6094,8.6094,8.6094,8.6094,8.6094,8.6094,8.6094,8.6094,8.6094,8.6094,8.6094,8.6094,8.6094,8.6094,8.6094,8.6094,8.6094,8.6094,8.6094,8.6094,8.6094,8.6094,8.6094,8.6094,8.6094,8.6094,8.6094,8.6094,8.6094,8.6094,8.6094,8.6094,8.6094,8.6094,8.6094,8.6094,8.6094,8.6055,8.6094,8.594,8.5824,8.5747,8.5786,8.5863,8.5901,8.5901,8.5901,8.5901,8.5824,8.467,8.3832,8.3678,8.3563,8.3293,8.337,8.3563,8.3563,8.3332,8.337,8.3024,8.2639,8.2362,8.2093,8.1785,8.1693,8.1408,8.1508,8.1777,8.1869,8.213,8.2174,8.2249,8.227,8.2101,8.1923,8.1672,8.1562,8.1536,8.1497,8.1575,8.1575,8.1497,8.1497,8.1497,8.1497,8.1497,8.1497,8.1497,8.1497,8.1497,8.1093,8.117,8.1977,8.2678,8.337,8.4478,8.5239,8.5747,8.5978,8.6094,8.6094,8.6094,8.6094,8.6094,8.6094,8.6094,8.6094,8.6094,8.6094,8.6094,8.6094,8.6094,8.6094,8.6094,8.6094,8.6094,8.6094,8.6094,8.6094,8.6094,8.6094,8.6094,8.6094,8.6094,8.6094,8.6094,8.6094,8.6094,8.6094,8.6094,8.6094,8.6094,8.6094,8.6094,8.6094,8.6094,8.6094,8.6094,8.6094,8.6094,8.6094,8.6094,8.6094,8.6094,8.6094,8.6094,8.6094,8.6094,8.6094,8.6094,8.6094,8.6094,8.6094,8.6094,8.6094,8.6094,8.6094,8.6094,8.6094,8.6094,8.6094,8.6094,8.6094,8.5978,8.5132,8.4555,8.4478,8.3986,8.3601,8.3601,8.3678,8.3717,8.3755,8.3717,8.3601,8.337,8.3255,8.3139,8.2708,8.2639,8.254,8.284,8.3056,8.3025,8.3087,8.3141,8.3171,8.3263,8.3052,8.2659,8.2186,8.1659,8.1601,8.1497,8.1729,8.1768,8.1613,8.1497,8.1497,8.1497,8.1497,8.1497,8.1497,8.1497,8.1497,8.1093,8.1208,8.2362,8.3139,8.3755,8.4901,8.567,8.6055,8.6094,8.6094,8.6094,8.6094,8.6094,8.6094,8.6094,8.6094,8.6094,8.6094,8.6094,8.6094,8.6094,8.6094,8.6094,8.6094,8.6094,8.6094,8.6094,8.6094,8.6094,8.6094,8.6094,8.6094,8.6094,8.6094,8.6094,8.6094,8.6094,8.6094,8.6094,8.6094,8.6094,8.6094,8.6094,8.6094,8.6094,8.6094,8.6094,8.6094,8.6094,8.6094,8.6094,8.6094,8.6094,8.6094,8.6094,8.6094,8.6094,8.6094,8.6094,8.6094,8.6094,8.6094,8.6094,8.6094,8.6094,8.6094,8.6094,8.6094,8.6094,8.6094,8.6094,8.6094,8.6094,8.6055,8.567,8.5401,8.5393,8.5016,8.4709,8.4632,8.4632,8.4632,8.4632,8.4632,8.4439,8.4247,8.417,8.3901,8.3601,8.3678,8.3717,8.3832,8.3793,8.3648,8.3579,8.3618,8.3719,8.385,8.3911,8.3483,8.3098,8.24,8.2245,8.2226,8.2116,8.2006,8.1884,8.1691,8.1497,8.1497,8.1497,8.1536,8.1575,8.1497,8.1497,8.1093,8.1246,8.2901,8.3601,8.3862,8.5363,8.6055,8.6094,8.6094,8.6094,8.6094,8.6094,8.6094,8.6094,8.6094,8.6094,8.6094,8.6094,8.6094,8.6094,8.6094,8.6094,8.6094,8.6094,8.6094,8.6094,8.6094,8.6094,8.6094,8.6094,8.6094,8.6094,8.6094,8.6094,8.617,8.6209,8.6239,8.6401,8.6594,8.6671,8.6671,8.6671,8.6709,8.6709,8.6671,8.6632,8.6594,8.6517,8.6517,8.6401,8.6247,8.6094,8.6094,8.6094,8.6094,8.6094,8.6094,8.6094,8.6094,8.6094,8.6094,8.6094,8.6094,8.6094,8.6094,8.6094,8.6094,8.6094,8.6094,8.6094,8.6094,8.6094,8.6094,8.6094,8.6047,8.6094,8.6094,8.6094,8.6094,8.6094,8.6047,8.6094,8.6094,8.6055,8.5786,8.5093,8.4978,8.4824,8.4593,8.4516,8.4439,8.4324,8.4255,8.4063,8.4024,8.4032,8.4156,8.4279,8.4512,8.4357,8.4322,8.3821,8.3463,8.3225,8.2993,8.269,8.2348,8.2116,8.1961,8.1961,8.2238,8.2006,8.1697,8.1575,8.1497,8.1093,8.1246,8.2909,8.3601,8.387,8.5363,8.6094,8.6094,8.6094,8.6094,8.6094,8.6094,8.6094,8.6094,8.6094,8.6094,8.6094,8.6094,8.6094,8.6094,8.6094,8.6094,8.6094,8.6094,8.6094,8.6094,8.6094,8.6094,8.6094,8.6094,8.6094,8.6094,8.6209,8.6094,8.6201,8.6824,8.7132,8.7248,8.7709,8.7987,8.7948,8.7948,8.7948,8.7987,8.7987,8.8064,8.8141,8.8141,8.8132,8.7825,8.694,8.6324,8.6286,8.6247,8.6247,8.6209,8.617,8.6132,8.6094,8.6094,8.6094,8.6094,8.6094,8.6094,8.6094,8.6094,8.6094,8.6094,8.6094,8.6094,8.6094,8.6094,8.6094,8.6094,8.6094,8.6094,8.6094,8.6094,8.6094,8.6094,8.6094,8.6094,8.6094,8.6094,8.5978,8.5824,8.5786,8.5701,8.5555,8.5324,8.5209,8.5016,8.5016,8.4939,8.4939,8.4901,8.4901,8.4939,8.5081,8.5159,8.5097,8.4838,8.4323,8.4023,8.3831,8.3457,8.3083,8.3244,8.3244,8.3128,8.2935,8.2703,8.2393,8.2039,8.1884,8.1093,8.1285,8.2909,8.3601,8.387,8.5363,8.6094,8.6094,8.6094,8.6094,8.6094,8.6094,8.6094,8.6094,8.6094,8.6094,8.6094,8.6094,8.6094,8.6094,8.6094,8.6094,8.6094,8.6094,8.6094,8.6094,8.6094,8.6094,8.6094,8.6094,8.6094,8.617,8.6478,8.6748,8.6824,8.7555,8.7987,8.8064,8.841,8.8679,8.8679,8.8679,8.8679,8.8679,8.8679,8.8679,8.8641,8.8641,8.8679,8.8449,8.7825,8.7325,8.7325,8.7286,8.7132,8.6748,8.6709,8.644,8.6247,8.6094,8.6094,8.6132,8.6094,8.6094,8.6094,8.6094,8.6094,8.6094,8.6094,8.6094,8.6094,8.6094,8.6094,8.6094,8.6094,8.6094,8.6094,8.6094,8.6094,8.6094,8.6094,8.6094,8.6094,8.6094,8.6094,8.594,8.594,8.5901,8.594,8.5786,8.5863,8.5786,8.5901,8.594,8.5901,8.5863,8.5786,8.5747,8.5733,8.5758,8.5751,8.5391,8.4978,8.4765,8.4564,8.423,8.3979,8.4211,8.4211,8.3863,8.3592,8.3483,8.3322,8.3089,8.3012,8.1093,8.1246,8.2909,8.3601,8.387,8.5363,8.6094,8.6094,8.6094,8.6094,8.6094,8.6094,8.6094,8.6094,8.6094,8.6094,8.6094,8.6094,8.6094,8.6094,8.6094,8.6094,8.6094,8.6094,8.6094,8.6094,8.6094,8.6094,8.6094,8.6132,8.6247,8.6401,8.6978,8.7363,8.7709,8.841,8.8872,8.8902,8.9171,8.9334,8.9295,8.9257,8.9295,8.9295,8.9334,8.9334,8.9334,8.9286,8.9171,8.9056,8.9056,8.9103,8.9026,8.8718,8.8449,8.7594,8.7594,8.7363,8.6978,8.6709,8.6671,8.6517,8.6555,8.644,8.6401,8.6363,8.6286,8.6132,8.6094,8.6094,8.6094,8.6094,8.6094,8.6094,8.6094,8.6094,8.6094,8.6094,8.6094,8.6094,8.6094,8.6094,8.6094,8.6094,8.6094,8.6094,8.6094,8.6094,8.6094,8.6094,8.6094,8.6094,8.6094,8.6094,8.6094,8.6094,8.6094,8.6094,8.6102,8.6102,8.611,8.586,8.5544,8.5463,8.5264,8.5009,8.4894,8.5056,8.4901,8.4482,8.4289,8.425,8.4211,8.4173,8.4057,8.1093,8.1246,8.2909,8.3601,8.387,8.5363,8.6055,8.6094,8.6094,8.6094,8.6094,8.6094,8.6094,8.6094,8.6094,8.6094,8.6094,8.6094,8.6094,8.6094,8.6094,8.6094,8.6094,8.6094,8.6094,8.6094,8.6094,8.6094,8.6094,8.6132,8.6555,8.7055,8.744,8.7825,8.8556,8.9248,8.971,8.9825,9.021,9.0479,9.0517,9.0517,9.0517,9.0517,9.0479,9.0556,9.0633,9.071,9.0787,9.0787,9.0787,9.0748,9.0402,8.9487,8.8833,8.8517,8.844,8.8286,8.8025,8.8102,8.8218,8.8256,8.8094,8.7748,8.7363,8.7171,8.694,8.6478,8.6286,8.6209,8.6094,8.6209,8.6132,8.6132,8.6094,8.6094,8.6094,8.6094,8.6094,8.6094,8.6094,8.6094,8.6094,8.6094,8.6094,8.6094,8.6094,8.6094,8.6094,8.6094,8.6094,8.6094,8.6094,8.6094,8.6094,8.6094,8.6094,8.6094,8.6094,8.6094,8.6118,8.6183,8.6069,8.5884,8.5965,8.5966,8.5923,8.5873,8.5823,8.5597,8.5365,8.5101,8.5062,8.4985,8.4559,8.1093,8.1208,8.2439,8.3216,8.3793,8.4939,8.5747,8.6055,8.6094,8.6094,8.6094,8.6094,8.6094,8.6094,8.6094,8.6094,8.6094,8.6094,8.6094,8.6094,8.6094,8.6094,8.6094,8.6094,8.6094,8.6094,8.6094,8.6094,8.617,8.6594,8.6978,8.7478,8.8171,8.894,8.9402,9.0124,9.047,9.0663,9.097,9.1201,9.1201,9.1201,9.1201,9.1201,9.1201,9.1201,9.1201,9.1201,9.1163,9.1163,9.1163,9.1201,9.0941,9.0517,8.9748,8.944,8.9325,8.9094,8.8795,8.8679,8.8641,8.8641,8.8718,8.8526,8.8218,8.8017,8.7786,8.7555,8.7401,8.7248,8.6863,8.6786,8.6555,8.6209,8.6132,8.6132,8.6094,8.6132,8.6094,8.6094,8.6094,8.6094,8.6094,8.6094,8.6094,8.6094,8.6094,8.6094,8.6094,8.6094,8.6094,8.6094,8.6094,8.6094,8.6094,8.6094,8.6094,8.6094,8.6094,8.6094,8.6102,8.6151,8.6159,8.6052,8.6269,8.6428,8.6423,8.6187,8.6446,8.659,8.6171,8.5861,8.5868,8.572,8.5294,8.1093,8.117,8.1977,8.2832,8.3678,8.4555,8.5363,8.6017,8.6094,8.6094,8.6094,8.6094,8.6094,8.6094,8.6094,8.6094,8.6094,8.6094,8.6094,8.6094,8.6094,8.6094,8.6094,8.6094,8.6094,8.6094,8.6094,8.6094,8.6247,8.6901,8.7401,8.8017,8.9239,9.0047,9.0278,9.0778,9.1124,9.1201,9.1201,9.1201,9.1201,9.1201,9.1201,9.1201,9.1201,9.1201,9.1201,9.1201,9.1201,9.1201,9.1201,9.1201,9.1201,9.1201,9.0855,9.0316,9.0163,8.9787,8.9479,8.9295,8.9449,8.9479,8.9295,8.9133,8.8825,8.8748,8.8603,8.8679,8.8603,8.8333,8.7748,8.7632,8.7363,8.694,8.6594,8.6363,8.6401,8.6324,8.6094,8.6094,8.6094,8.6094,8.6094,8.6094,8.6094,8.6094,8.6094,8.6094,8.6094,8.6094,8.6094,8.6094,8.6094,8.6094,8.6094,8.6094,8.6094,8.6094,8.6094,8.6094,8.6094,8.6102,8.6102,8.611,8.6206,8.6323,8.6406,8.6479,8.6507,8.6535,8.6569,8.6474,8.6293,8.6255,8.6107,8.1093,8.117,8.1939,8.2832,8.364,8.4478,8.5316,8.6008,8.6055,8.6094,8.6094,8.6094,8.6094,8.6094,8.6094,8.6094,8.6094,8.6094,8.6094,8.6094,8.6094,8.6094,8.6094,8.6094,8.6094,8.6094,8.6094,8.6094,8.6363,8.7017,8.7833,8.8556,8.944,9.0239,9.0864,9.1086,9.1163,9.1201,9.1201,9.1201,9.1201,9.1201,9.1201,9.1201,9.1201,9.1201,9.1201,9.1201,9.1201,9.1201,9.1201,9.1201,9.1201,9.1201,9.1171,9.1056,9.1056,9.0979,9.0748,9.0594,9.0594,9.0556,9.0671,9.0432,8.9902,8.9286,8.8987,8.8679,8.8795,8.8795,8.8632,8.8526,8.8449,8.8102,8.7555,8.7325,8.7209,8.7017,8.6748,8.6363,8.6478,8.6247,8.6132,8.6094,8.6094,8.6094,8.6094,8.6094,8.6094,8.6094,8.6094,8.6094,8.6094,8.6094,8.6094,8.6094,8.6094,8.6094,8.6094,8.6094,8.6094,8.6094,8.6094,8.611,8.6189,8.6214,8.6254,8.6323,8.6428,8.6479,8.6521,8.6562,8.6558,8.6603,8.6603,8.1093,8.1131,8.1477,8.2093,8.2947,8.3785,8.4632,8.5401,8.5893,8.6094,8.6094,8.6094,8.6094,8.6094,8.6094,8.6094,8.6094,8.6094,8.6094,8.6094,8.6094,8.6094,8.6094,8.6094,8.6094,8.6094,8.6094,8.6094,8.6478,8.7401,8.841,8.8795,8.994,9.0787,9.1171,9.1201,9.1201,9.1201,9.1201,9.1201,9.1201,9.1201,9.1201,9.1201,9.1201,9.1201,9.1201,9.1201,9.1201,9.1201,9.1201,9.1201,9.1201,9.1201,9.1163,9.1163,9.1163,9.1163,9.1124,9.1201,9.1201,9.1201,9.1163,9.0979,9.0594,9.0287,9.0056,9.0133,9.0133,8.9902,8.9479,8.9402,8.9094,8.8756,8.844,8.8295,8.8102,8.7863,8.7632,8.7209,8.6824,8.6709,8.6517,8.6286,8.6247,8.6094,8.6094,8.6094,8.6094,8.6094,8.6094,8.6094,8.6094,8.6094,8.6094,8.6094,8.6094,8.6094,8.6094,8.6094,8.6094,8.6094,8.6094,8.6094,8.611,8.6135,8.6159,8.6223,8.63,8.6406,8.6472,8.6514,8.6556,8.6603,8.6603,8.1093,8.1093,8.1093,8.1554,8.2362,8.3216,8.4132,8.497,8.5739,8.6094,8.6094,8.6094,8.6094,8.6094,8.6094,8.6094,8.6094,8.6094,8.6094,8.6094,8.6094,8.6094,8.6094,8.6094,8.6094,8.6094,8.6094,8.6094,8.6632,8.7641,8.8603,8.8795,9.0325,9.1056,9.1163,9.1201,9.1201,9.1201,9.1201,9.1201,9.1201,9.1201,9.1201,9.1201,9.1201,9.1201,9.1201,9.1201,9.1201,9.1201,9.1201,9.1201,9.1201,9.1201,9.1201,9.1201,9.1201,9.1201,9.1201,9.1201,9.1201,9.1201,9.1201,9.1171,9.1124,9.1201,9.1163,9.0979,9.1018,9.0701,9.0432,9.0248,9.0056,8.9633,8.921,8.9094,8.8949,8.8671,8.8363,8.7979,8.7679,8.7487,8.7209,8.6709,8.6401,8.617,8.6094,8.6094,8.6094,8.6094,8.6094,8.6094,8.6094,8.6094,8.6094,8.6094,8.6094,8.6094,8.6094,8.6094,8.6094,8.6094,8.6094,8.6094,8.6094,8.6102,8.6126,8.6175,8.6215,8.6285,8.6353,8.645,8.65,8.6556,8.6603,8.1093,8.1093,8.1093,8.1554,8.2324,8.3216,8.4055,8.4816,8.567,8.6055,8.6094,8.6094,8.6094,8.6094,8.6094,8.6094,8.6094,8.6094,8.6094,8.6094,8.6094,8.6094,8.6094,8.6094,8.6094,8.6094,8.6094,8.6094,8.6478,8.7671,8.8449,8.8949,9.0402,9.0979,9.1201,9.1201,9.1201,9.1201,9.1201,9.1201,9.1201,9.1201,9.1201,9.1201,9.1201,9.1201,9.1201,9.1201,9.1201,9.1201,9.1201,9.1201,9.1201,9.1201,9.1201,9.1201,9.1201,9.1201,9.1201,9.1201,9.1201,9.1201,9.1201,9.1201,9.1201,9.1201,9.1201,9.1201,9.1201,9.1163,9.1047,9.1056,9.0787,9.0517,9.0094,8.9902,8.9671,8.9286,8.9017,8.8718,8.8526,8.8325,8.7987,8.7517,8.6901,8.6632,8.6132,8.6094,8.6094,8.6094,8.6094,8.6094,8.6094,8.6094,8.6094,8.6094,8.6094,8.6094,8.6094,8.6094,8.6094,8.6094,8.6094,8.6094,8.6094,8.6094,8.6094,8.6126,8.6167,8.6215,8.6269,8.6345,8.6472,8.6542,8.6583,8.1093,8.1093,8.1093,8.1285,8.1631,8.2439,8.3285,8.417,8.4978,8.567,8.6094,8.6094,8.6094,8.6094,8.6094,8.6094,8.6094,8.6094,8.6094,8.6094,8.6094,8.6094,8.6094,8.6094,8.6094,8.6094,8.6094,8.6094,8.6247,8.744,8.8171,8.9017,9.0364,9.0979,9.1201,9.1201,9.1201,9.1201,9.1201,9.1201,9.1201,9.1201,9.1201,9.1201,9.1201,9.1201,9.1201,9.1201,9.1201,9.1201,9.1201,9.1201,9.1201,9.1201,9.1201,9.1201,9.1201,9.1201,9.1201,9.1201,9.1201,9.1201,9.1201,9.1201,9.1201,9.1201,9.1201,9.1201,9.1201,9.1201,9.1163,9.1163,9.1086,9.1086,9.0932,9.0663,9.0441,9.0017,8.9787,8.9556,8.9325,8.9171,8.8786,8.8372,8.7709,8.7094,8.6555,8.6132,8.6209,8.6209,8.6209,8.6132,8.6094,8.6094,8.6094,8.6094,8.6094,8.6094,8.6094,8.6094,8.6094,8.6094,8.6094,8.6094,8.6094,8.6094,8.6094,8.6094,8.6118,8.6159,8.6223,8.6262,8.639,8.6475,8.6556,8.1077,8.1015,8.1053,8.1069,8.1208,8.1977,8.2793,8.364,8.4555,8.5354,8.6094,8.6094,8.6094,8.6094,8.6094,8.6094,8.6094,8.6094,8.6094,8.6094,8.6094,8.6094,8.6094,8.6094,8.6094,8.6094,8.6094,8.6094,8.6132,8.6978,8.7863,8.8902,9.0056,9.0701,9.1201,9.1201,9.1201,9.1201,9.1201,9.1201,9.1201,9.1201,9.1201,9.1201,9.1201,9.1201,9.1201,9.1201,9.1201,9.1201,9.1201,9.1201,9.1201,9.1201,9.1201,9.1201,9.1201,9.1201,9.1201,9.1201,9.1201,9.1201,9.1201,9.1201,9.1201,9.1201,9.1201,9.1201,9.1201,9.1201,9.1201,9.1201,9.1201,9.1124,9.1124,9.097,9.097,9.0748,9.0547,9.0355,9.021,9.0094,8.9787,8.9363,8.8632,8.8055,8.7709,8.7132,8.6748,8.6671,8.6478,8.6286,8.6094,8.6094,8.6094,8.617,8.6247,8.6094,8.6094,8.6094,8.6094,8.617,8.6132,8.6094,8.6094,8.6094,8.6094,8.6094,8.6094,8.6094,8.6183,8.6231,8.6323,8.6404,8.6514,8.0999,8.0934,8.0926,8.0975,8.1146,8.1939,8.2747,8.3524,8.4516,8.5363,8.6055,8.6094,8.6094,8.6094,8.6094,8.6094,8.6094,8.6094,8.6094,8.6094,8.6094,8.6094,8.6094,8.6094,8.6094,8.6094,8.6094,8.6094,8.6094,8.6786,8.7709,8.8594,8.9556,9.047,9.1124,9.1201,9.1201,9.1201,9.1201,9.1201,9.1201,9.1201,9.1201,9.1201,9.1201,9.1201,9.1201,9.1201,9.1201,9.1201,9.1201,9.1201,9.1201,9.1201,9.1201,9.1201,9.1201,9.1201,9.1201,9.1201,9.1201,9.1201,9.1201,9.1201,9.1201,9.1201,9.1201,9.1201,9.1201,9.1201,9.1201,9.1201,9.1201,9.1201,9.1201,9.1201,9.1201,9.1201,9.0932,9.0816,9.1009,9.1047,9.0778,9.0402,8.9633,8.9094,8.8795,8.8256,8.7555,8.7325,8.7171,8.7055,8.6863,8.6863,8.6901,8.6478,8.6363,8.6209,8.6363,8.6671,8.6594,8.6555,8.644,8.6247,8.6094,8.6094,8.6094,8.6094,8.6094,8.6094,8.6151,8.6231,8.6285,8.6338,8.6404,8.0868,8.0843,8.0843,8.086,8.0932,8.122,8.1883,8.2901,8.4247,8.5354,8.5978,8.6094,8.6094,8.6094,8.6094,8.6094,8.6094,8.6094,8.6094,8.6094,8.6094,8.6094,8.6094,8.6094,8.6094,8.6094,8.6094,8.6094,8.6094,8.6517,8.7055,8.7902,8.9239,9.0316,9.097,9.1201,9.1201,9.1201,9.1201,9.1201,9.1201,9.1201,9.1201,9.1201,9.1201,9.1201,9.1201,9.1201,9.1201,9.1201,9.1201,9.1201,9.1201,9.1201,9.1201,9.1201,9.1201,9.1201,9.1201,9.1201,9.1201,9.1201,9.1201,9.1201,9.1201,9.1201,9.1201,9.1201,9.1201,9.1201,9.1201,9.1201,9.1201,9.1201,9.1201,9.1201,9.1201,9.1201,9.1086,9.1086,9.1163,9.1201,9.1009,9.0893,9.0325,8.9863,8.9556,8.8987,8.8333,8.8256,8.8179,8.8179,8.8055,8.794,8.7786,8.7401,8.7363,8.744,8.7671,8.7987,8.7748,8.7209,8.7094,8.7055,8.6555,8.6094,8.6401,8.6555,8.6209,8.611,8.6459,8.6384,8.6246,8.6293,8.633,8.0335,8.0457,8.0278,8.0335,8.0531,8.0763,8.1436,8.2518,8.388,8.487,8.5408,8.5655,8.5784,8.5876,8.6035,8.6094,8.6094,8.6094,8.6094,8.6094,8.6094,8.6094,8.6094,8.6094,8.6094,8.6094,8.6094,8.6094,8.6094,8.6094,8.6632,8.7671,8.9017,9.0009,9.0663,9.0893,9.1201,9.1201,9.1201,9.1201,9.1201,9.1201,9.1201,9.1201,9.1201,9.1201,9.1201,9.1201,9.1201,9.1201,9.1201,9.1201,9.1201,9.1201,9.1201,9.1201,9.1201,9.1201,9.1201,9.1201,9.1201,9.1201,9.1201,9.1201,9.1201,9.1201,9.1201,9.1201,9.1201,9.1201,9.1201,9.1201,9.1201,9.1201,9.1201,9.1201,9.1201,9.1201,9.1201,9.1201,9.1201,9.1201,9.1201,9.1163,9.0932,9.0594,9.0287,8.971,8.9171,8.9133,8.9026,8.891,8.8795,8.8594,8.8479,8.8372,8.841,8.8641,8.8795,8.8949,8.8564,8.7979,8.791,8.7833,8.7555,8.7286,8.7171,8.7094,8.7094,8.7132,8.7303,8.7006,8.6369,8.6385,8.6593,7.9478,7.9762,7.9285,7.9456,7.9985,8.0401,8.1251,8.243,8.3257,8.3883,8.4379,8.4898,8.5169,8.5436,8.5802,8.5971,8.6043,8.6052,8.6094,8.6094,8.6094,8.6094,8.6094,8.6094,8.6094,8.6094,8.6094,8.6094,8.6094,8.6094,8.6555,8.7555,8.8902,8.9701,9.0201,9.0778,9.1124,9.1201,9.1201,9.1201,9.1201,9.1201,9.1201,9.1201,9.1201,9.1201,9.1201,9.1201,9.1201,9.1201,9.1201,9.1201,9.1201,9.1201,9.1201,9.1201,9.1201,9.1201,9.1201,9.1201,9.1201,9.1201,9.1201,9.1201,9.1201,9.1201,9.1201,9.1201,9.1201,9.1201,9.1201,9.1201,9.1201,9.1201,9.1201,9.1201,9.1201,9.1201,9.1201,9.1201,9.1201,9.1201,9.1201,9.1201,9.1201,9.1047,9.0748,9.0556,9.0094,8.9979,8.9787,8.941,8.9295,8.9056,8.9026,8.9286,8.941,8.9641,8.941,8.9402,8.9064,8.8863,8.8748,8.8709,8.8641,8.8449,8.8025,8.8064,8.8333,8.8372,8.8111,8.7853,8.7263,8.7079,8.7101,7.9073,7.9157,7.9013,7.9061,7.9227,7.9377,8.0061,8.1128,8.1911,8.2661,8.337,8.4131,8.4502,8.4609,8.5121,8.534,8.5599,8.5828,8.6052,8.6077,8.6035,8.6069,8.6094,8.6094,8.6094,8.6094,8.6094,8.6094,8.6094,8.6094,8.6555,8.7478,8.8479,8.9171,8.994,9.0748,9.1009,9.1201,9.1201,9.1201,9.1201,9.1201,9.1201,9.1201,9.1201,9.1201,9.1201,9.1201,9.1201,9.1201,9.1201,9.1201,9.1201,9.1201,9.1201,9.1201,9.1201,9.1201,9.1201,9.1201,9.1201,9.1201,9.1201,9.1201,9.1201,9.1201,9.1201,9.1201,9.1201,9.1201,9.1201,9.1201,9.1201,9.1201,9.1201,9.1201,9.1201,9.1201,9.1201,9.1201,9.1201,9.1201,9.1201,9.1201,9.1201,9.1201,9.1124,9.097,9.0855,9.0663,9.0509,9.0133,9.0056,8.9902,9.021,9.0517,9.0517,9.0556,9.0287,9.0133,9.0171,8.9979,8.971,8.9517,8.9402,8.9064,8.8603,8.8833,8.921,8.8859,8.8606,8.8417,8.8242,8.802,8.7903,7.8416,7.8536,7.8363,7.8268,7.8268,7.8268,7.8688,7.9433,8.0664,8.1627,8.2332,8.3318,8.3824,8.3991,8.4525,8.4828,8.4888,8.5248,8.5533,8.5766,8.584,8.5945,8.6026,8.6077,8.6094,8.6094,8.6094,8.6094,8.6094,8.6132,8.6478,8.6824,8.7756,8.8594,8.9402,9.0133,9.0816,9.1047,9.1201,9.1201,9.1201,9.1201,9.1201,9.1201,9.1201,9.1201,9.1201,9.1201,9.1201,9.1201,9.1201,9.1201,9.1201,9.1201,9.1201,9.1201,9.1201,9.1201,9.1201,9.1201,9.1201,9.1201,9.1201,9.1201,9.1201,9.1201,9.1201,9.1201,9.1201,9.1201,9.1201,9.1201,9.1201,9.1201,9.1201,9.1201,9.1201,9.1201,9.1201,9.1201,9.1201,9.1201,9.1201,9.1201,9.1201,9.1201,9.1201,9.1124,9.1086,9.1009,9.097,9.0787,9.0864,9.0932,9.1201,9.1201,9.1056,9.0941,9.0902,9.0864,9.1047,9.0932,9.047,9.0248,9.0094,8.9825,8.9594,8.9748,8.994,8.962,8.953,8.9671,8.9429,8.8923,8.889,7.7614,7.8002,7.751,7.7396,7.7304,7.7381,7.7396,7.7534,7.9563,8.0682,8.1314,8.2535,8.3175,8.3373,8.3915,8.4228,8.436,8.4643,8.5061,8.5357,8.5357,8.5514,8.5867,8.6043,8.6009,8.6052,8.6094,8.6094,8.6094,8.6132,8.6132,8.617,8.7055,8.7902,8.8594,8.9633,9.0355,9.0778,9.1047,9.1201,9.1201,9.1201,9.1201,9.1201,9.1201,9.1201,9.1201,9.1201,9.1201,9.1201,9.1201,9.1201,9.1201,9.1201,9.1201,9.1201,9.1201,9.1201,9.1201,9.1201,9.1201,9.1201,9.1201,9.1201,9.1201,9.1201,9.1201,9.1201,9.1201,9.1201,9.1201,9.1201,9.1201,9.1201,9.1201,9.1201,9.1201,9.1201,9.1201,9.1201,9.1201,9.1201,9.1201,9.1201,9.1201,9.1201,9.1201,9.1201,9.1201,9.1201,9.1201,9.1201,9.1201,9.1201,9.1201,9.1201,9.1201,9.1163,9.1201,9.1163,9.1124,9.1163,9.1163,9.0902,9.0633,9.0864,9.0825,9.0748,9.0633,9.0671,9.0697,9.1031,9.0722,8.9941,8.9918,7.7381,7.7465,7.735,7.7326,7.7326,7.7326,7.7326,7.7399,7.8508,7.951,8.0331,8.1671,8.2497,8.2693,8.3232,8.3556,8.3717,8.4092,8.4566,8.4787,8.4843,8.5103,8.5475,8.5561,8.5739,8.6026,8.6094,8.6094,8.6094,8.6094,8.6132,8.6209,8.6863,8.7478,8.7902,8.9017,8.9855,9.0393,9.0778,9.1086,9.1201,9.1201,9.1201,9.1201,9.1201,9.1201,9.1201,9.1201,9.1201,9.1201,9.1201,9.1201,9.1201,9.1201,9.1201,9.1201,9.1201,9.1201,9.1201,9.1201,9.1201,9.1201,9.1201,9.1201,9.1201,9.1201,9.1201,9.1201,9.1201,9.1201,9.1201,9.1201,9.1201,9.1201,9.1201,9.1201,9.1201,9.1201,9.1201,9.1201,9.1201,9.1201,9.1201,9.1201,9.1201,9.1201,9.1201,9.1201,9.1201,9.1201,9.1201,9.1201,9.1201,9.1201,9.1201,9.1201,9.1201,9.1201,9.1201,9.1201,9.1201,9.1201,9.1201,9.1201,9.1124,9.1201,9.1201,9.1124,9.1086,9.1201,9.121,9.1245,9.1249,9.0686,9.0867,7.7326,7.7326,7.7326,7.7326,7.7326,7.7326,7.7326,7.7472,7.8222,7.9029,7.989,8.1048,8.1856,8.2145,8.2678,8.2913,8.3068,8.347,8.386,8.4155,8.4365,8.4673,8.4899,8.5082,8.5397,8.5693,8.6018,8.6094,8.6094,8.6094,8.6132,8.617,8.6709,8.7055,8.7401,8.8402,8.9239,8.9893,9.0432,9.0816,9.1086,9.1201,9.1201,9.1201,9.1201,9.1201,9.1201,9.1201,9.1201,9.1201,9.1201,9.1201,9.1201,9.1201,9.1201,9.1201,9.1201,9.1201,9.1201,9.1201,9.1201,9.1201,9.1201,9.1201,9.1201,9.1201,9.1201,9.1201,9.1201,9.1201,9.1201,9.1201,9.1201,9.1201,9.1201,9.1201,9.1201,9.1201,9.1201,9.1201,9.1201,9.1201,9.1201,9.1201,9.1201,9.1201,9.1201,9.1201,9.1201,9.1201,9.1201,9.1201,9.1201,9.1201,9.1201,9.1201,9.1201,9.1201,9.1201,9.1201,9.1201,9.1201,9.1201,9.1201,9.1201,9.1201,9.1201,9.1201,9.1201,9.1201,9.121,9.1227,9.1232,9.1275,9.125,7.7326,7.7326,7.7326,7.7326,7.7326,7.7326,7.7326,7.7436,7.8112,7.8956,7.9779,8.0534,8.1305,8.1978,8.2279,8.2359,8.2528,8.289,8.3206,8.349,8.3709,8.4066,8.4365,8.4604,8.4986,8.5407,8.5757,8.5962,8.6094,8.6094,8.6094,8.6094,8.6247,8.6478,8.7055,8.7555,8.8171,8.9286,8.9979,9.047,9.0816,9.1201,9.1201,9.1201,9.1201,9.1201,9.1201,9.1201,9.1201,9.1201,9.1201,9.1201,9.1201,9.1201,9.1201,9.1201,9.1201,9.1201,9.1201,9.1201,9.1201,9.1201,9.1201,9.1201,9.1201,9.1201,9.1201,9.1201,9.1201,9.1201,9.1201,9.1201,9.1201,9.1201,9.1201,9.1201,9.1201,9.1201,9.1201,9.1201,9.1201,9.1201,9.1201,9.1201,9.1201,9.1201,9.1201,9.1201,9.1201,9.1201,9.1201,9.1201,9.1201,9.1201,9.1201,9.1201,9.1201,9.1201,9.1201,9.1201,9.1201,9.1201,9.1201,9.1201,9.1201,9.1201,9.1201,9.1201,9.1201,9.1201,9.121,9.1219,9.1227,9.1232,9.1275,7.7326,7.7326,7.7326,7.7326,7.7326,7.7326,7.7326,7.7326,7.7509,7.8369,7.9522,8.0,8.0755,8.2186,8.2203,8.2284,8.2375,8.2518,8.2612,8.2874,8.315,8.3476,8.3857,8.4142,8.4662,8.5082,8.5456,8.5721,8.5902,8.6026,8.6094,8.6094,8.6094,8.6247,8.6401,8.6978,8.7748,8.8748,8.9594,9.0163,9.0864,9.1124,9.1163,9.1201,9.1201,9.1201,9.1201,9.1201,9.1201,9.1201,9.1201,9.1201,9.1201,9.1201,9.1201,9.1201,9.1201,9.1201,9.1201,9.1201,9.1201,9.1201,9.1201,9.1201,9.1201,9.1201,9.1201,9.1201,9.1201,9.1201,9.1201,9.1201,9.1201,9.1201,9.1201,9.1201,9.1201,9.1201,9.1201,9.1201,9.1201,9.1201,9.1201,9.1201,9.1201,9.1201,9.1201,9.1201,9.1201,9.1201,9.1201,9.1201,9.1201,9.1201,9.1201,9.1201,9.1201,9.1201,9.1201,9.1201,9.1201,9.1201,9.1201,9.1201,9.1201,9.1201,9.1201,9.1201,9.1201,9.1201,9.1201,9.121,9.1219,9.1227,9.1232]}]]